[[{"header":{"parameterUnit":"m.s-1","parameterCategory":1,"la1":30.6,"la2":28.766,"lo1":-90.7593,"lo2":-88.6598,"dy":0.0162,"dx":0.0183,"nx":116,"ny":114,"refTime":"2023-07-01T06:00:00:Z","depth":0,"parameterNumber":2,"parameterNumberName":"U-component_of_WINDS"},"data":[0.0,0.0,0.0,0.0,0.0,0.0,0.0,0.0,0.0,0.0,0.0,0.0,0.0,0.0,0.0,0.0,0.0,0.0,0.0,0.0,0.0,0.0,0.0,0.0,0.0,0.0,0.0,0.0,0.0,0.0,0.0,0.0,0.0,0.0,0.0,0.0,0.0,0.0,0.0,0.0,0.0,0.0,0.0,0.0,0.0,0.0,0.0,0.0,0.0,0.0,0.0,0.0,0.0,0.0,0.0,0.0,0.0,0.0,0.0,0.0,0.0,0.0,0.0,0.0,0.0,0.0,0.0,0.0,0.0,0.0,0.0,0.0,0.0,0.0,0.0,0.0,0.0,0.0,0.0,0.0,0.0,0.0,0.0,0.0,0.0,0.0,0.0,0.0,0.0,0.0,0.0,0.0,0.0,0.0,0.0,0.0,0.0,0.0,0.0,0.0,0.0,0.0,0.0,0.0,0.0,0.0,0.0,0.0,0.0,0.0,0.0,0.0,0.0,0.0,0.0,0.0,0.0,0.0,0.0,0.0,0.0,0.0,0.0,0.0,0.0,0.0,0.0,0.0,0.0,0.0,0.0,0.0,0.0,0.0,0.0,0.0,0.0,0.0,0.0,0.0,0.0,0.0,0.0,0.0,0.0,0.0,0.0,0.0,0.0,0.0,0.0,0.0,0.0,0.0,0.0,0.0,0.0,0.0,0.0,0.0,0.0,0.0,0.0,0.0,0.0,0.0,0.0,0.0,0.0,0.0,0.0,0.0,0.0,0.0,0.0,0.0,0.0,0.0,0.0,0.0,0.0,0.0,0.0,0.0,0.0,0.0,0.0,0.0,0.0,0.0,0.0,0.0,0.0,0.0,0.0,0.0,0.0,0.0,0.0,0.0,0.0,0.0,0.0,0.0,0.0,0.0,0.0,0.0,0.0,0.0,0.0,0.0,0.0,0.0,0.0,0.0,0.0,0.0,0.0,0.0,0.0,0.0,0.0,0.0,0.0,0.0,0.0,0.0,0.0,0.0,0.0,0.0,0.0,0.0,0.0,0.0,0.0,0.0,0.0,0.0,0.0,0.0,0.0,0.0,0.0,0.0,0.0,0.0,0.0,0.0,0.0,0.0,0.0,0.0,0.0,0.0,0.0,0.0,0.0,0.0,0.0,0.0,0.0,0.0,0.0,0.0,0.0,0.0,0.0,0.0,0.0,0.0,0.0,0.0,0.0,0.0,0.0,0.0,0.0,0.0,0.0,0.0,0.0,0.0,0.0,0.0,0.0,0.0,0.0,0.0,0.0,0.0,0.0,0.0,0.0,0.0,0.0,0.0,0.0,0.0,0.0,0.0,0.0,0.0,0.0,0.0,0.0,0.0,0.0,0.0,0.0,0.0,0.0,0.0,0.0,0.0,0.0,0.0,0.0,0.0,0.0,0.0,0.0,0.0,0.0,0.0,0.0,0.0,0.0,0.0,0.0,0.0,0.0,0.0,0.0,0.0,0.0,0.0,0.0,0.0,0.0,0.0,0.0,0.0,0.0,0.0,0.0,0.0,0.0,0.0,0.0,0.0,0.0,0.0,0.0,0.0,0.0,0.0,0.0,0.0,0.0,0.0,0.0,0.0,0.0,0.0,0.0,0.0,0.0,0.0,0.0,0.0,0.0,0.0,0.0,0.0,0.0,0.0,0.0,0.0,0.0,0.0,0.0,0.0,0.0,0.0,0.0,0.0,0.0,0.0,0.0,0.0,0.0,0.0,0.0,0.0,0.0,0.0,0.0,0.0,0.0,0.0,0.0,0.0,0.0,0.0,0.0,0.0,0.0,0.0,0.0,0.0,0.0,0.0,0.0,0.0,0.0,0.0,0.0,0.0,0.0,0.0,0.0,0.0,0.0,0.0,0.0,0.0,0.0,0.0,0.0,0.0,0.0,0.0,0.0,0.0,0.0,0.0,0.0,0.0,0.0,0.0,0.0,0.0,0.0,0.0,0.0,0.0,0.0,0.0,0.0,0.0,0.0,0.0,0.0,0.0,0.0,0.0,0.0,0.0,0.0,0.0,0.0,0.0,0.0,0.0,0.0,0.0,0.0,0.0,0.0,0.0,0.0,0.0,0.0,0.0,0.0,0.0,0.0,0.0,0.0,0.0,0.0,0.0,0.0,0.0,0.0,0.0,0.0,0.0,0.0,0.0,0.0,0.0,0.0,0.0,0.0,0.0,0.0,0.0,0.0,0.0,0.0,0.0,0.0,0.0,0.0,0.0,0.0,0.0,0.0,0.0,0.0,0.0,0.0,0.0,0.0,0.0,0.0,0.0,0.0,0.0,0.0,0.0,0.0,0.0,0.0,0.0,0.0,0.0,0.0,0.0,0.0,0.0,0.0,0.0,0.0,0.0,0.0,0.0,0.0,0.0,0.0,0.0,0.0,0.0,0.0,0.0,0.0,0.0,0.0,0.0,0.0,0.0,0.0,0.0,0.0,0.0,0.0,0.0,0.0,0.0,0.0,0.0,0.0,0.0,0.0,0.0,0.0,0.0,0.0,0.0,0.0,0.0,0.0,0.0,0.0,0.0,0.0,0.0,0.0,0.0,0.0,0.0,0.0,0.0,0.0,0.0,0.0,0.0,0.0,0.0,0.0,0.0,0.0,0.0,0.0,0.0,0.0,0.0,0.0,0.0,0.0,0.0,0.0,0.0,0.0,0.0,0.0,0.0,0.0,0.0,0.0,0.0,0.0,0.0,0.0,0.0,0.0,0.0,0.0,0.0,0.0,0.0,0.0,0.0,0.0,0.0,0.0,0.0,0.0,0.0,0.0,0.0,0.0,0.0,0.0,0.0,0.0,0.0,0.0,0.0,0.0,0.0,0.0,0.0,0.0,0.0,0.0,0.0,0.0,0.0,0.0,0.0,0.0,0.0,0.0,0.0,0.0,0.0,0.0,0.0,0.0,0.0,0.0,0.0,0.0,0.0,0.0,0.0,0.0,0.0,0.0,0.0,0.0,0.0,0.0,0.0,0.0,0.0,0.0,0.0,0.0,0.0,0.0,0.0,0.0,0.0,0.0,0.0,0.0,0.0,0.0,0.0,0.0,0.0,0.0,0.0,0.0,0.0,0.0,0.0,0.0,0.0,0.0,0.0,0.0,0.0,0.0,0.0,0.0,0.0,0.0,0.0,0.0,0.0,0.0,0.0,0.0,0.0,0.0,0.0,0.0,0.0,0.0,0.0,0.0,0.0,0.0,0.0,0.0,0.0,0.0,0.0,0.0,0.0,0.0,0.0,0.0,0.0,0.0,0.0,0.0,0.0,0.0,0.0,0.0,0.0,0.0,0.0,0.0,0.0,0.0,0.0,0.0,0.0,0.0,0.0,0.0,0.0,0.0,0.0,0.0,0.0,0.0,0.0,0.0,0.0,0.0,0.0,0.0,0.0,0.0,0.0,0.0,0.0,0.0,0.0,0.0,0.0,0.0,0.0,0.0,0.0,0.0,0.0,0.0,0.0,0.0,0.0,0.0,0.0,0.0,0.0,0.0,0.0,0.0,0.0,0.0,0.0,0.0,0.0,0.0,0.0,0.0,0.0,0.0,0.0,0.0,0.0,0.0,0.0,0.0,0.0,0.0,0.0,0.0,0.0,0.0,0.0,0.0,0.0,0.0,0.0,0.0,0.0,0.0,0.0,0.0,0.0,0.0,0.0,0.0,0.0,0.0,0.0,0.0,0.0,0.0,0.0,0.0,0.0,0.0,0.0,0.0,0.0,0.0,0.0,0.0,0.0,0.0,0.0,0.0,0.0,0.0,0.0,0.0,0.0,0.0,0.0,0.0,0.0,0.0,0.0,0.0,0.0,0.0,0.0,0.0,0.0,0.0,0.0,0.0,0.0,0.0,0.0,0.0,0.0,0.0,0.0,0.0,0.0,0.0,0.0,0.0,0.0,0.0,0.0,0.0,0.0,0.0,0.0,0.0,0.0,0.0,0.0,0.0,0.0,0.0,0.0,0.0,0.0,0.0,0.0,0.0,0.0,0.0,0.0,0.0,0.0,0.0,0.0,0.0,0.0,0.0,0.0,0.0,0.0,0.0,0.0,0.0,0.0,0.0,0.0,0.0,0.0,0.0,0.0,0.0,0.0,0.0,0.0,0.0,0.0,0.0,0.0,0.0,0.0,0.0,0.0,0.0,0.0,0.0,0.0,0.0,0.0,0.0,0.0,0.0,0.0,0.0,0.0,0.0,0.0,0.0,0.0,0.0,0.0,0.0,0.0,0.0,0.0,0.0,0.0,0.0,0.0,0.0,0.0,0.0,0.0,0.0,0.0,0.0,0.0,0.0,0.0,0.0,0.0,0.0,0.0,0.0,0.0,0.0,0.0,0.0,0.0,0.0,0.0,0.0,0.0,0.0,0.0,0.0,0.0,0.0,0.0,0.0,0.0,0.0,0.0,0.0,0.0,0.0,0.0,0.0,0.0,0.0,0.0,0.0,0.0,0.0,0.0,0.0,0.0,0.0,0.0,0.0,0.0,0.0,0.0,0.0,0.0,0.0,0.0,0.0,0.0,0.0,0.0,0.0,0.0,0.0,0.0,0.0,0.0,0.0,0.0,0.0,0.0,0.0,0.0,0.0,0.0,0.0,0.0,0.0,0.0,0.0,0.0,0.0,0.0,0.0,0.0,0.0,0.0,0.0,0.0,0.0,0.0,0.0,0.0,0.0,0.0,0.0,0.0,0.0,0.0,0.0,0.0,0.0,0.0,0.0,0.0,0.0,0.0,0.0,0.0,0.0,0.0,0.0,0.0,0.0,0.0,0.0,0.0,0.0,0.0,0.0,0.0,0.0,0.0,0.0,0.0,0.0,0.0,0.0,0.0,0.0,0.0,0.0,0.0,0.0,0.0,0.0,0.0,0.0,0.0,0.0,0.0,0.0,0.0,0.0,0.0,0.0,0.0,0.0,0.0,0.0,0.0,0.0,0.0,0.0,0.0,0.0,0.0,0.0,0.0,0.0,0.0,0.0,0.0,0.0,0.0,0.0,0.0,0.0,0.0,0.0,0.0,0.0,0.0,0.0,0.0,0.0,0.0,0.0,0.0,0.0,0.0,0.0,0.0,0.0,0.0,0.0,0.0,0.0,0.0,0.0,0.0,0.0,0.0,0.0,0.0,0.0,0.0,0.0,0.0,0.0,0.0,0.0,0.0,0.0,0.0,0.0,0.0,0.0,0.0,0.0,0.0,0.0,0.0,0.0,0.0,0.0,0.0,0.0,0.0,0.0,0.0,0.0,0.0,0.0,0.0,0.0,0.0,0.0,0.0,0.0,0.0,0.0,0.0,0.0,0.0,0.0,0.0,0.0,0.0,0.0,0.0,0.0,0.0,0.0,0.0,0.0,0.0,0.0,0.0,0.0,0.0,0.0,0.0,0.0,0.0,0.0,0.0,0.0,0.0,0.0,0.0,0.0,0.0,0.0,0.0,0.0,0.0,0.0,0.0,0.0,0.0,0.0,0.0,0.0,0.0,0.0,0.0,0.0,0.0,0.0,0.0,0.0,0.0,0.0,0.0,0.0,0.0,0.0,0.0,0.0,0.0,0.0,0.0,0.0,0.0,0.0,0.0,0.0,0.0,0.0,0.0,0.0,0.0,0.0,0.0,0.0,0.0,0.0,0.0,0.0,0.0,0.0,0.0,0.0,0.0,0.0,0.0,0.0,0.0,0.0,0.0,0.0,0.0,0.0,0.0,0.0,0.0,0.0,0.0,0.0,0.0,0.0,0.0,0.0,0.0,0.0,0.0,0.0,0.0,0.0,0.0,0.0,0.0,0.0,0.0,0.0,0.0,0.0,0.0,0.0,0.0,0.0,0.0,0.0,0.0,0.0,0.0,0.0,0.0,0.0,0.0,0.0,0.0,0.0,0.0,0.0,0.0,0.0,0.0,0.0,0.0,0.0,0.0,0.0,0.0,0.0,0.0,0.0,0.0,0.0,0.0,0.0,0.0,0.0,0.0,0.0,0.0,0.0,0.0,0.0,0.0,0.0,0.0,0.0,0.0,0.0,0.0,0.0,0.0,0.0,0.0,0.0,0.0,0.0,0.0,0.0,0.0,0.0,0.0,0.0,0.0,0.0,0.0,-3.5427,0.0,0.0,0.0,0.0,0.0,0.0,0.0,0.0,0.0,0.0,0.0,0.0,0.0,0.0,0.0,0.0,0.0,0.0,0.0,0.0,0.0,0.0,0.0,0.0,0.0,0.0,0.0,0.0,0.0,0.0,0.0,0.0,0.0,0.0,0.0,0.0,0.0,0.0,-2.7077,-2.7077,-2.7516,-2.8351,-2.7014,-2.6447,-2.6498,0.0,0.0,0.0,0.0,0.0,0.0,0.0,0.0,0.0,0.0,0.0,0.0,0.0,0.0,0.0,0.0,0.0,0.0,0.0,0.0,0.0,0.0,0.0,0.0,0.0,0.0,0.0,0.0,0.0,0.0,0.0,0.0,0.0,0.0,0.0,0.0,0.0,0.0,0.0,0.0,0.0,0.0,0.0,0.0,0.0,0.0,0.0,0.0,0.0,0.0,0.0,0.0,0.0,0.0,0.0,0.0,0.0,0.0,0.0,0.0,0.0,0.0,0.0,0.0,0.0,0.0,0.0,0.0,0.0,0.0,0.0,-3.6562,0.0,0.0,0.0,0.0,0.0,0.0,0.0,0.0,0.0,0.0,0.0,0.0,0.0,0.0,0.0,0.0,0.0,0.0,0.0,0.0,0.0,0.0,0.0,0.0,-2.4378,-2.5235,-2.5311,0.0,0.0,0.0,0.0,0.0,0.0,0.0,0.0,-2.66,-2.709,-2.8128,-2.8421,-2.8937,-2.9652,-2.966,-2.9302,-2.8642,-2.8213,0.0,0.0,0.0,0.0,0.0,0.0,0.0,0.0,0.0,0.0,0.0,0.0,0.0,0.0,0.0,0.0,0.0,0.0,0.0,0.0,0.0,0.0,0.0,0.0,0.0,0.0,0.0,0.0,0.0,0.0,0.0,0.0,0.0,0.0,0.0,0.0,0.0,0.0,0.0,0.0,0.0,0.0,0.0,0.0,0.0,0.0,0.0,0.0,0.0,0.0,0.0,0.0,0.0,0.0,0.0,0.0,0.0,0.0,0.0,0.0,0.0,0.0,0.0,0.0,0.0,-4.4361,-4.4229,-4.4233,-4.4217,-4.1229,-3.9687,-3.918,0.0,0.0,0.0,0.0,0.0,0.0,0.0,0.0,0.0,0.0,0.0,0.0,0.0,0.0,0.0,0.0,0.0,0.0,0.0,0.0,0.0,0.0,-2.4416,-2.5254,-2.6065,-2.6141,-2.6465,0.0,0.0,0.0,0.0,0.0,0.0,-2.7442,-2.7449,-2.8212,-2.9785,-3.1309,-3.2107,-3.221,-3.221,-3.2201,-3.2046,-2.9832,-2.8873,-2.8889,0.0,0.0,0.0,0.0,0.0,0.0,0.0,0.0,0.0,0.0,0.0,0.0,0.0,0.0,0.0,0.0,0.0,0.0,0.0,0.0,0.0,0.0,0.0,0.0,0.0,0.0,0.0,0.0,0.0,0.0,0.0,0.0,0.0,0.0,0.0,0.0,0.0,0.0,0.0,0.0,0.0,-3.0135,-3.0261,0.0,0.0,0.0,0.0,0.0,0.0,0.0,0.0,0.0,0.0,0.0,0.0,0.0,0.0,-4.4313,-4.5182,-4.5675,-4.5792,-4.5792,-4.6246,-4.7055,-4.63,-4.6362,-4.7029,-4.58,0.0,-4.1777,-4.0194,0.0,0.0,0.0,0.0,0.0,0.0,0.0,0.0,0.0,0.0,0.0,0.0,0.0,0.0,0.0,0.0,0.0,0.0,0.0,0.0,0.0,-2.5214,-2.605,-2.6904,-2.6961,-2.7139,-2.7519,0.0,0.0,0.0,0.0,-2.7768,-2.8262,-2.876,-2.984,-3.1511,-3.227,-3.3152,-3.4119,-3.4119,-3.462,-3.5463,-3.3394,-3.1996,-3.1098,-2.9774,0.0,0.0,0.0,0.0,0.0,0.0,0.0,0.0,0.0,0.0,0.0,0.0,0.0,0.0,0.0,0.0,0.0,0.0,0.0,0.0,0.0,0.0,0.0,0.0,0.0,0.0,0.0,0.0,0.0,0.0,0.0,0.0,0.0,0.0,0.0,0.0,0.0,0.0,0.0,-3.0273,-3.1693,-3.2689,-3.3462,-3.4337,0.0,0.0,0.0,0.0,0.0,0.0,0.0,0.0,0.0,-4.3766,-4.5128,-4.6019,-4.6403,-4.7272,-4.7959,-4.8447,-4.8447,-4.8649,-4.8993,-4.8605,-4.8395,-4.83,-4.793,-4.7109,-4.5879,-4.3671,-4.2477,-4.1946,0.0,0.0,0.0,0.0,0.0,0.0,0.0,0.0,0.0,0.0,0.0,0.0,0.0,0.0,0.0,0.0,0.0,0.0,-2.5212,-2.6046,-2.688,-2.7733,-2.7809,-2.7885,-2.8093,-2.8112,0.0,0.0,-2.8324,-2.8757,-2.9402,-3.0486,-3.1757,-3.3213,-3.3439,-3.4321,-3.5812,-3.5812,-3.6486,-3.7656,-3.6387,-3.4947,-3.3319,-3.1652,-3.0931,-3.0791,0.0,0.0,0.0,0.0,0.0,0.0,0.0,0.0,0.0,0.0,0.0,0.0,0.0,0.0,0.0,0.0,0.0,0.0,0.0,0.0,0.0,0.0,0.0,0.0,0.0,0.0,0.0,0.0,0.0,0.0,0.0,0.0,0.0,0.0,0.0,0.0,0.0,-3.201,-3.3344,-3.4647,-3.5411,-3.6349,0.0,0.0,0.0,0.0,0.0,0.0,-4.3211,-4.4114,-4.5098,-4.6192,-4.7708,-4.8599,-4.8827,-4.9692,-5.0457,-5.11,-5.11,-5.1091,-5.1105,-5.1105,-5.0778,-5.0195,-4.9961,-4.9746,-4.9336,-4.6737,-4.5152,-4.4289,-4.3403,-4.2928,0.0,-4.128,-4.0803,-4.0701,0.0,0.0,0.0,0.0,0.0,0.0,0.0,0.0,0.0,0.0,0.0,-2.5231,-2.6046,-2.6899,-2.7752,-2.857,-2.8646,-2.8968,-2.9726,-2.9783,-2.9783,-2.9783,-3.056,-3.1023,-3.108,-3.2743,-3.4042,-3.4868,-3.5712,-3.6577,-3.7471,-3.7471,-3.7557,-3.7698,-3.7613,-3.6674,-3.5063,-3.3398,-3.2673,-3.2529,-3.0848,0.0,0.0,0.0,0.0,0.0,0.0,0.0,0.0,0.0,0.0,0.0,0.0,0.0,0.0,0.0,0.0,0.0,0.0,0.0,0.0,0.0,0.0,0.0,0.0,0.0,0.0,0.0,0.0,0.0,0.0,0.0,0.0,0.0,0.0,0.0,0.0,0.0,0.0,-3.5621,-3.7889,0.0,0.0,0.0,0.0,-4.2155,-4.3692,-4.5046,-4.5946,-4.6836,-4.808,-4.9775,-5.0728,-5.1598,-5.2429,-5.3307,-5.3756,-5.3795,-5.3795,-5.3806,-5.3801,-5.3801,-5.3786,-5.3691,-5.2871,-5.2031,-5.1074,-4.8512,-4.6966,-4.6086,-4.5213,-4.4367,-4.3624,-4.3543,-4.3495,-4.349,0.0,0.0,0.0,0.0,0.0,0.0,0.0,0.0,0.0,-2.3158,-2.4738,-2.6103,-2.6937,-2.7782,-2.8825,-3.0181,-3.0313,-3.0654,-3.145,-3.1507,-3.1507,-3.1507,-3.181,-3.2482,-3.3562,-3.4187,-3.5183,-3.6548,-3.6852,-3.7489,-3.8374,-3.8374,-3.8679,-3.9223,-3.8671,-3.8118,-3.7504,-3.5859,-3.4851,-3.4255,-3.3127,-3.2343,0.0,0.0,0.0,0.0,0.0,0.0,0.0,0.0,0.0,0.0,0.0,0.0,0.0,0.0,0.0,0.0,0.0,0.0,0.0,0.0,0.0,0.0,0.0,0.0,0.0,0.0,0.0,0.0,0.0,0.0,0.0,0.0,0.0,0.0,0.0,0.0,0.0,-3.8787,-3.9898,0.0,-4.2052,-4.3201,-4.416,-4.4764,-4.5916,-4.717,-4.8573,-4.9471,-5.0501,-5.1729,-5.262,-5.3218,-5.3522,-5.3834,-5.4283,-5.483,-5.4838,-5.4846,-5.4835,-5.4839,-5.453,-5.3984,-5.3672,-5.3047,-5.2167,-5.1265,-4.9738,-4.794,-4.7575,-4.7251,-4.6852,-4.5726,-4.5304,-4.5156,0.0,0.0,0.0,0.0,0.0,0.0,0.0,0.0,0.0,-2.403,-2.5598,-2.6956,-2.7809,-2.89,-2.9991,-3.109,-3.145,-3.1829,-3.236,-3.2397,-3.2397,-3.2397,-3.2937,-3.3903,-3.5306,-3.559,-3.6424,-3.7837,-3.7837,-3.8302,-3.9168,-3.9168,-3.9483,-4.0048,-3.9458,-3.9241,-3.9233,-3.8175,-3.7066,-3.5974,-3.5171,-3.4331,-3.3463,0.0,0.0,0.0,0.0,0.0,0.0,0.0,0.0,0.0,0.0,0.0,0.0,0.0,0.0,0.0,0.0,0.0,0.0,0.0,0.0,0.0,0.0,0.0,0.0,0.0,0.0,0.0,0.0,0.0,0.0,0.0,0.0,0.0,0.0,0.0,-3.8404,-4.1029,-4.2102,-4.3078,-4.4258,-4.5423,-4.6496,-4.7404,-4.8292,-4.9395,-5.0805,-5.17,-5.2734,-5.3942,-5.456,-5.5155,-5.5728,-5.5435,-5.5571,-5.6138,-5.5876,-5.5747,-5.5734,-5.5738,-5.5429,-5.4863,-5.457,-5.4101,-5.3533,-5.2944,-5.171,-5.0125,-4.9487,-4.9064,-4.866,-4.7499,-4.7075,-4.6862,0.0,0.0,0.0,0.0,0.0,0.0,0.0,-2.2737,-2.4107,-2.4936,-2.6491,-2.7809,-2.8627,-3.02,-3.1212,-3.1242,-3.1981,-3.2454,-3.2473,-3.2473,-3.2492,-3.2511,-3.4074,-3.5363,-3.6263,-3.704,-3.7874,-3.8746,-3.8746,-3.9153,-3.9938,-3.9938,-3.9989,-4.0072,-4.0072,-4.0112,-4.0164,-4.0164,-3.9271,-3.7789,-3.692,-3.6061,-3.5182,0.0,0.0,0.0,0.0,0.0,0.0,0.0,0.0,0.0,0.0,0.0,0.0,0.0,0.0,0.0,0.0,0.0,0.0,0.0,0.0,0.0,0.0,0.0,0.0,0.0,0.0,0.0,0.0,0.0,0.0,0.0,0.0,0.0,-3.7102,-3.9265,-4.1211,-4.2198,-4.4491,-4.6042,-4.6171,-4.7767,-4.9127,-4.9972,-5.0872,-5.1756,-5.2636,-5.3514,-5.4778,-5.6492,-5.6638,-5.7465,-5.9083,-5.8265,-5.7836,-5.7797,-5.7006,-5.6626,-5.6593,-5.6598,-5.6601,-5.6543,-5.5703,-5.5332,-5.5173,-5.347,-5.2742,-5.2539,-5.0811,-4.963,-4.8874,-4.8842,-4.8827,-4.8668,0.0,0.0,0.0,0.0,0.0,0.0,0.0,-2.3128,-2.4328,-2.5748,-2.6882,-2.7875,-2.8681,-3.0276,-3.1493,-3.2027,-3.2861,-3.36,-3.4169,-3.4207,-3.4491,-3.5135,-3.559,-3.6529,-3.7988,-3.8235,-3.8736,-3.9559,-3.9559,-4.0014,-4.0828,-4.0828,-4.1162,-4.1753,-4.1753,-4.1786,-4.1841,-4.1841,-4.1607,-4.1061,-3.9004,-3.7671,-3.6918,0.0,0.0,0.0,0.0,0.0,0.0,0.0,0.0,0.0,0.0,0.0,0.0,0.0,0.0,0.0,0.0,0.0,0.0,0.0,0.0,0.0,0.0,0.0,0.0,0.0,0.0,0.0,0.0,0.0,0.0,0.0,0.0,-3.9719,-3.9744,-4.0904,-4.2541,-4.4704,-4.5629,-4.6586,-4.7859,-4.9556,-5.0687,-5.0926,-5.2333,-5.3569,-5.4449,-5.5308,-5.628,-5.7406,-5.8063,-5.8634,-5.9102,-5.887,-5.8421,-5.7797,-5.764,-5.7217,-5.6593,-5.66,-5.6601,-5.6582,-5.6348,-5.5878,-5.5268,-5.4778,-5.3833,-5.2589,-5.1472,-5.0894,-5.062,-4.9973,-4.9348,-4.8771,0.0,0.0,0.0,0.0,0.0,0.0,0.0,-2.3595,-2.4949,-2.6625,-2.7297,-2.8056,-2.9228,-3.0505,-3.161,-3.2384,-3.3229,-3.4083,-3.4851,-3.523,-3.5666,-3.6187,-3.687,-3.7704,-3.8671,-3.902,-3.9608,-4.0449,-4.0449,-4.0885,-4.17,-4.17,-4.1946,-4.2401,-4.2401,-4.2424,-4.2458,-4.2458,-4.2481,-4.2389,-4.0889,-3.9647,-3.8603,-3.8242,-3.7262,-3.6102,-3.6055,-3.5201,-3.3997,-3.359,0.0,0.0,0.0,0.0,0.0,0.0,0.0,0.0,0.0,0.0,0.0,0.0,0.0,0.0,0.0,0.0,0.0,0.0,0.0,0.0,0.0,0.0,0.0,0.0,-4.072,-4.215,-4.2875,-4.341,-4.4422,-4.6321,-4.7227,-4.8229,-4.9615,-5.102,-5.2156,-5.2875,-5.3868,-5.4976,-5.6214,-5.6774,-5.7609,-5.8858,-5.9373,-5.9827,-6.0195,-5.9827,-5.9397,-5.887,-5.8227,-5.7628,-5.712,-5.6776,-5.6601,0.0,-5.6601,-5.6307,-5.5813,-5.5442,-5.4693,0.0,0.0,0.0,0.0,0.0,-5.0056,-4.9309,0.0,0.0,0.0,0.0,0.0,0.0,0.0,-2.4024,-2.5685,-2.7255,-2.7546,-2.821,-2.9798,-3.0773,-3.1605,-3.2294,-3.3244,-3.4119,-3.487,-3.5723,-3.6254,-3.6349,-3.7866,-3.8757,-3.8833,-3.9627,-4.0431,-4.1188,-4.1283,-4.1738,-4.2564,-4.2564,-4.2602,-4.2678,-4.2678,-4.2708,-4.2689,-4.2689,-4.2689,-4.2689,-4.2614,-4.1627,-4.0143,-3.9363,-3.8469,-3.7631,-3.7631,-3.707,-3.6225,-3.5438,0.0,0.0,0.0,0.0,0.0,0.0,0.0,0.0,0.0,0.0,0.0,0.0,0.0,0.0,0.0,0.0,0.0,0.0,0.0,0.0,0.0,0.0,0.0,0.0,-4.2621,-4.4279,-4.6041,-4.6377,-4.6711,-4.7506,-4.9054,-5.0388,-5.1254,-5.2271,-5.352,-5.5076,-5.5388,-5.6153,-5.7714,0.0,0.0,0.0,0.0,-6.092,-6.1698,-6.0939,-6.049,-6.0373,-5.8891,-5.8077,-5.7863,-5.7108,-5.6699,-5.6601,-5.6601,-5.66,-5.6534,-5.5774,-5.5394,-5.5123,-5.3383,-5.2179,-5.1391,-5.1316,-5.0813,0.0,0.0,0.0,0.0,0.0,0.0,0.0,0.0,-2.4072,-2.5523,-2.6492,-2.7243,-2.805,-2.9034,-3.0475,-3.1424,-3.151,-3.2925,-3.4162,-3.5009,-3.5826,-3.6587,-3.731,-3.8259,-3.9074,-3.9739,-4.0539,-4.1018,-4.1188,-4.1851,-4.2621,-4.3455,-4.3455,-4.382,-4.4505,-4.4505,-4.4528,-4.4574,-4.4574,-4.4574,-4.4517,-4.387,-4.2552,-4.0956,-4.0805,-3.9781,-3.8472,-3.8472,-3.7923,-3.7135,-3.6973,-3.6367,-3.5562,-3.4746,-3.4062,0.0,0.0,0.0,0.0,0.0,0.0,0.0,0.0,0.0,0.0,0.0,0.0,0.0,0.0,0.0,0.0,0.0,0.0,0.0,-4.4409,-4.5156,-4.6022,-4.7779,-4.8625,-4.9147,-4.9376,-5.0324,-5.1288,-5.2164,-5.3725,-5.4838,-5.5173,-5.6444,-5.7381,-5.7772,-5.9121,0.0,-6.0393,-6.1076,-6.1522,-6.1698,-6.1522,-6.1095,-6.0393,0.0,0.0,-5.7883,-5.7733,-5.7265,-5.6601,-5.6601,-5.66,-5.6593,-5.6417,-5.5921,-5.5123,-5.3384,-5.2161,-5.1391,-5.1316,-5.1183,-5.1039,0.0,0.0,0.0,0.0,0.0,0.0,0.0,-2.4077,-2.5497,-2.6288,-2.7166,-2.8013,-2.8821,-3.0042,-3.0955,-3.1329,-3.2855,-3.416,-3.5035,-3.6253,-3.7148,-3.7585,-3.8793,-3.9638,-4.0038,-4.0444,-4.1049,-4.1895,-4.2294,-4.3149,-4.4402,-4.4402,-4.4634,-4.5057,-4.5057,-4.508,-4.5103,-4.5103,-4.5103,-4.5065,-4.4665,-4.3718,-4.2465,-4.1578,-4.071,-3.9892,-3.9456,-3.8755,-3.8064,-3.8095,-3.7289,-3.6169,-3.578,-3.5095,-3.4286,0.0,0.0,0.0,0.0,0.0,0.0,0.0,0.0,0.0,0.0,0.0,0.0,0.0,0.0,-4.0226,0.0,0.0,-4.4286,-4.5597,-4.6596,-4.7669,-4.8961,-4.9925,-5.0505,-5.0542,-5.1316,-5.2358,-5.3662,-5.464,-5.5548,-5.6386,-5.7223,-5.8102,-5.904,-5.9921,-6.06,-6.1035,-6.1464,-6.1698,-6.1698,-6.1698,-6.1483,-6.1056,-6.0607,-5.9736,-5.8487,-5.8085,-5.7422,-5.6601,-5.6601,-5.66,-5.6592,-5.6605,-5.6089,-5.5218,-5.4296,-5.3169,-5.1996,-5.1491,-5.13,-5.1292,0.0,0.0,0.0,0.0,0.0,0.0,0.0,0.0,-2.5432,-2.6076,-2.6937,-2.7714,-2.8357,-2.9339,-3.0364,-3.1359,-3.2778,-3.3982,-3.484,-3.6451,-3.7452,-3.7623,-3.907,-3.9955,-4.0127,-4.0269,-4.0982,-4.2343,-4.2514,-4.3371,-4.4855,-4.4855,-4.4943,-4.5125,-4.5125,-4.5125,-4.5148,-4.5148,-4.5148,-4.5148,-4.5148,-4.4641,-4.3735,-4.2159,-4.1421,-4.1119,-4.0255,-3.9526,-3.8967,-3.9028,-3.8041,-3.6758,-3.6615,-3.6015,-3.5233,-3.459,-3.4416,0.0,0.0,0.0,0.0,0.0,0.0,0.0,0.0,-3.8616,-3.9765,-3.9988,-4.1413,-4.2645,-4.2633,-4.4638,-4.6344,-4.6523,-4.7785,-4.9123,-5.0164,-5.0952,-5.1552,-5.1907,-5.2561,-5.357,-5.4957,-5.5307,-5.6074,-5.7598,-5.7871,-5.8667,-6.0308,-6.0545,-6.0968,-6.1679,-6.1698,-6.1698,-6.1698,-6.1698,-6.1698,-6.1698,-6.0998,-6.0204,-5.9326,-5.8515,-5.7676,-5.6836,-5.6679,-5.6599,-5.6592,-5.6595,-5.6196,-5.553,-5.5291,-5.4362,-5.3049,-5.1959,-5.1456,-5.1292,0.0,0.0,0.0,0.0,0.0,0.0,0.0,0.0,0.0,-2.5316,-2.6096,-2.6671,-2.6761,-2.8178,-2.9787,-3.1435,-3.2393,-3.3274,-3.4143,-3.5733,-3.6979,-3.7736,-3.8574,-3.9404,-4.0167,-4.0841,-4.1267,-4.1457,-4.2218,-4.3055,-4.3942,-4.3942,-4.4394,-4.5192,-4.5192,-4.5213,-4.5286,-4.5286,-4.5286,-4.5286,-4.5286,-4.4709,-4.3798,-4.2893,-4.2062,-4.1267,-4.0401,-4.001,-3.9944,-3.9944,-3.9326,-3.8413,-3.7747,-3.6955,-3.6249,-3.6216,-3.6205,-3.6347,-3.6967,-3.7184,-3.7256,-3.736,-3.8153,-3.9119,0.0,-4.0822,-4.1731,-4.2508,-4.4069,-4.5266,-4.5275,-4.6781,-4.8284,-4.9132,-4.9491,-5.0222,-5.1878,-5.2207,-5.2846,-5.4391,-5.4716,-5.4898,-5.5079,-5.5866,-5.6741,-5.7637,-5.8412,-5.931,-6.0347,-6.1072,-6.1534,-6.1698,-6.1698,-6.1698,-6.1698,-6.1698,-6.1698,-6.1698,-6.1603,-6.1103,-6.0225,-5.9413,-5.8574,-5.7715,-5.695,-5.6594,-5.6592,-5.6595,-5.6547,-5.637,-5.5536,-5.5093,-5.4726,-5.307,-5.1963,-5.1292,0.0,0.0,0.0,0.0,0.0,0.0,0.0,0.0,0.0,0.0,-2.5954,-2.6504,-2.6504,-2.7999,-2.9494,-3.0746,-3.1608,-3.2663,-3.4019,-3.5166,-3.6186,-3.7056,-3.8336,-3.9179,-3.9543,-4.0357,-4.1008,-4.1533,-4.1896,-4.2489,-4.3291,-4.3291,-4.3493,-4.3876,-4.4402,-4.4622,-4.4681,-4.5148,-4.5348,-4.531,-4.4753,-4.4302,-4.3823,-4.2497,-4.178,-4.1331,-4.0441,-4.0106,0.0,-4.0147,-3.9576,-3.8804,-3.8546,-3.7849,-3.7151,-3.7188,-3.7196,-3.7273,-3.767,-3.8516,-3.9325,-3.9369,-4.0408,-4.1517,-4.1918,-4.3058,-4.4132,-4.4531,-4.5998,-4.7216,-4.7198,-4.8261,-4.9235,0.0,-5.0576,-5.1521,-5.2292,-5.3275,-5.4192,-5.4964,-5.5525,-5.5857,-5.5862,-5.626,-5.7033,-5.8353,-5.8782,-5.9603,-6.101,-6.1423,-6.1631,-6.1698,-6.1698,-6.1698,-6.1698,-6.1698,-6.1698,-6.1698,-6.1701,-6.1241,-6.0362,-5.9569,-5.8457,-5.7129,-5.6754,-5.6593,-5.6592,-5.6595,-5.6606,-5.6565,-5.6123,-5.5642,-5.4999,-5.324,-5.2364,-5.1974,0.0,0.0,0.0,0.0,0.0,0.0,0.0,0.0,0.0,0.0,0.0,-2.628,-2.654,-2.7629,-2.8806,-2.9901,-3.0778,-3.1911,-3.3338,-3.4419,-3.5398,-3.6262,-3.7675,-3.8646,-3.9125,-3.975,-4.0507,-4.1379,-4.1379,-4.1784,-4.2572,-4.2572,-4.2697,-4.2937,-4.355,-4.3847,-4.3876,-4.4461,-4.471,-4.4652,-4.3971,-4.355,-4.3225,-4.2001,-4.138,-4.1084,-4.0396,-4.0157,-4.0157,-4.0206,-3.9815,-3.9252,-3.9059,-3.8572,-3.8056,-3.8056,-3.8398,-3.8798,-3.8861,-3.9966,-4.1121,-4.1174,-4.2458,-4.3724,-4.3778,-4.5103,-4.6333,-4.6386,-4.7593,-4.8665,-4.8659,-4.9405,-5.0128,-5.038,-5.1474,-5.2498,-5.3042,-5.4194,-5.5112,-5.5427,-5.6022,-5.648,-5.6748,-5.6805,-5.7423,-5.888,-5.9211,-6.0012,-6.1517,-6.1595,-6.1631,-6.1698,-6.1698,-6.1698,-6.1698,-6.1698,-6.1698,-6.1698,-6.1701,-6.1377,-6.0713,-5.9686,-5.8379,-5.6953,-5.6695,-5.6593,-5.6592,-5.6595,-5.6606,-5.6604,-5.6555,-5.6132,-5.537,-5.3878,-5.3019,-5.25,0.0,0.0,0.0,0.0,0.0,0.0,0.0,0.0,0.0,0.0,0.0,0.0,0.0,-2.6737,-2.7431,-2.909,-3.0025,-3.0888,-3.1717,-3.3326,-3.4616,-3.5509,-3.6322,-3.7531,-3.9165,-3.9223,-3.9665,-4.0546,-4.0546,-4.0946,-4.1733,-4.1733,-4.2157,-4.2899,-4.2937,-4.2937,-4.2937,-4.2975,-4.2975,-4.2975,-4.2928,-4.2477,-4.1768,-4.1637,-4.1063,-4.0336,-4.0301,-4.0301,-4.0301,-4.0301,-4.0282,-4.011,-3.9279,-3.8973,-3.8954,-3.8954,-4.0156,-4.1493,-4.1557,-4.2242,-4.2911,-4.2911,-4.4233,-4.5518,-4.5518,-4.6861,-4.8129,-4.8109,-4.8891,-4.9567,-4.9567,-5.0275,-5.1161,-5.2075,-5.2264,-5.2912,-5.4666,-5.4971,-5.5345,-5.6244,-5.6391,-5.6724,0.0,-5.7652,-5.8046,-5.8918,-5.9776,-6.0655,-6.1556,-6.1595,-6.1631,-6.1698,-6.1698,-6.1698,-6.1698,-6.1698,-6.1698,-6.1698,-6.1701,-6.169,-6.1592,-5.994,-5.8711,-5.7812,-5.6968,-5.6593,-5.6592,-5.6595,-5.6606,-5.6606,-5.6604,-5.6531,-5.6345,-5.5451,-5.4043,-5.2602,0.0,0.0,0.0,0.0,0.0,0.0,0.0,0.0,0.0,0.0,0.0,0.0,0.0,0.0,0.0,0.0,-2.882,-2.9992,-3.0854,-3.1923,-3.3189,-3.4641,-3.5515,-3.6472,-3.759,-3.8168,-3.8611,-3.8907,-3.9485,-3.9921,-4.0188,-4.0715,-4.112,-4.1393,-4.1982,-4.2252,-4.2263,-4.2772,-4.2977,-4.2911,-4.2331,-4.1949,-4.1623,-4.1022,-4.0611,-4.0362,0.0,-4.0337,-4.0301,-4.0301,-4.0301,-4.0253,-3.9965,-3.9859,-3.9983,-4.0612,-4.1212,-4.1792,-4.2405,-4.3208,-4.3991,-4.4568,-4.5596,-4.6614,-4.7188,-4.8227,-4.9082,-4.9131,-4.984,-5.0463,-5.0449,-5.074,-5.1257,-5.214,-5.2808,-5.3637,-5.4828,-5.5495,-5.6006,-5.6361,-5.6878,0.0,0.0,0.0,0.0,-5.9756,-6.0126,-6.0686,-6.1553,-6.1607,-6.1625,-6.1705,-6.1696,-6.1698,-6.1698,-6.1698,-6.1698,-6.1698,-6.1701,-6.14,-6.0819,-6.0254,-5.9238,-5.7871,-5.7595,-5.7123,-5.6592,-5.6602,-5.6593,-5.6606,-5.6606,-5.655,-5.6462,-5.617,-5.533,-5.416,0.0,0.0,0.0,0.0,0.0,0.0,0.0,0.0,0.0,0.0,0.0,0.0,0.0,0.0,0.0,0.0,0.0,-2.9187,-3.0047,-3.1149,-3.2269,-3.339,-3.4279,-3.5264,-3.6385,-3.6965,-3.7544,-3.8163,-3.8723,-3.8987,-3.8975,-3.9503,-3.9902,-4.0223,-4.0763,-4.1181,-4.1502,-4.1944,-4.2144,-4.2086,-4.153,-4.1306,-4.1231,-4.0658,-4.043,0.0,-4.0415,-4.0372,-4.0337,-4.0337,-4.0337,-4.0346,-4.0335,-4.0544,-4.0917,-4.1526,-4.2136,-4.2757,-4.3312,-4.4338,-4.5355,-4.5913,-4.6941,-4.7988,-4.8544,-4.936,-5.0021,-5.0061,-5.051,-5.0913,-5.0898,-5.0956,-5.1388,-5.2574,-5.3287,-5.4116,-5.5294,-5.5942,-5.6433,-5.6789,-5.7286,-5.7872,0.0,0.0,0.0,-6.0224,-6.0594,-6.1012,-6.156,-6.1604,-6.1625,-6.1699,-6.1693,-6.1698,-6.1698,-6.1698,-6.1703,-6.1692,-6.1704,-6.1402,-6.0859,-6.0547,-5.9805,-5.8789,-5.8495,-5.7867,-5.7061,-5.7034,-5.687,-5.6606,-5.6606,-5.655,-5.6501,-5.6501,-5.6149,-5.5427,0.0,0.0,0.0,0.0,0.0,0.0,0.0,0.0,0.0,0.0,0.0,0.0,0.0,0.0,0.0,0.0,0.0,0.0,-2.9276,-3.0866,-3.1816,-3.1894,-3.2708,-3.3905,-3.5534,-3.5573,-3.6387,-3.804,-3.8132,-3.8135,-3.8084,-3.8161,-3.8648,-3.9437,-3.9367,-3.9799,-4.0565,-4.0512,-4.0498,-4.0537,-4.0537,-4.0566,-4.0588,-4.0531,-4.0511,-4.0502,-4.0432,-4.0415,-4.0396,-4.0407,-4.0407,-4.0407,-4.0407,-4.0991,-4.1717,-4.1761,-4.2968,-4.4322,-4.4404,-4.5643,-4.6913,-4.7009,-4.8277,-4.9507,-4.9565,-5.0261,-5.0899,-5.0899,-5.0893,-5.0898,0.0,0.0,-5.1569,-5.3259,-5.3624,-5.4298,-5.6,-5.6311,-5.6666,0.0,0.0,0.0,0.0,0.0,0.0,-6.0438,0.0,-6.1616,-6.1658,-6.1662,-6.1722,-6.1813,-6.1791,-6.1776,-6.1776,-6.1718,-6.1692,-6.1709,-6.1709,-6.1695,-6.168,-6.084,-6.0449,-6.0351,-5.9589,-5.8746,-5.7901,-5.7836,-5.7338,-5.6606,-5.6606,-5.655,-5.6504,-5.6501,-5.65,-5.6253,0.0,0.0,0.0,0.0,0.0,0.0,0.0,0.0,0.0,0.0,0.0,0.0,0.0,0.0,0.0,0.0,0.0,0.0,-2.8364,-2.9447,-3.0618,-3.1915,-3.2186,-3.2784,-3.3809,-3.3848,-3.4061,-3.4508,-3.579,-3.644,-3.643,-3.77,-3.8387,-3.8614,-3.8584,-3.8701,-3.8908,-3.8831,-3.9193,-3.9786,-3.9733,-4.0079,-4.0593,-4.0586,-4.0576,-4.0577,-4.0562,-4.0519,-4.0468,-4.0413,-4.0432,-4.0466,-4.0466,-4.1058,-4.1899,-4.2549,-4.3472,-4.4568,-4.5885,-4.6555,-4.7216,-4.8507,-4.9178,-4.9684,-5.0375,-5.0728,-5.0908,-5.0901,-5.089,-5.0914,-5.0963,-5.102,0.0,-5.2531,-5.3269,0.0,-5.5184,-5.6447,0.0,-5.7572,-5.8748,-5.973,-6.0248,-6.0896,0.0,0.0,-6.1841,-6.1885,-6.2532,-6.2571,-6.2866,-6.3533,-6.2976,-6.2676,-6.2676,-6.201,-6.1692,-6.1709,-6.1709,-6.1695,-6.1699,-6.1465,-6.1015,-6.039,-6.0176,-5.9256,-5.7901,-5.7881,-5.7363,-5.6606,-5.6606,-5.6555,-5.65,-5.6508,-5.6507,-5.6348,0.0,0.0,0.0,0.0,0.0,0.0,0.0,0.0,0.0,0.0,0.0,0.0,0.0,0.0,0.0,0.0,0.0,0.0,0.0,-2.8754,-2.9885,-3.0866,-3.1236,-3.1819,-3.2651,-3.267,-3.2865,-3.323,-3.4229,-3.4905,-3.5298,-3.6241,-3.7068,-3.7767,-3.7768,-3.7992,-3.8336,-3.826,-3.8529,0.0,0.0,-3.9136,-3.9554,-3.956,-3.9527,-3.955,-3.9935,-4.0275,-4.0542,-4.0508,-4.0484,-4.0572,-4.0957,-4.1676,-4.2547,-4.3418,-4.4254,-4.5205,-4.657,-4.7232,-4.7827,-4.9176,-4.9809,-5.016,-5.0301,-5.0356,-5.0256,-4.9873,-4.9803,-4.9927,-5.0339,-5.0479,-5.094,0.0,0.0,0.0,-5.4873,-5.6505,-5.7748,-5.8123,-5.9365,-6.0372,-6.0783,-6.1632,-6.2367,0.0,-6.2445,-6.2542,-6.338,-6.3455,-6.369,-6.4185,-6.3767,-6.3355,-6.3008,-6.2149,-6.1692,-6.1709,-6.1709,-6.1695,-6.1699,-6.1699,-6.1426,-6.0976,0.0,-6.0213,-5.8975,-5.8585,-5.7913,-5.7094,-5.6743,-5.6558,-5.6506,-5.6508,-5.6491,-5.6375,0.0,0.0,0.0,0.0,0.0,0.0,0.0,0.0,0.0,0.0,0.0,0.0,0.0,0.0,0.0,0.0,0.0,0.0,0.0,0.0,-2.921,-2.933,-3.0108,-3.089,-3.1649,-3.1785,-3.221,-3.2966,-3.308,-3.3527,-3.427,-3.4504,-3.5373,-3.677,-3.6892,-3.7361,-3.8052,-3.8006,-3.8025,-3.8137,-3.8061,-3.8111,-3.8205,0.0,0.0,-3.8241,-3.9096,-3.9932,-4.0595,-4.0595,-4.0571,-4.0666,-4.1543,-4.2409,-4.3283,-4.4152,-4.5015,-4.591,-4.6896,-4.7714,-4.8514,-4.9459,-5.0218,-5.0541,-4.9787,-4.9568,-4.932,-4.8566,-4.8392,-4.8638,-4.9398,-4.9684,-5.03,-5.1813,0.0,-5.3967,-5.4718,-5.6524,-5.804,-5.8804,-5.9754,-6.0717,-6.1581,-6.2406,-6.2986,-6.3205,-6.3224,-6.3536,-6.4238,-6.4339,-6.4365,-6.4365,-6.4268,-6.3815,-6.3008,-6.2149,-6.169,-6.1708,-6.1708,-6.1695,-6.1699,-6.1699,-6.1699,-6.1699,0.0,0.0,-6.0324,-5.9465,-5.8596,-5.7719,-5.6918,-5.656,-5.6509,-5.6511,-5.6491,-5.6398,0.0,0.0,0.0,0.0,0.0,0.0,0.0,0.0,0.0,0.0,0.0,0.0,0.0,0.0,0.0,0.0,0.0,0.0,0.0,0.0,0.0,-2.8396,-2.924,-2.979,-2.9926,-3.063,-3.1079,-3.1235,-3.1965,-3.2382,-3.2566,-3.3954,-3.476,-3.5061,-3.5797,-3.6183,-3.6335,-3.625,-3.666,-3.7296,-3.7245,-3.7632,-3.8285,-3.8214,0.0,0.0,-3.9116,-3.9932,-4.0595,-4.0595,-4.0581,-4.0728,-4.1615,-4.2483,-4.3351,-4.4226,-4.5055,-4.6047,-4.7637,-4.8183,-4.867,-5.0254,-5.0286,-4.9865,-4.9711,-4.9119,-4.8585,-4.843,-4.8392,-4.8452,-4.867,-4.931,-4.9925,-5.0278,-5.2232,-5.3753,-5.3908,-5.6622,-5.8642,0.0,-6.0216,-6.1557,-6.2482,-6.273,0.0,0.0,0.0,0.0,-6.5173,-6.5236,-6.5266,-6.5263,-6.4637,-6.3865,-6.3008,-6.2149,-6.1707,-6.1701,-6.1707,-6.1693,-6.1698,-6.1699,-6.1699,-6.1699,0.0,0.0,-6.0324,-5.9465,-5.8596,-5.7719,-5.6918,-5.6584,-5.658,-5.6514,-5.6501,-5.6475,0.0,0.0,0.0,0.0,0.0,0.0,0.0,0.0,0.0,0.0,0.0,0.0,0.0,0.0,0.0,0.0,0.0,0.0,0.0,0.0,0.0,0.0,0.0,0.0,-2.9507,-3.0349,-3.0798,-3.0798,0.0,-3.1664,-3.2125,0.0,0.0,-3.467,-3.5051,-3.5473,-3.5892,-3.5864,-3.6075,-3.6413,-3.6395,-3.6629,0.0,0.0,0.0,0.0,-3.8496,-3.9315,-4.0089,-4.0559,-4.0707,-4.0913,-4.2184,-4.2852,-4.345,-4.4785,-4.5449,-4.6036,-4.7326,-4.7677,-4.7994,-4.927,-4.9305,-4.8894,-4.845,-4.8024,-4.7579,-4.7134,-4.7078,-4.7261,-4.7734,-4.8554,-4.9323,-4.9817,-5.2043,-5.3695,-5.3695,-5.6641,-5.8797,-5.8797,-6.0346,-6.1752,-6.2659,-6.3194,0.0,0.0,0.0,0.0,-6.6088,-6.6113,-6.6139,-6.617,-6.4922,-6.4055,-6.3672,-6.2364,-6.1705,-6.1697,-6.1705,-6.1693,-6.1697,-6.1699,-6.1699,-6.1699,0.0,0.0,-6.0972,-5.9641,-5.8853,-5.8352,-5.7096,-5.6606,-5.6582,-5.6514,-5.6501,-5.6498,0.0,0.0,0.0,0.0,0.0,0.0,0.0,0.0,0.0,0.0,0.0,0.0,0.0,0.0,0.0,0.0,0.0,0.0,0.0,0.0,0.0,0.0,0.0,0.0,0.0,0.0,0.0,0.0,0.0,0.0,0.0,0.0,0.0,0.0,0.0,0.0,-3.5897,-3.5898,-3.5862,0.0,0.0,0.0,0.0,0.0,0.0,0.0,0.0,-3.8618,-3.9625,-4.0318,-4.066,-4.1054,-4.251,-4.3081,-4.3538,-4.5092,-4.566,-4.5996,-4.6856,-4.7096,-4.7308,-4.8179,-4.8256,-4.7947,-4.725,-4.696,-4.6639,-4.5942,-4.5854,-4.61,-4.6791,-4.77,-4.8604,-4.9473,-5.1616,-5.3287,-5.3656,-5.6505,-5.8603,-5.8778,-6.0339,0.0,-6.2886,-6.3669,0.0,0.0,0.0,0.0,0.0,-6.6697,-6.672,-6.6803,-6.5299,-6.442,-6.4299,-6.2755,-6.1881,-6.1694,-6.1705,-6.1692,-6.1696,-6.1699,-6.1699,-6.1699,0.0,0.0,0.0,-5.9818,-5.9108,-5.8925,-5.7254,-5.6606,-5.6582,-5.652,-5.6504,-5.6498,0.0,0.0,0.0,0.0,0.0,0.0,0.0,0.0,0.0,0.0,0.0,0.0,0.0,0.0,0.0,0.0,0.0,0.0,0.0,0.0,0.0,0.0,0.0,0.0,0.0,0.0,0.0,0.0,0.0,0.0,0.0,0.0,0.0,0.0,0.0,0.0,0.0,0.0,0.0,0.0,0.0,0.0,0.0,0.0,0.0,0.0,0.0,-3.8179,-3.9594,-3.9672,-4.0195,-4.0956,-4.1895,-4.2705,-4.3485,-4.4439,-4.5232,-4.5993,-4.6864,-4.7096,-4.7308,-4.8179,-4.7792,-4.7192,-4.7115,-4.6484,-4.5904,-4.5826,-4.5854,-4.5925,-4.6002,-4.6789,-4.7711,-4.8574,-5.0231,-5.196,-5.35,-5.6006,-5.7981,-5.8719,0.0,0.0,-6.3709,0.0,0.0,0.0,0.0,0.0,0.0,-6.6697,-6.672,-6.6803,-6.5884,-6.5022,-6.4319,-6.336,-6.2481,-6.1701,-6.1702,-6.1709,-6.1691,-6.1698,-6.1699,-6.1699,0.0,0.0,0.0,-5.9818,-5.9108,-5.8925,-5.7254,-5.6606,-5.6584,-5.6511,-5.6497,-5.6501,0.0,0.0,0.0,0.0,0.0,0.0,0.0,0.0,0.0,0.0,0.0,0.0,0.0,0.0,0.0,0.0,0.0,0.0,0.0,0.0,0.0,0.0,0.0,0.0,0.0,0.0,0.0,-3.085,0.0,0.0,0.0,0.0,0.0,0.0,0.0,0.0,0.0,0.0,0.0,0.0,0.0,0.0,0.0,0.0,0.0,0.0,0.0,0.0,-3.8205,-3.9256,-3.9813,-4.0225,-4.1059,-4.1895,-4.2859,-4.4253,-4.4892,-4.5318,-4.6151,-4.6376,-4.6454,-4.6755,-4.6581,-4.6329,-4.6329,-4.5664,-4.5072,-4.5073,-4.5125,-4.5182,-4.5173,-4.6346,-4.7592,-4.8463,-5.0056,-5.1785,-5.3462,-5.5501,-5.7301,-5.8642,-5.9885,0.0,0.0,0.0,0.0,0.0,0.0,0.0,0.0,-6.6702,-6.6717,-6.6744,-6.5925,-6.5084,-6.4244,-6.3413,-6.2559,-6.1698,-6.1696,-6.1705,-6.1709,-6.1697,-6.1699,0.0,0.0,0.0,0.0,-6.0385,-5.956,-5.8972,-5.7785,-5.7035,-5.6584,-5.6511,-5.6497,-5.6501,0.0,0.0,0.0,0.0,0.0,0.0,0.0,0.0,0.0,0.0,0.0,0.0,0.0,0.0,0.0,0.0,0.0,0.0,0.0,0.0,0.0,0.0,0.0,0.0,0.0,0.0,-3.0894,-3.0894,-3.1148,-3.1539,0.0,0.0,0.0,0.0,0.0,0.0,0.0,0.0,0.0,0.0,0.0,0.0,0.0,0.0,0.0,0.0,0.0,0.0,0.0,0.0,0.0,-3.9393,-4.0213,-4.0906,-4.1715,-4.3424,-4.4122,-4.4445,-4.5002,-4.5151,-4.5151,-4.5105,-4.5099,-4.5099,-4.5099,-4.4647,-4.4247,-4.4253,-4.4284,-4.4391,-4.4647,-4.5723,-4.7007,-4.8386,-4.9629,-5.1202,-5.3384,-5.4971,-5.6622,-5.8564,0.0,-6.1128,0.0,0.0,0.0,0.0,0.0,0.0,0.0,0.0,-6.6702,-6.6711,-6.6167,-6.5347,-6.4216,-6.3664,-6.2813,-6.1698,-6.1692,-6.1701,-6.1707,-6.1695,-6.1698,0.0,0.0,0.0,0.0,-6.0759,-5.9895,-5.9014,-5.8141,-5.7311,-5.6584,-5.6555,-5.652,-5.6501,0.0,0.0,0.0,0.0,0.0,0.0,0.0,0.0,0.0,0.0,0.0,0.0,0.0,0.0,0.0,0.0,0.0,0.0,0.0,0.0,0.0,0.0,0.0,0.0,0.0,0.0,-3.0894,-3.0894,-3.1695,-3.2086,-3.2125,-3.2984,0.0,0.0,0.0,0.0,0.0,0.0,0.0,0.0,0.0,0.0,0.0,0.0,0.0,0.0,0.0,0.0,0.0,0.0,0.0,0.0,0.0,-3.9718,-4.0039,-4.1651,-4.274,-4.3418,-4.3412,-4.3431,-4.3431,-4.3431,-4.3412,-4.3412,-4.3412,-4.3412,-4.3412,-4.3412,-4.3402,-4.3677,-4.4536,-4.4771,-4.5647,-4.8191,-4.8619,-4.9804,-5.3228,-5.4465,-5.5961,0.0,0.0,0.0,0.0,0.0,0.0,0.0,0.0,0.0,0.0,0.0,-6.6702,-6.6711,-6.6752,-6.5955,-6.4216,-6.4253,-6.3418,-6.1698,-6.1692,-6.1697,-6.1699,-6.1694,0.0,0.0,0.0,0.0,0.0,-6.076,-5.9898,-5.9014,-5.8147,-5.7319,-5.6606,-5.6606,-5.657,-5.6501,0.0,0.0,0.0,0.0,0.0,0.0,0.0,0.0,0.0,0.0,0.0,0.0,0.0,0.0,0.0,0.0,0.0,0.0,0.0,0.0,0.0,0.0,0.0,0.0,0.0,0.0,-3.1191,-3.1796,-3.2031,-3.2754,-3.3886,-3.4159,-3.4744,-3.5582,0.0,0.0,0.0,0.0,0.0,0.0,0.0,0.0,0.0,0.0,0.0,0.0,0.0,0.0,0.0,0.0,0.0,0.0,0.0,0.0,0.0,-3.9416,-4.099,-4.2703,-4.3239,-4.3408,-4.3402,-4.3399,-4.3399,-4.3399,-4.3399,-4.2933,-4.2513,-4.2574,-4.2585,-4.2853,-4.3723,-4.4379,-4.5627,-4.8191,-4.8599,-4.9784,0.0,0.0,0.0,-5.8428,-6.1147,0.0,0.0,0.0,0.0,0.0,0.0,0.0,0.0,0.0,-6.6692,-6.6702,-6.6185,-6.5367,-6.4216,-6.367,-6.2845,-6.1698,-6.1703,-6.169,-6.1697,0.0,0.0,0.0,0.0,0.0,0.0,-6.1405,-6.0425,-5.9073,-5.8793,-5.7826,-5.6606,-5.6606,-5.657,-5.6501,0.0,0.0,0.0,0.0,0.0,0.0,0.0,0.0,0.0,0.0,0.0,0.0,0.0,0.0,0.0,0.0,0.0,0.0,0.0,0.0,0.0,0.0,0.0,0.0,-3.0898,-3.1211,-3.166,-3.2207,-3.2832,-3.3672,-3.4707,-3.5039,-3.5487,-3.5995,-3.5993,0.0,0.0,0.0,0.0,0.0,0.0,0.0,-3.5897,0.0,0.0,0.0,0.0,0.0,0.0,0.0,0.0,0.0,0.0,0.0,0.0,0.0,-3.952,-4.0956,-4.1781,-4.2237,-4.2465,-4.2468,-4.2463,-4.2463,-4.2463,-4.2036,-4.1659,-4.1694,-4.1718,-4.2073,-4.3272,-4.3938,-4.5258,-4.8133,-4.8599,-4.9784,0.0,0.0,0.0,-5.8389,0.0,0.0,0.0,0.0,0.0,0.0,0.0,0.0,0.0,0.0,-6.6205,-6.6205,-6.5742,-6.4926,-6.3721,-6.3234,-6.2566,-6.1698,-6.1698,-6.1703,-6.1692,0.0,0.0,0.0,0.0,0.0,0.0,-6.1699,-6.0681,-5.9135,-5.911,-5.8085,-5.6591,-5.6606,-5.6553,-5.6491,0.0,0.0,0.0,0.0,0.0,0.0,0.0,0.0,0.0,0.0,0.0,0.0,0.0,0.0,0.0,0.0,0.0,0.0,0.0,0.0,0.0,0.0,0.0,0.0,-3.0976,-3.1777,-3.2246,-3.2383,-3.3945,-3.4726,-3.4805,-3.5625,-3.5996,-3.5995,-3.5995,-3.5992,0.0,0.0,0.0,0.0,0.0,0.0,0.0,0.0,0.0,0.0,0.0,0.0,0.0,0.0,0.0,0.0,0.0,0.0,0.0,0.0,0.0,0.0,0.0,-4.015,-4.081,-4.081,-4.0869,-4.0907,-4.0907,-4.0907,0.0,-4.0907,-4.0907,-4.1432,-4.3175,-4.3505,-4.4617,-4.8036,-4.8599,0.0,0.0,-5.3908,0.0,0.0,0.0,0.0,0.0,0.0,0.0,0.0,0.0,0.0,0.0,0.0,0.0,-6.5231,-6.5275,-6.4536,-6.2918,-6.2899,-6.2505,-6.1698,-6.1698,-6.1698,-6.1701,0.0,0.0,0.0,0.0,0.0,0.0,-6.1699,-6.0703,-5.9197,-5.9135,-5.8073,-5.66,-5.661,-5.6558,-5.6506,0.0,0.0,0.0,0.0,0.0,0.0,0.0,0.0,0.0,0.0,0.0,0.0,0.0,0.0,0.0,0.0,0.0,0.0,0.0,0.0,0.0,0.0,0.0,0.0,-3.1796,-3.2029,-3.279,-3.4118,-3.4509,-3.5037,-3.5702,-3.5898,-3.5996,-3.5996,-3.5996,-3.5995,0.0,0.0,0.0,0.0,0.0,0.0,0.0,0.0,0.0,0.0,-3.4223,-3.3982,0.0,0.0,0.0,0.0,0.0,0.0,0.0,0.0,-3.6917,-3.7459,-3.7654,0.0,-3.9975,-3.9975,-4.0441,-4.0907,0.0,-4.0907,-4.0907,-4.0907,-4.0907,-4.1432,-4.3175,-4.3505,-4.4617,-4.8036,-4.8599,-4.9784,-5.3228,0.0,0.0,-5.87,0.0,0.0,0.0,0.0,0.0,0.0,0.0,0.0,0.0,0.0,0.0,-6.3517,-6.3502,-6.3302,-6.2894,-6.2255,-6.1846,-6.1705,-6.1696,-6.1698,0.0,0.0,0.0,0.0,0.0,0.0,0.0,-6.1699,-6.0703,-5.9197,-5.9135,-5.8073,-5.66,-5.661,-5.6558,-5.6506,0.0,0.0,0.0,0.0,0.0,0.0,0.0,0.0,0.0,0.0,0.0,0.0,0.0,0.0,0.0,0.0,0.0,0.0,0.0,0.0,0.0,0.0,0.0,-3.1658,-3.2087,-3.2886,-3.3764,-3.4702,-3.5092,-3.5738,-3.6598,-3.6598,-3.66,-3.6582,-3.6172,-3.5995,0.0,0.0,0.0,0.0,-3.6009,0.0,0.0,0.0,0.0,0.0,-3.3574,-3.3397,0.0,-3.3392,-3.368,-3.4046,0.0,0.0,0.0,0.0,-3.5905,-3.655,-3.6559,-3.7798,-3.9095,-3.9105,-3.9723,-4.0344,-4.0344,-4.0635,-4.0907,-4.0907,-4.0907,-4.1432,-4.3175,-4.3505,-4.4617,-4.8036,-4.8599,0.0,0.0,0.0,-5.8797,0.0,0.0,0.0,0.0,0.0,0.0,0.0,0.0,0.0,0.0,0.0,0.0,0.0,-6.2503,-6.2299,-6.2301,-6.1838,-6.1625,-6.1699,-6.1693,-6.1698,0.0,0.0,0.0,0.0,0.0,0.0,-6.1699,-6.1699,-6.0703,-5.9198,-5.9135,-5.8075,-5.6605,-5.6593,-5.6582,-5.6533,0.0,0.0,0.0,0.0,0.0,0.0,0.0,0.0,0.0,0.0,0.0,0.0,0.0,0.0,0.0,0.0,0.0,0.0,0.0,0.0,0.0,0.0,-3.1678,-3.2165,-3.2298,-3.388,-3.4778,-3.4895,-3.5638,-3.6458,-3.7297,-3.7297,-3.73,-3.7264,-3.6387,-3.5995,0.0,0.0,0.0,0.0,-3.5861,0.0,0.0,0.0,0.0,0.0,0.0,0.0,0.0,-3.3,-3.3091,-3.32,-3.32,0.0,0.0,0.0,0.0,0.0,-3.5693,-3.6835,-3.8051,-3.8162,-3.895,-3.9703,-3.9703,-4.0325,-4.0907,-4.0907,-4.1005,-4.1587,-4.3194,-4.3602,-4.4773,-4.8075,0.0,0.0,-5.3287,-5.6544,0.0,0.0,0.0,0.0,0.0,0.0,0.0,0.0,0.0,0.0,0.0,0.0,0.0,0.0,-6.1997,-6.1597,-6.1595,-6.16,-6.1621,-6.1676,-6.171,-6.1698,-6.1698,-6.1698,0.0,0.0,0.0,0.0,-6.1699,-6.1699,-6.0703,-5.9199,-5.9136,-5.8078,-5.6592,-5.6596,-5.6606,-5.6582,0.0,0.0,0.0,0.0,0.0,0.0,0.0,0.0,0.0,0.0,0.0,0.0,0.0,0.0,0.0,0.0,0.0,0.0,0.0,0.0,0.0,-3.0895,-3.1675,-3.2455,-3.3173,-3.4184,-3.5059,-3.58,-3.5938,-3.6448,-3.7293,-3.7293,-3.7297,-3.7263,-3.6386,-3.5996,-3.5995,-3.5994,-3.5991,-3.5946,-3.5202,0.0,0.0,0.0,0.0,0.0,0.0,0.0,0.0,-3.1207,-3.1693,-3.2296,-3.2296,0.0,0.0,0.0,0.0,0.0,-3.4803,-3.5531,-3.6453,-3.7137,-3.8505,-3.9701,-3.9703,-4.0325,-4.0907,-4.0907,-4.149,-4.2306,-4.3316,-4.4093,-4.5472,-4.8153,0.0,-5.3092,0.0,0.0,0.0,0.0,0.0,0.0,0.0,0.0,0.0,0.0,0.0,0.0,0.0,0.0,0.0,0.0,0.0,-6.1607,-6.1592,-6.1595,-6.1619,-6.1621,-6.1676,-6.1707,-6.1698,-6.1698,-6.1707,0.0,0.0,0.0,-6.1698,-6.1699,-6.0703,-5.9199,-5.9197,-5.8139,-5.6592,-5.6603,-5.6595,-5.6582,0.0,0.0,0.0,0.0,0.0,0.0,0.0,0.0,0.0,0.0,0.0,0.0,0.0,0.0,0.0,0.0,0.0,0.0,0.0,0.0,-3.0896,-3.0894,-3.2122,-3.2996,-3.3382,-3.4726,-3.5602,-3.5992,-3.5992,-3.6698,-3.801,-3.7994,-3.7745,-3.7261,-3.6384,-3.5996,-3.5996,-3.5995,-3.572,-3.5269,0.0,0.0,0.0,0.0,0.0,0.0,0.0,0.0,0.0,0.0,-3.1063,-3.1391,-3.1391,0.0,0.0,0.0,0.0,0.0,-3.4664,-3.526,-3.5991,-3.6356,-3.7732,-3.8995,-3.9002,-3.9984,-4.1024,-4.151,-4.1922,-4.2622,-4.3957,-4.452,-4.5627,-4.8191,0.0,-5.3695,0.0,0.0,0.0,0.0,0.0,0.0,0.0,0.0,0.0,0.0,0.0,0.0,0.0,0.0,0.0,0.0,0.0,0.0,-6.1607,-6.1597,-6.1603,-6.1595,-6.1673,-6.1707,-6.1698,-6.1698,-6.1707,0.0,0.0,-6.1693,-6.1658,-6.1191,-6.0293,-5.914,-5.867,-5.7711,-5.6592,-5.6598,-5.6586,-5.6533,0.0,0.0,0.0,0.0,0.0,0.0,0.0,0.0,0.0,0.0,0.0,0.0,0.0,0.0,0.0,0.0,0.0,0.0,0.0,0.0,-3.0896,-3.0894,-3.2315,-3.3188,-3.3396,-3.5114,-3.5992,-3.5992,-3.5992,-3.6794,-3.8298,-3.8304,-3.7937,-3.7258,-3.6384,-3.5995,-3.5996,-3.5996,-3.5507,-3.4686,0.0,0.0,0.0,0.0,0.0,0.0,0.0,0.0,0.0,0.0,0.0,0.0,0.0,0.0,0.0,-3.1796,-3.2881,-3.414,-3.4333,-3.4986,-3.5716,-3.6114,-3.7313,-3.8408,-3.8405,-3.9842,-4.1383,-4.2063,-4.2524,-4.3224,-4.454,-4.5297,0.0,-4.8541,-5.1597,0.0,0.0,0.0,0.0,0.0,0.0,0.0,0.0,0.0,0.0,0.0,0.0,0.0,0.0,0.0,0.0,0.0,0.0,0.0,-6.1607,-6.1393,-6.1396,-6.1607,-6.1648,-6.1682,-6.1696,-6.1698,-6.1705,-6.1694,-6.1704,-6.1574,-6.1345,-6.0683,-5.9805,-5.8828,-5.8163,-5.7379,-5.6591,-5.6595,-5.656,-5.6492,0.0,0.0,0.0,0.0,0.0,0.0,0.0,0.0,0.0,0.0,0.0,0.0,0.0,0.0,0.0,0.0,0.0,0.0,0.0,0.0,-3.0894,-3.0894,-3.1726,-3.2578,-3.3377,-3.5114,-3.5992,-3.5992,-3.5992,-3.648,-3.7399,-3.7381,-3.7364,-3.7253,-3.6399,-3.5993,-3.5995,-3.5996,-3.5508,-3.4628,-3.3826,0.0,0.0,0.0,0.0,0.0,0.0,0.0,0.0,0.0,0.0,0.0,0.0,0.0,-3.0895,-3.0891,-3.1552,-3.2466,-3.3278,-3.4123,-3.5164,-3.6723,-3.7815,-3.8487,-3.8408,-4.031,-4.2125,-4.2183,-4.3486,-4.4656,-4.4773,-4.6735,-4.8658,-4.9654,-5.2005,0.0,0.0,0.0,0.0,0.0,0.0,0.0,0.0,0.0,0.0,0.0,0.0,0.0,0.0,0.0,0.0,0.0,0.0,0.0,-6.1607,-6.0808,-6.0803,-6.1603,-6.1607,-6.1648,-6.1702,-6.1693,-6.1701,-6.1701,-6.1694,-6.1234,-6.0498,-6.0426,-5.9452,-5.7988,-5.793,-5.7361,-5.6591,-5.6595,-5.6604,-5.6465,0.0,0.0,0.0,0.0,0.0,0.0,0.0,0.0,0.0,0.0,0.0,0.0,0.0,0.0,0.0,0.0,0.0,0.0,0.0,-3.0603,-3.0894,-3.0891,-3.1665,-3.2246,-3.2578,-3.4295,-3.5465,-3.5992,-3.6539,-3.6696,-3.65,-3.7048,-3.7013,-3.6473,-3.6143,-3.5991,-3.5956,-3.5429,-3.4687,-3.3828,-3.2988,-3.2128,0.0,0.0,0.0,0.0,0.0,0.0,0.0,0.0,-3.085,-3.085,-3.085,-3.0868,-3.0865,-3.0863,-3.1443,-3.2293,-3.3167,-3.4037,-3.51,-3.6787,-3.7868,-3.8614,-3.9094,-4.0785,-4.2423,-4.2968,-4.399,-4.5128,-4.6217,-4.76,-4.8891,-4.9771,0.0,0.0,0.0,0.0,0.0,0.0,0.0,0.0,0.0,0.0,0.0,0.0,0.0,0.0,0.0,0.0,0.0,0.0,0.0,0.0,0.0,-5.9659,-5.9663,-5.9984,-6.002,-6.0064,-6.0079,-6.0073,-6.0078,-6.008,-6.0073,-5.9906,-5.9542,-5.9059,-5.8476,-5.7851,-5.7304,-5.6891,-5.6592,-5.66,-5.6261,-5.5725,0.0,0.0,0.0,0.0,0.0,0.0,0.0,0.0,0.0,0.0,0.0,0.0,0.0,0.0,0.0,0.0,0.0,0.0,-2.9179,-3.0016,-3.0482,-3.0497,-3.1254,-3.1816,-3.2091,-3.3261,-3.4432,-3.5582,-3.6462,-3.6578,-3.6012,-3.6617,-3.6562,-3.6001,-3.6003,-3.5852,-3.5545,-3.4959,-3.4042,-3.2969,-3.2422,-3.168,0.0,0.0,0.0,0.0,0.0,0.0,0.0,0.0,-3.0484,-3.0484,-3.0484,-3.0678,-3.089,-3.089,-3.1294,-3.1969,-3.308,-3.3833,-3.4817,-3.7054,-3.8061,-3.8853,-4.0231,-4.1668,-4.2872,-4.3475,-4.4677,-4.6069,-4.7549,-4.8487,0.0,0.0,0.0,0.0,0.0,0.0,0.0,0.0,0.0,0.0,0.0,0.0,0.0,0.0,0.0,0.0,0.0,0.0,0.0,0.0,0.0,0.0,0.0,-5.8724,-5.8587,-5.8592,-5.8371,-5.8572,-5.9095,-5.9092,-5.91,-5.9104,-5.9093,-5.8967,-5.8683,-5.8139,-5.7733,-5.7422,-5.6835,-5.6597,-5.6572,-5.6292,-5.5815,-5.5201,0.0,0.0,0.0,0.0,0.0,0.0,0.0,0.0,0.0,0.0,0.0,0.0,0.0,0.0,0.0,0.0,0.0,0.0,-2.8222,-2.9099,-2.9584,-2.9598,-3.0355,-3.1192,-3.2071,-3.2091,-3.2949,-3.4705,-3.5563,-3.5992,-3.5992,-3.5992,-3.5992,-3.5992,-3.6001,-3.5519,-3.4702,-3.4685,-3.371,-3.2207,-3.2187,-3.168,-3.0898,0.0,0.0,0.0,0.0,0.0,0.0,0.0,-2.9586,-2.9586,-2.9605,-3.0191,-3.0894,-3.0894,-3.0892,-3.1278,-3.2938,-3.3396,-3.4223,-3.7659,-3.8491,-3.9182,-4.18,-4.3017,-4.3592,-4.3631,-4.5643,-4.7674,-4.8545,-4.9401,0.0,0.0,0.0,0.0,0.0,0.0,0.0,0.0,0.0,0.0,0.0,0.0,0.0,0.0,0.0,0.0,0.0,0.0,0.0,0.0,0.0,0.0,0.0,-5.8124,-5.7695,-5.7676,-5.6874,-5.74,-5.9079,-5.9075,-5.9073,-5.9083,-5.9083,-5.8629,-5.7882,-5.7882,-5.7379,-5.6601,-5.66,-5.6597,-5.6475,-5.563,-5.5288,-5.5027,0.0,0.0,0.0,0.0,0.0,0.0,0.0,0.0,0.0,0.0,0.0,0.0,0.0,0.0,0.0,0.0,0.0,0.0,-2.736,-2.8199,-2.8958,-2.9575,-2.9827,-3.0333,-3.1172,-3.1797,-3.2949,-3.4705,-3.5563,-3.5992,-3.5992,-3.5992,-3.5992,-3.5992,-3.5995,-3.5512,-3.4659,-3.4057,-3.3142,-3.2089,-3.1504,-3.1133,-3.0898,0.0,0.0,0.0,0.0,0.0,0.0,0.0,0.0,0.0,-2.9414,-2.9784,-3.0115,-3.072,-3.0895,-3.1263,-3.2942,-3.3406,-3.4219,-3.7648,-3.85,-3.9173,-4.1796,-4.3025,-4.3939,-4.5176,-4.6485,-4.7676,-4.8548,-4.9415,0.0,0.0,0.0,0.0,0.0,0.0,0.0,0.0,0.0,0.0,0.0,0.0,0.0,0.0,0.0,0.0,0.0,0.0,0.0,0.0,0.0,0.0,0.0,0.0,-5.6858,-5.6858,-5.6608,-5.6765,-5.7265,-5.7261,-5.7294,-5.7348,-5.7348,-5.7219,-5.6997,-5.6985,-5.6835,-5.6601,-5.6601,-5.6228,-5.5656,-5.5401,-5.4514,-5.3407,0.0,0.0,0.0,0.0,0.0,0.0,0.0,0.0,0.0,0.0,-2.57,-2.5702,0.0,0.0,0.0,0.0,0.0,0.0,0.0,-2.73,-2.802,-2.8539,-2.9221,-2.9982,-3.0781,-3.1641,-3.2618,-3.3671,-3.4881,-3.5485,-3.5485,-3.5836,-3.5992,-3.5973,-3.5641,-3.5002,-3.4129,-3.3253,-3.2397,-3.1581,-3.1093,-3.0683,-3.0371,0.0,0.0,0.0,0.0,0.0,0.0,0.0,0.0,0.0,-2.8398,-2.9043,-2.9706,-3.0234,-3.0623,-3.1266,-3.2946,-3.3393,-3.4228,-3.768,-3.8534,-3.9306,-4.2258,-4.3531,-4.4512,-4.592,-4.6862,-4.7708,-4.8573,-4.9441,0.0,0.0,0.0,0.0,0.0,0.0,0.0,0.0,0.0,0.0,0.0,0.0,0.0,0.0,0.0,0.0,0.0,0.0,0.0,0.0,0.0,0.0,0.0,0.0,0.0,-5.6507,-5.6507,-5.6508,-5.6501,-5.6494,-5.6548,-5.6606,-5.6591,-5.6598,-5.6607,-5.6597,-5.6601,-5.6562,-5.6211,-5.576,-5.5227,-5.4524,-5.3598,-5.2646,0.0,0.0,0.0,0.0,0.0,0.0,0.0,0.0,0.0,0.0,-2.5702,-2.5702,0.0,0.0,0.0,0.0,0.0,0.0,0.0,0.0,-2.6926,-2.6997,-2.8675,-2.9944,-3.0664,-3.1543,-3.1973,-3.1973,-3.3729,-3.4588,-3.4608,-3.5387,-3.5758,-3.5738,-3.494,-3.4104,-3.323,-3.2448,-3.1633,-3.0897,-3.0819,-3.0312,-2.959,-2.9512,0.0,0.0,0.0,0.0,0.0,0.0,0.0,0.0,-2.6973,-2.8086,-2.9394,-2.9551,-3.0156,-3.1151,-3.2928,-3.3395,-3.4233,-3.7729,-3.876,-3.9789,-4.2975,-4.4328,-4.5155,-4.6017,-4.6888,-4.7739,-4.8541,0.0,0.0,0.0,0.0,0.0,0.0,0.0,0.0,0.0,0.0,0.0,0.0,0.0,0.0,0.0,0.0,0.0,0.0,0.0,0.0,0.0,0.0,0.0,0.0,0.0,0.0,0.0,0.0,-5.6391,-5.6384,-5.6462,-5.6539,-5.6606,-5.6596,-5.6605,-5.6593,-5.6519,-5.6483,-5.6387,-5.5527,-5.5135,-5.4876,-5.3274,-5.2641,-5.247,0.0,0.0,0.0,0.0,0.0,0.0,0.0,0.0,0.0,0.0,0.0,0.0,0.0,0.0,0.0,0.0,0.0,0.0,0.0,0.0,-2.6279,-2.6978,-2.8675,-2.967,-2.9846,-3.0665,-3.1075,-3.1075,-3.283,-3.3689,-3.3689,-3.3865,-3.3962,-3.3943,-3.3767,-3.3202,-3.2365,-3.2173,-3.1632,-3.0837,-3.0154,-2.9765,-2.9531,-2.8848,-2.8047,0.0,0.0,0.0,0.0,0.0,0.0,0.0,-2.6775,-2.7264,-2.783,-2.9199,-2.9726,-3.039,-3.2754,-3.3398,-3.4236,-3.7732,-4.0092,-4.1943,-4.338,-4.4353,-4.5205,-4.6033,-4.6883,-4.7563,-4.7739,0.0,0.0,0.0,0.0,0.0,0.0,0.0,0.0,0.0,0.0,0.0,0.0,0.0,0.0,0.0,0.0,0.0,0.0,0.0,0.0,0.0,0.0,0.0,-5.6507,-5.6507,-5.6507,0.0,-5.5801,-5.5482,-5.5505,-5.6186,-5.6539,-5.6606,-5.6608,-5.66,-5.6554,-5.5852,-5.5583,-5.5488,-5.4629,-5.3867,-5.32,-5.2845,-5.2273,-5.1659,0.0,0.0,0.0,0.0,0.0,0.0,0.0,0.0,0.0,0.0,0.0,0.0,0.0,0.0,0.0,0.0,0.0,0.0,0.0,0.0,-2.6082,-2.6958,-2.7875,-2.8558,-2.8967,-2.9806,-3.0235,-3.0235,-3.1522,-3.2362,-3.2792,-3.3201,-3.3396,-3.3377,-3.2968,-3.2539,-3.2071,-3.1643,-3.1258,-3.0814,-2.9957,-2.9354,-2.8886,-2.8007,-2.7148,-2.6386,-2.6385,0.0,0.0,0.0,0.0,0.0,0.0,0.0,-2.7185,-2.8084,-2.8944,-2.9979,-3.1738,-3.2793,-3.4238,-3.7733,-4.0192,-4.2006,-4.288,-4.407,-4.5122,-4.554,-4.6325,-4.703,0.0,0.0,0.0,0.0,0.0,0.0,0.0,0.0,0.0,0.0,0.0,0.0,0.0,0.0,0.0,0.0,0.0,0.0,0.0,0.0,0.0,0.0,0.0,0.0,-5.5879,-5.545,-5.5256,-5.5256,-5.4788,-5.459,-5.4599,-5.5084,-5.5318,-5.5357,-5.5357,-5.5365,-5.5319,-5.4854,-5.4683,-5.4589,-5.3711,-5.3105,-5.2654,-5.222,-5.1786,-5.1408,0.0,0.0,0.0,0.0,0.0,0.0,0.0,0.0,0.0,0.0,0.0,0.0,0.0,0.0,0.0,0.0,0.0,0.0,0.0,0.0,0.0,-2.6742,-2.6918,-2.7348,-2.8069,-2.8929,-2.9378,-2.9378,-3.0196,-3.0958,-3.1681,-3.2558,-3.2947,-3.2928,-3.2207,-3.1875,-3.1836,-3.1114,-3.0746,-3.0595,-2.974,-2.8844,-2.7987,-2.7108,-2.6327,-2.5702,-2.57,-2.5699,-2.5699,-2.5699,0.0,0.0,0.0,0.0,-2.6812,-2.6968,-2.8121,-2.9605,-3.0623,-3.2342,-3.453,-3.7421,-3.953,-4.1112,-4.1987,-4.3412,-4.4584,-4.4739,-4.5586,0.0,0.0,0.0,0.0,0.0,0.0,0.0,0.0,0.0,0.0,0.0,0.0,0.0,0.0,0.0,0.0,0.0,0.0,0.0,0.0,0.0,0.0,0.0,0.0,-5.4979,-5.4979,-5.4258,-5.3907,-5.3907,-5.3755,-5.36,-5.3459,-5.3515,-5.3726,-5.401,-5.401,-5.3996,-5.3987,-5.3837,-5.3784,-5.369,-5.2812,-5.248,-5.2382,-5.1675,-5.1396,-5.139,0.0,0.0,0.0,0.0,0.0,0.0,0.0,0.0,0.0,0.0,-2.5703,-2.5703,0.0,0.0,0.0,0.0,0.0,0.0,0.0,0.0,0.0,-2.5863,-2.6606,-2.7055,-2.7172,-2.803,-2.8479,-2.8479,-2.9338,-2.9827,-2.9944,-3.0762,-3.1152,-3.1132,-3.1034,-3.0976,-3.0976,-3.0859,-3.0394,-2.9696,-2.8817,-2.7943,-2.7087,-2.6208,-2.5798,-2.57,-2.5696,-2.5694,-2.5694,-2.5691,-2.5709,0.0,0.0,0.0,-2.6022,-2.6788,-2.7707,-2.8821,-3.0465,-3.3238,-3.5758,-3.6229,-3.8222,-4.0273,-4.1092,-4.2048,-4.2966,0.0,0.0,0.0,0.0,0.0,0.0,0.0,0.0,0.0,0.0,0.0,0.0,0.0,0.0,0.0,0.0,0.0,0.0,0.0,0.0,0.0,0.0,0.0,-5.4063,-5.4063,-5.4063,0.0,-5.4063,-5.3966,-5.3907,-5.3888,-5.3132,-5.2384,-5.1648,-5.1723,-5.2564,-5.401,-5.401,-5.3996,-5.3948,-5.3193,-5.2866,-5.2792,-5.1914,-5.1562,-5.1562,-5.1444,-5.1402,-5.1396,0.0,0.0,0.0,0.0,0.0,0.0,0.0,0.0,0.0,0.0,0.0,-2.5703,0.0,0.0,0.0,0.0,0.0,0.0,0.0,0.0,0.0,-2.5707,-2.6078,-2.6274,-2.6274,-2.7133,-2.7562,-2.7562,-2.844,-2.9124,-2.9612,-2.9962,-3.0372,-3.08,-3.08,-3.08,-3.08,-3.08,-3.0334,-2.9517,-2.864,-2.7784,-2.6908,-2.6029,-2.5697,-2.5696,-2.5692,-2.569,-2.571,-2.5708,-2.5707,-2.5707,-2.5707,0.0,0.0,0.0,-2.6882,-2.8055,-3.0285,-3.2338,-3.4176,-3.5622,-3.6852,-3.8181,-4.0019,-4.1074,-4.1914,0.0,0.0,0.0,0.0,0.0,0.0,0.0,0.0,0.0,0.0,0.0,0.0,0.0,0.0,0.0,0.0,0.0,0.0,0.0,0.0,0.0,0.0,-5.2918,-5.3171,-5.3171,-5.3171,0.0,-5.3171,-5.2684,-5.245,-5.245,-5.206,-5.1663,-5.1294,-5.1369,-5.1815,-5.2537,-5.2544,-5.2548,-5.2514,-5.2137,-5.1966,-5.193,-5.1543,-5.1406,-5.1406,-5.1405,-5.1404,-5.1402,0.0,0.0,0.0,0.0,0.0,0.0,0.0,0.0,0.0,0.0,0.0,0.0,0.0,0.0,0.0,0.0,0.0,0.0,0.0,0.0,0.0,-2.5707,-2.5707,-2.5707,-2.5707,-2.6333,-2.6664,-2.6664,-2.7542,-2.8303,-2.8948,-2.9163,-2.9591,-3.0176,-3.0605,-3.08,-3.0781,-3.0587,-3.0021,-2.9182,-2.8327,-2.7449,-2.6591,-2.5946,-2.5692,-2.5692,-2.5708,-2.5707,-2.5707,-2.5707,-2.5707,-2.5707,-2.5707,-2.5707,0.0,0.0,0.0,-2.7524,-2.9929,-3.1163,-3.2298,-3.4467,-3.5502,-3.6517,-3.8451,0.0,-4.0701,0.0,0.0,0.0,0.0,0.0,0.0,0.0,0.0,0.0,0.0,0.0,0.0,0.0,0.0,0.0,0.0,0.0,0.0,0.0,0.0,0.0,-5.13,-5.1924,-5.2275,-5.2275,-5.2275,-5.2275,-5.2275,-5.1612,-5.13,-5.13,-5.13,-5.1308,-5.1307,-5.1366,-5.14,-5.1394,-5.1408,-5.1394,-5.1396,-5.1391,-5.1397,-5.1399,-5.1405,-5.1406,-5.1406,-5.1406,-5.1405,-5.1404,0.0,0.0,0.0,0.0,0.0,0.0,0.0,0.0,0.0,0.0,0.0,0.0,-2.5703,-2.5703,-2.5703,-2.5702,-2.5701,0.0,0.0,0.0,0.0,-2.5707,-2.5707,0.0,-2.5707,-2.5746,-2.5765,-2.5765,-2.6645,-2.7094,-2.7152,-2.7971,-2.8381,-2.8498,-3.0098,-3.08,-3.0742,-2.9982,-2.9162,-2.8283,-2.7426,-2.6547,-2.5765,-2.5726,-2.5707,-2.5707,-2.5707,-2.5707,-2.5707,-2.5707,-2.5707,-2.5707,0.0,-2.5707,-2.5707,0.0,0.0,0.0,-2.9182,-3.0256,-3.1097,-3.2059,-3.417,-3.6045,0.0,0.0,0.0,0.0,0.0,0.0,0.0,0.0,0.0,0.0,0.0,0.0,0.0,0.0,0.0,0.0,0.0,0.0,0.0,0.0,0.0,0.0,0.0,0.0,-5.13,-5.1339,-5.1378,-5.1378,-5.1378,-5.1378,-5.1378,-5.132,-5.13,-5.13,-5.13,-5.13,-5.1304,-5.1379,-5.1394,-5.1397,-5.1403,-5.1394,-5.1394,-5.1407,-5.1394,-5.1399,-5.1404,-5.1406,-5.1406,-5.1406,-5.1406,-5.1405,0.0,0.0,0.0,0.0,0.0,0.0,0.0,0.0,0.0,0.0,0.0,0.0,0.0,-2.5703,-2.5703,-2.5701,-2.5697,0.0,0.0,0.0,0.0,-2.5707,-2.5707,-2.5707,-2.5707,-2.5707,-2.5707,-2.5707,-2.6019,-2.645,-2.7016,-2.7328,-2.7756,-2.8323,-2.8928,-2.92,-2.9181,-2.8889,-2.8264,-2.7445,-2.7133,-2.6801,-2.6528,-2.6528,-2.6878,-2.7366,-2.7366,-2.7366,-2.7366,-2.7366,0.0,0.0,-2.6528,-2.6156,-2.5707,-2.5707,-2.6313,-2.7133,-2.7757,-2.8968,-3.0237,-3.1059,-3.2386,-3.3949,-3.5629,-3.6473,0.0,0.0,0.0,0.0,0.0,0.0,0.0,0.0,0.0,0.0,0.0,0.0,0.0,0.0,0.0,0.0,0.0,0.0,0.0,0.0,0.0,0.0,-4.9703,-4.9703,-4.9703,-4.9703,-4.9703,-4.9703,-4.9703,-4.9703,-4.9703,-4.9703,-4.9703,-4.9703,-4.9703,-4.9728,-5.004,-5.0578,-5.0577,-5.0881,-5.1394,-5.1405,-5.1394,-5.1399,-5.1404,-5.1406,-5.1406,-5.1406,-5.1074,-5.0625,0.0,0.0,0.0,0.0,0.0,0.0,0.0,0.0,0.0,-2.5703,0.0,0.0,0.0,0.0,-2.5703,-2.57,-2.5694,-2.5707,-2.5707,-2.5707,-2.5707,-2.5707,-2.5707,-2.5707,-2.5707,-2.5707,-2.5707,-2.5707,-2.5707,-2.6,-2.6567,-2.6567,-2.6878,-2.7425,-2.7425,-2.7756,-2.8283,-2.7991,-2.7523,-2.6996,-2.6996,-2.6996,-2.7035,-2.7328,-2.7795,-2.8303,-2.8303,-2.8303,0.0,0.0,0.0,0.0,-2.7094,-2.6391,-2.5707,-2.5707,-2.6117,-2.6625,-2.6918,-2.7855,-2.9007,-3.0118,-3.1036,-3.2207,-3.4237,0.0,0.0,0.0,0.0,0.0,0.0,0.0,0.0,0.0,0.0,0.0,0.0,0.0,0.0,0.0,0.0,0.0,0.0,0.0,0.0,0.0,0.0,0.0,-4.8806,-4.8806,-4.8806,-4.8806,-4.8806,-4.8806,-4.8806,-4.8806,-4.8806,-4.8806,-4.8806,-4.8806,-4.8806,-4.8805,-4.9117,-4.9658,-4.9655,-5.031,-5.1394,-5.1402,-5.1409,-5.1377,-5.1089,-5.0975,-5.0957,-5.0664,-5.0215,-4.9766,0.0,0.0,0.0,0.0,0.0,0.0,0.0,0.0,-2.5703,-2.5703,0.0,0.0,0.0,0.0,0.0,-2.57,-2.5694,-2.5707,-2.5707,-2.5707,-2.5707,-2.5707,0.0,0.0,-2.5668,-2.5668,-2.5668,-2.5668,-2.5668,-2.5668,-2.5707,-2.5707,-2.5707,-2.5707,-2.5707,-2.6644,-2.8166,-2.7328,-2.6957,-2.6957,-2.6996,-2.7016,-2.7133,-2.801,-2.8342,-2.8362,-2.8362,-2.8362,0.0,-2.8362,0.0,0.0,-2.7289,-2.6411,-2.5726,-2.5707,-2.5707,-2.5883,0.0,0.0,0.0,-2.9104,0.0,0.0,-3.1856,0.0,0.0,0.0,0.0,0.0,0.0,0.0,0.0,0.0,0.0,0.0,0.0,0.0,0.0,0.0,0.0,0.0,0.0,0.0,0.0,0.0,0.0,-4.8729,-4.8729,-4.8729,-4.8729,-4.8729,-4.8729,-4.8729,-4.8729,-4.8729,-4.8729,-4.8729,-4.8729,-4.8729,-4.8709,-4.8727,-4.8743,-4.8758,-4.8757,-4.9744,-5.1316,-5.1316,-5.1322,-5.1234,-5.0381,-5.0093,-5.0057,-4.9219,-4.8887,-4.8867,0.0,0.0,0.0,0.0,0.0,0.0,-2.5703,-2.5703,-2.5703,0.0,0.0,0.0,-2.5703,-2.5703,-2.57,-2.5696,-2.5691,-2.5707,-2.5707,-2.5707,-2.5707,-2.5707,-2.5707,-2.5395,-2.4769,-2.4769,-2.4769,-2.4769,-2.4769,-2.5081,-2.5707,-2.5707,-2.5707,-2.5707,-2.5707,-2.5961,-2.641,-2.6156,-2.6058,-2.6117,-2.6742,-2.7387,-2.8049,-2.8909,0.0,0.0,0.0,-3.0117,-3.0117,0.0,-2.9728,-2.8987,-2.7465,-2.6821,-2.6528,-2.5883,-2.5707,-2.5746,-2.598,0.0,0.0,0.0,0.0,0.0,0.0,0.0,0.0,0.0,0.0,0.0,0.0,0.0,0.0,0.0,0.0,0.0,0.0,0.0,0.0,0.0,0.0,0.0,0.0,0.0,0.0,0.0,0.0,-4.692,-4.692,-4.692,-4.692,-4.692,-4.692,-4.692,-4.692,-4.692,-4.692,-4.692,-4.692,-4.692,-4.692,-4.6924,-4.7265,-4.7866,-4.7864,-4.8484,-4.951,-4.9519,-4.9545,-4.9573,-4.9325,-4.9233,-4.9237,-4.8984,-4.8496,-4.7969,0.0,0.0,0.0,0.0,0.0,-2.6367,-2.6738,-2.6777,-2.6777,0.0,0.0,0.0,-2.6777,-2.6775,-2.6635,-2.626,-2.6237,-2.6097,-2.5726,-2.5707,-2.5707,-2.5707,-2.5707,-2.5453,-2.4945,-2.4592,-2.4397,-2.4397,-2.4047,-2.4125,-2.4614,-2.4614,-2.4809,-2.5159,-2.5159,-2.5355,-2.5707,-2.5707,-2.5707,-2.5805,-2.7054,-2.7854,0.0,-2.963,-3.0626,0.0,0.0,0.0,-3.1835,-3.1465,-3.0567,0.0,0.0,-2.7836,-2.7367,-2.6508,-2.6235,-2.6156,-2.5805,-2.6078,-2.6547,-2.6918,0.0,0.0,-3.0021,-3.0684,0.0,0.0,0.0,0.0,0.0,0.0,0.0,0.0,0.0,0.0,0.0,0.0,0.0,0.0,0.0,0.0,0.0,0.0,0.0,0.0,-4.5475,-4.5813,-4.618,-4.6199,-4.6199,-4.6199,-4.6199,-4.6199,-4.6199,-4.6199,-4.6199,-4.6199,-4.6199,-4.6199,-4.6199,-4.6199,-4.6479,-4.6966,-4.6961,-4.7267,-4.7769,-4.776,-4.8197,-4.8826,-4.8482,-4.8351,-4.8317,-4.7948,-4.748,-4.7051,0.0,0.0,0.0,-2.6855,-2.707,-2.7402,-2.8184,-2.8301,-2.8301,0.0,-2.8301,-2.8301,-2.8299,-2.8297,-2.7983,-2.7217,-2.7136,-2.6762,-2.5902,-2.5844,-2.5805,-2.5707,-2.5707,-2.5648,-2.5551,-2.4808,-2.4358,-2.4261,-2.3482,-2.3091,-2.3091,-2.3091,-2.3579,-2.4397,-2.4397,-2.4886,-2.5707,-2.5707,-2.5765,-2.598,-2.7639,-2.8362,0.0,0.0,-3.1426,-3.211,-3.2207,-3.2734,-3.3279,-3.2383,-3.1115,0.0,0.0,0.0,0.0,0.0,-2.7133,-2.6957,-2.6078,-2.5844,-2.6019,-2.6684,0.0,0.0,-2.8968,-2.9456,0.0,0.0,0.0,0.0,0.0,0.0,0.0,0.0,0.0,0.0,0.0,0.0,0.0,0.0,0.0,0.0,0.0,0.0,0.0,-4.369,-4.4356,-4.5098,-4.5868,-4.5903,-4.5903,-4.5903,-4.5903,-4.5962,-4.6043,-4.6063,-4.6102,-4.6199,-4.6199,-4.6199,-4.6199,-4.6199,-4.6206,-4.6203,-4.6198,-4.6233,-4.6284,-4.6294,-4.7178,-4.8449,-4.7733,-4.7467,-4.7355,-4.6598,-4.6308,-4.6308,-2.5703,0.0,-2.6797,-2.6973,-2.7578,-2.8105,-2.8262,-2.8301,-2.8301,-2.8301,-2.8301,-2.83,-2.8297,-2.8296,-2.8235,-2.8051,-2.8049,-2.7678,-2.6801,-2.6742,-2.643,-2.5726,-2.5707,-2.5374,-2.4671,-2.4495,-2.4066,-2.3345,-2.3189,-2.3091,-2.3091,-2.3091,-2.3579,-2.4397,-2.4397,-2.4886,-2.5707,-2.5707,-2.6097,-2.684,-2.7874,0.0,-2.9534,-3.1211,-3.1953,-3.2187,-3.289,-3.326,-3.3279,-3.2383,-3.1876,-3.1388,0.0,0.0,0.0,-2.8303,0.0,-2.7854,-2.6977,-2.6742,-2.6625,0.0,0.0,0.0,-2.7426,-2.8597,-2.969,0.0,0.0,0.0,0.0,0.0,0.0,0.0,0.0,0.0,0.0,0.0,0.0,0.0,0.0,0.0,0.0,0.0,-4.3704,-4.369,-4.3799,-4.3936,-4.4108,-4.4108,-4.4108,-4.4108,-4.4108,-4.4442,-4.5147,-4.5147,-4.5517,-4.6199,-4.6199,-4.6199,-4.6199,-4.6199,-4.6199,-4.6203,-4.6203,-4.6217,-4.6211,-4.6284,-4.6487,-4.677,-4.6602,-4.6548,-4.6529,-4.636,-4.6305,-4.6307,-2.5703,-2.6406,-2.7148,-2.7578,-2.8379,-2.9082,-2.9531,-2.9609,-2.9609,-2.9609,-2.998,-3.0234,-3.0191,-3.0581,-3.048,-2.9611,-2.9551,-2.9006,-2.7737,-2.766,-2.7269,-2.6391,-2.6352,-2.5941,-2.5062,-2.4613,-2.4183,-2.3754,-2.3306,-2.2896,-2.2505,-2.2916,-2.3326,-2.3774,-2.4202,-2.4886,-2.5707,-2.5707,-2.6451,-2.7683,-2.8113,0.0,-2.9772,-3.1454,-3.2373,-3.286,-3.3735,-3.4044,-3.3983,-3.3534,-3.2813,0.0,0.0,-3.0549,-3.0021,0.0,-2.8947,-2.8752,0.0,0.0,0.0,-2.6567,0.0,0.0,0.0,-2.7679,-2.8558,0.0,0.0,0.0,0.0,0.0,0.0,0.0,0.0,0.0,0.0,0.0,0.0,0.0,0.0,0.0,0.0,0.0,-4.2128,-4.299,-4.3,-4.3133,-4.3582,-4.3601,-4.3601,-4.3601,-4.3601,-4.3815,-4.4247,-4.4247,-4.4695,-4.5556,-4.5556,-4.579,-4.6199,-4.6199,-4.6199,-4.6199,-4.6196,-4.6209,-4.6217,-4.6277,-4.6308,-4.6294,-4.6303,-4.6309,-4.6294,-4.6296,-4.6301,-4.6305,-2.5703,-2.6543,-2.7461,-2.8184,-2.916,-3.0098,-3.0781,-3.0898,-3.0957,-3.1133,-3.1894,-3.2402,-3.2358,-3.2983,-3.2823,-3.1426,-3.1308,-3.0586,-2.8889,-2.8771,-2.8323,-2.7309,-2.7094,-2.6664,-2.5961,-2.5101,-2.4573,-2.4397,-2.3696,-2.2935,-2.2154,-2.2799,-2.3189,-2.3384,-2.4086,-2.4886,-2.5707,-2.5708,0.0,-2.8293,0.0,-2.8918,-3.003,-3.1713,-3.2789,-3.3549,-3.4581,-3.4948,-3.4925,-3.4768,-3.3655,-3.2326,-3.2151,-3.1505,0.0,0.0,0.0,0.0,0.0,0.0,0.0,0.0,0.0,-2.6996,0.0,0.0,0.0,0.0,0.0,0.0,0.0,0.0,0.0,0.0,0.0,0.0,0.0,0.0,0.0,0.0,0.0,0.0,0.0,0.0,-4.012,-4.1547,-4.1596,-4.1945,-4.2822,-4.2861,-4.2958,-4.3114,-4.3114,-4.3192,-4.3348,-4.3348,-4.3796,-4.4656,-4.4656,-4.5108,-4.5946,-4.5946,-4.6043,-4.6199,-4.6193,-4.6203,-4.6206,-4.6253,-4.6282,-4.6306,-4.6296,-4.6305,-4.6291,-4.6291,-4.6295,-4.6301,-2.5703,-2.7012,-2.8184,-2.8281,0.0,0.0,-3.0879,-3.0898,-3.1172,-3.1953,-3.2754,-3.3261,-3.3257,-3.3335,-3.3311,-3.3124,-3.3103,-3.2362,-3.0625,-3.0527,-2.9805,-2.8225,-2.7406,-2.6957,-2.684,-2.6,-2.5179,-2.4397,-2.43,-2.3813,-2.2974,-2.3052,-2.3501,-2.4261,-2.4358,-2.4886,-2.5707,-2.5691,-2.671,0.0,-2.8298,-2.9275,0.0,-3.2612,-3.3315,-3.3628,-3.5268,-3.5853,-3.5736,0.0,-3.4053,-3.3113,0.0,-3.1509,-3.0781,-3.0683,0.0,0.0,0.0,0.0,0.0,0.0,-2.7562,0.0,0.0,0.0,0.0,0.0,0.0,0.0,0.0,0.0,0.0,0.0,0.0,0.0,0.0,0.0,0.0,0.0,0.0,0.0,0.0,0.0,0.0,-3.8933,-3.8945,-3.9318,-4.0195,-4.0234,-4.0581,-4.1361,-4.138,-4.1731,-4.2432,-4.2452,-4.288,-4.3757,-4.3757,-4.4208,-4.505,-4.505,-4.5478,-4.6199,-4.6199,-4.619,-4.6206,-4.6203,-4.6255,-4.6306,-4.6296,-4.6302,-4.6302,-4.6302,-4.6308,-4.6294,-2.5703,-2.7109,-2.8301,-2.8301,0.0,0.0,0.0,-3.1328,-3.1953,-3.2793,-3.3633,-3.4355,-3.4858,-3.5365,-3.5459,-3.4959,-3.4919,-3.4177,0.0,0.0,-3.1542,-2.9824,-2.9396,-2.8519,-2.7035,-2.6645,-2.6039,-2.5159,-2.5159,-2.471,-2.3871,-2.438,-2.4535,-2.4417,-2.4925,-2.5355,-2.5726,0.0,-2.7161,0.0,0.0,0.0,0.0,-3.2753,-3.4022,-3.4997,-3.574,-3.5992,-3.5933,0.0,-3.4877,0.0,0.0,0.0,0.0,0.0,0.0,0.0,0.0,0.0,0.0,0.0,0.0,0.0,-2.7875,0.0,-2.7991,0.0,0.0,0.0,0.0,0.0,0.0,0.0,0.0,0.0,0.0,0.0,0.0,0.0,0.0,0.0,0.0,0.0,0.0,0.0,0.0,-3.8656,-3.9026,-3.9045,-3.9454,-4.0312,-4.0351,-4.0757,-4.1594,-4.1594,-4.2023,-4.2841,-4.2841,-4.3289,-4.4169,-4.4676,-4.5108,-4.5478,-4.5985,-4.6203,-4.619,-4.6209,-4.6217,-4.6245,-4.6284,-4.6296,-4.63,-4.63,-4.6303,-4.6306,-2.6406,-2.7422,-2.8379,-2.8613,-2.9902,0.0,0.0,-3.2187,-3.3184,-3.4004,-3.4863,-3.5742,-3.6615,-3.7279,-3.7392,-3.6774,-3.6716,-3.5973,0.0,0.0,-3.3338,-3.1581,0.0,0.0,-2.8089,-2.7582,-2.6938,-2.6058,-2.6058,-2.5609,-2.4769,-2.5395,-2.5355,-2.4789,-2.5414,-2.5708,-2.5767,0.0,-2.7495,-2.8377,-2.9257,-3.039,-3.1719,-3.2949,-3.4472,-3.5995,-3.5995,-3.5995,-3.5993,-3.5993,-3.5427,0.0,-3.3961,0.0,0.0,0.0,0.0,0.0,-3.0891,0.0,0.0,0.0,0.0,0.0,0.0,0.0,0.0,0.0,0.0,0.0,0.0,0.0,0.0,-3.0543,0.0,0.0,0.0,0.0,0.0,0.0,0.0,0.0,0.0,0.0,0.0,0.0,0.0,0.0,-3.8129,-3.8149,-3.8539,-3.9415,-3.9688,-4.0097,-4.0737,-4.0971,-4.138,-4.1965,-4.1965,-4.2413,-4.327,-4.3897,-4.4446,-4.4933,-4.5576,-4.5985,-4.6199,-4.6196,-4.6206,-4.6206,-4.6253,-4.6267,-4.6273,-4.6298,-4.63,-4.63,-2.8223,-2.8262,-2.8574,-2.9414,-3.0293,0.0,0.0,0.0,0.0,0.0,0.0,0.0,0.0,0.0,0.0,0.0,0.0,-3.777,-3.6031,0.0,-3.5133,0.0,0.0,-3.0761,0.0,-2.9084,-2.7835,-2.6957,-2.6957,-2.6508,-2.5668,-2.5687,-2.5687,-2.5668,-2.5687,-2.5709,-2.5752,-2.6636,-2.7498,-2.8378,-2.9258,-3.1094,-3.332,0.0,-3.4473,-3.5996,-3.5996,0.0,0.0,-3.5996,-3.5429,0.0,0.0,0.0,0.0,0.0,0.0,0.0,0.0,0.0,0.0,-3.0875,0.0,0.0,0.0,0.0,-2.8557,0.0,0.0,0.0,0.0,-3.0204,-2.9641,-2.9646,-2.8924,0.0,0.0,0.0,0.0,0.0,0.0,0.0,0.0,0.0,0.0,0.0,0.0,0.0,-3.7194,-3.7233,-3.7642,-3.8519,-3.9357,-3.9805,-3.9844,-4.0679,-4.1107,-4.1146,-4.1146,-4.1555,-4.2335,-4.2374,-4.3293,-4.4894,-4.4933,-4.542,-4.6199,-4.6196,-4.6206,-4.6206,-4.6203,-4.6209,-4.6211,-4.6275,-4.63,-4.63,-2.9043,-2.916,-2.9258,-2.9551,-3.0312,0.0,0.0,-3.4453,0.0,0.0,-3.7617,0.0,0.0,-3.9467,-3.9444,0.0,0.0,-3.8921,-3.7789,-3.7711,0.0,0.0,0.0,-3.3162,0.0,0.0,0.0,-2.7854,-2.7289,-2.684,-2.6547,-2.5961,-2.5707,-2.5707,-2.5707,-2.6022,0.0,0.0,0.0,0.0,0.0,-3.1641,-3.3398,0.0,0.0,-3.5996,-3.5996,-3.5996,0.0,-3.5996,-3.5801,-3.5468,-3.4883,-3.3906,-3.2851,-3.2324,-3.1562,0.0,0.0,0.0,-3.0896,-3.0895,0.0,0.0,0.0,0.0,0.0,0.0,0.0,0.0,0.0,-3.0191,-2.9606,-2.9608,-2.8867,-2.8301,0.0,0.0,0.0,0.0,0.0,0.0,0.0,0.0,0.0,0.0,0.0,0.0,0.0,-3.6025,-3.6746,-3.7603,-3.7935,-3.8636,-3.9786,-4.0097,-4.0526,-4.1107,-4.1107,-4.1244,-4.1516,-4.2062,-4.2939,-4.4072,-4.4656,-4.54,-4.6199,-4.6206,-4.6206,-4.6209,-4.6206,-4.6192,-4.6195,-4.6233,-4.6264,-4.6292,-2.9941,-3.0059,-3.0059,-3.0059,0.0,0.0,0.0,0.0,0.0,0.0,-3.8516,0.0,-4.066,0.0,-4.0908,0.0,-4.0894,-4.0366,-3.9548,-3.9196,0.0,-3.6539,-3.6168,0.0,0.0,0.0,0.0,0.0,0.0,-2.7601,-2.6996,-2.643,-2.6,-2.5707,-2.5709,-2.6181,-2.7064,-2.7927,-2.8807,0.0,0.0,-3.1894,0.0,0.0,-3.4473,0.0,0.0,-3.5996,-3.5996,-3.5996,-3.5996,-3.5898,-3.5332,-3.4551,-3.3691,-3.2871,-3.2031,-3.1289,-3.0976,-3.0898,0.0,0.0,-3.0896,0.0,-3.0895,0.0,0.0,0.0,0.0,0.0,0.0,0.0,-2.9491,-2.9199,-2.8418,-2.7832,0.0,-2.8592,0.0,0.0,0.0,0.0,0.0,0.0,0.0,0.0,0.0,0.0,0.0,0.0,-3.583,-3.6707,-3.7033,-3.7887,-3.9328,-3.9614,-4.0195,-4.1052,-4.1052,-4.1055,-4.1081,-4.1607,-4.2312,-4.3192,-4.4052,-4.4929,-4.5771,-4.6063,-4.6199,-4.6199,-4.619,-4.6196,-4.62,-4.6201,-4.6233,-4.626,-3.0957,-3.0996,0.0,0.0,-3.2402,0.0,0.0,0.0,-3.7676,0.0,-3.9453,-4.0625,-4.2225,-4.2436,-4.2803,-4.3639,-4.2947,-4.2084,-4.1226,-4.0385,0.0,0.0,-3.6597,-3.5699,-3.4783,0.0,0.0,0.0,0.0,-2.8733,-2.7055,-2.7016,-2.6528,-2.5707,-2.5692,0.0,-2.7126,-2.7948,-2.8828,-2.9746,-3.0566,-3.1875,-3.334,-3.3379,0.0,-3.5937,-3.5976,-3.5996,-3.5996,-3.5996,-3.5996,-3.5996,-3.5996,-3.5391,-3.4531,-3.3652,-3.2832,-3.2012,-3.1133,-3.0898,-3.0898,-3.0898,0.0,0.0,0.0,0.0,-3.0895,0.0,0.0,0.0,0.0,0.0,-2.9335,-2.8496,-2.7637,-2.7051,-2.7069,-2.781,0.0,0.0,0.0,0.0,0.0,0.0,0.0,0.0,0.0,0.0,0.0,0.0,0.0,-3.5811,-3.6673,-3.7563,-3.8494,-3.9252,-4.0097,-4.0996,-4.0996,-4.1007,-4.1006,-4.1006,-4.148,-4.2351,-4.3172,-4.4049,-4.4968,-4.579,-4.616,-4.6199,-4.6199,-4.6199,-4.6203,-4.6195,-4.6206,-4.6206,-3.1738,-3.2344,-3.2969,0.0,-3.4082,-3.4668,0.0,0.0,0.0,0.0,-4.0859,-4.1914,-4.2342,-4.2983,-4.3467,-4.3678,-4.3495,0.0,0.0,0.0,0.0,-3.9234,-3.8375,-3.7223,-3.5699,-3.3962,0.0,-3.1777,0.0,0.0,-2.7952,-2.7309,-2.653,-2.5692,-2.5693,-2.6538,-2.7987,-2.8202,-2.9179,-3.0586,-3.0801,-3.1543,0.0,0.0,-3.4082,-3.5117,-3.5762,-3.5996,-3.5996,-3.5996,-3.5995,-3.5995,-3.5994,-3.5407,-3.4529,-3.3651,-3.2792,-3.1953,-3.1113,-3.0898,-3.0898,-3.0898,-3.0898,-3.0898,0.0,0.0,0.0,0.0,0.0,0.0,0.0,0.0,0.0,-2.9297,-2.8535,-2.7967,-2.7966,0.0,0.0,-2.9575,0.0,0.0,0.0,0.0,0.0,0.0,0.0,0.0,0.0,0.0,0.0,0.0,-3.5771,-3.693,-3.8415,-3.8622,-3.9494,-4.0996,-4.0996,-4.1,-4.1003,-4.1003,-4.1474,-4.2315,-4.2544,-4.3506,-4.4911,-4.514,-4.5615,-4.6199,-4.6199,-4.6199,-4.6199,-4.6203,-4.6192,-4.6192,-3.2636,0.0,0.0,-3.5117,0.0,0.0,-3.6484,0.0,0.0,-4.0351,-4.1601,0.0,-4.3457,-4.3962,-4.4428,-4.4798,-4.4496,0.0,-4.3027,0.0,0.0,-3.9878,-3.937,-3.8316,-3.6617,-3.5231,0.0,-3.2675,0.0,0.0,-2.8853,-2.7974,-2.7099,-2.6244,-2.5874,-2.6677,-2.8359,-2.9101,-3.0,-3.0898,-3.0898,0.0,0.0,-3.3086,-3.3945,-3.4804,-3.5683,-3.5995,-3.5996,-3.5994,-3.5993,-3.5993,-3.5992,-3.5405,-3.4527,-3.3668,-3.2771,-3.1912,-3.1112,-3.0898,-3.0898,-3.0898,-3.0898,-3.0898,-3.0898,-3.0898,-3.0898,0.0,0.0,0.0,0.0,0.0,0.0,-2.9668,-2.8866,-2.8297,0.0,0.0,0.0,0.0,0.0,0.0,0.0,0.0,0.0,0.0,0.0,0.0,0.0,0.0,0.0,0.0,-3.5421,-3.6673,-3.8373,-3.8405,-3.9256,-4.0967,-4.0967,-4.0971,-4.1003,-4.1003,-4.128,-4.1754,-4.2136,-4.2864,-4.3818,-4.455,-4.5161,-4.5628,-4.6045,-4.6192,-4.6199,-4.6209,-4.6193,-4.6193,-3.3709,0.0,0.0,0.0,0.0,0.0,0.0,-3.9101,0.0,-4.123,0.0,-4.332,-4.4824,-4.5097,-4.5486,-4.6229,0.0,-4.479,-4.3933,-4.3048,-4.1833,-4.0213,-3.9939,-3.9081,-3.7499,-3.6504,-3.5156,0.0,0.0,-3.1236,-2.958,-2.8701,-2.7825,-2.697,-2.621,0.0,0.0,-3.0215,-3.0898,0.0,-3.0898,-3.1348,-3.2129,-3.2929,-3.371,-3.4471,-3.5347,-3.5817,-3.5994,-3.5991,-3.5912,-3.5834,-3.5834,-3.5227,-3.4368,-3.349,-3.269,-3.1929,-3.1129,-3.0894,-3.0895,-3.0896,-3.0897,-3.0897,-3.0898,-3.0898,-3.0898,-3.0898,-3.0898,0.0,0.0,0.0,0.0,-2.9881,0.0,0.0,0.0,0.0,0.0,0.0,0.0,0.0,0.0,0.0,0.0,0.0,0.0,0.0,0.0,0.0,0.0,0.0,-3.532,0.0,-3.8373,0.0,-3.9241,-4.0907,-4.0907,-4.0941,-4.0982,-4.0982,-4.0991,-4.1027,-4.1809,-4.2198,-4.2392,-4.3875,-4.4595,-4.4891,-4.5827,-4.6193,-4.6192,-4.6192,-4.6192,-4.6192,-3.5252,0.0,0.0,0.0,0.0,-3.9687,-4.041,-4.0781,-4.1269,-4.207,-4.3555,-4.4668,-4.4961,-4.5644,-4.6131,-4.6287,-4.6166,0.0,0.0,0.0,0.0,-4.1984,-4.0616,-3.9406,-3.839,-3.6808,-3.5149,0.0,0.0,0.0,-2.9585,-2.8705,-2.7829,-2.6991,0.0,0.0,-2.9434,-3.0469,0.0,-3.0898,-3.0898,-3.0996,-3.1229,-3.201,-3.242,-3.2672,-3.3546,-3.4778,-3.5991,-3.6007,-3.5517,-3.493,-3.4926,-3.4338,-3.346,-3.2585,-3.2215,-3.1924,-3.1128,-3.0894,-3.0894,-3.0895,-3.0895,-3.0895,-3.0896,-3.0896,-3.0896,-3.0896,-3.0896,-3.0896,-3.0896,0.0,0.0,0.0,0.0,0.0,0.0,0.0,0.0,0.0,0.0,0.0,0.0,0.0,0.0,0.0,0.0,0.0,0.0,0.0,0.0,0.0,0.0,0.0,0.0,0.0,0.0,-4.0907,-4.0907,-4.0912,-4.0917,-4.0917,-4.0917,-4.0921,-4.1138,-4.1594,-4.224,-4.2587,-4.3545,-4.4891,-4.5771,-4.6126,-4.6126,-4.6126,-4.6126,-4.6134,0.0,0.0,0.0,0.0,0.0,0.0,0.0,-4.2598,0.0,-4.3691,-4.4473,-4.5176,-4.5625,-4.6054,-4.6308,-4.6308,-4.6306,-4.5933,-4.5055,-4.4174,-4.3314,-4.2436,-4.1185,0.0,-3.8626,-3.7787,-3.6264,-3.4077,0.0,0.0,-3.0876,0.0,0.0,-2.8359,0.0,-2.8808,0.0,0.0,0.0,-3.0898,-3.0898,-3.0898,-3.0994,-3.1793,-3.2102,-3.2218,-3.3091,-3.3931,-3.4656,-3.4653,-3.4378,-3.4026,-3.4023,-3.3437,-3.2636,-3.223,-3.1781,-3.1332,-3.0945,-3.0849,-3.0869,-3.0891,-3.0892,-3.0892,-3.0894,-3.0894,-3.0894,-3.0894,-3.0894,-3.0894,-3.0894,-3.0893,0.0,0.0,0.0,0.0,0.0,0.0,0.0,0.0,0.0,0.0,0.0,0.0,0.0,0.0,0.0,0.0,0.0,0.0,0.0,0.0,0.0,0.0,0.0,0.0,0.0,-4.0907,-4.0907,-4.0907,-4.0907,-4.0907,-4.0907,-4.0907,-4.0921,-4.1159,-4.1552,-4.2047,-4.3266,-4.4831,-4.5258,-4.5695,-4.6098,-4.6098,-4.6098,-4.6098,0.0,-3.841,0.0,0.0,-4.0995,0.0,-4.2793,-4.4121,-4.5,-4.5,-4.5156,-4.5547,-4.623,-4.6308,-4.6308,-4.6308,-4.6308,-4.5936,-4.5058,-4.4176,-4.3316,-4.2438,-4.1578,-4.0328,-3.8648,-3.8609,-3.732,0.0,0.0,0.0,0.0,0.0,0.0,0.0,0.0,0.0,0.0,0.0,-3.0898,-3.0898,-3.0897,-3.0897,-3.0973,-3.1592,-3.1843,-3.1919,-3.2597,-3.285,-3.285,-3.285,-3.2967,-3.3123,-3.3123,-3.2539,-3.1816,-3.1816,-3.1348,-3.08,-3.08,-3.08,-3.0801,-3.0865,-3.0886,-3.0888,-3.0871,-3.0872,-3.0872,-3.0872,-3.0872,-3.0872,-3.0872,-3.0889,0.0,0.0,0.0,0.0,0.0,0.0,0.0,0.0,0.0,0.0,0.0,0.0,0.0,0.0,0.0,0.0,0.0,0.0,0.0,0.0,0.0,0.0,-3.8387,0.0,-3.9241,0.0,-4.0907,-4.0907,-4.0907,-4.0907,-4.0907,-4.0907,-4.0907,-4.0907,-4.0966,-4.1845,-4.3,-4.4283,-4.4671,-4.5225,-4.5846,-4.6022,-4.608,-4.608,0.0,0.0,0.0,0.0,0.0,0.0,0.0,-4.4902,-4.5,-4.5,-4.5683,-4.6211,-4.6289,-4.6308,-4.6308,-4.6308,-4.6308,-4.5937,-4.5058,-4.418,-4.3301,-4.2441,-4.1621,-4.0371,-3.8633,-3.8594,-3.7324,0.0,0.0,0.0,0.0,0.0,0.0,0.0,0.0,0.0,0.0,-3.0879,-3.0898,-3.0897,-3.0897,-3.0895,-3.0909,-3.0985,-3.0963,-3.0938,-3.1015,-3.1034,-3.1034,-3.1034,-3.1563,-3.2226,-3.2226,-3.1621,-3.0917,-3.0917,-3.0859,-3.08,-3.08,-3.08,-3.08,-3.0801,-3.0801,-3.0801,-3.0803,-3.0803,-3.0803,-3.0803,-3.0803,-3.0803,-3.0803,-3.0803,-3.08,0.0,0.0,0.0,0.0,0.0,0.0,0.0,0.0,0.0,0.0,0.0,0.0,0.0,0.0,0.0,0.0,0.0,0.0,0.0,0.0,-3.6634,-3.8387,-3.8406,0.0,-4.0907,-4.0907,-4.0907,-4.0907,-4.0907,-4.0907,-4.0907,-4.0907,-4.0907,-4.0966,-4.1845,-4.2291,-4.2602,-4.4176,-4.4856,-4.5016,-4.5735,-4.6007,-4.6007,0.0,0.0,0.0,0.0,0.0,0.0,0.0,-4.5448,-4.5781,-4.5781,-4.6074,-4.6308,-4.6308,-4.6308,-4.6308,-4.6308,-4.6308,-4.5937,-4.5058,-4.418,-4.3301,-4.2441,-4.1621,-4.0625,-3.9414,-3.8867,-3.7832,0.0,0.0,0.0,0.0,0.0,0.0,0.0,0.0,-3.0566,-3.0898,-3.0898,-3.0897,-3.0897,-3.0894,-3.0891,-3.0907,-3.0864,-3.0822,-3.08,-3.08,-3.08,-3.08,-3.08,-3.1036,-3.1328,-3.1328,-3.1075,-3.08,-3.08,-3.08,-3.08,-3.08,-3.08,-3.08,-3.08,-3.08,-3.08,-3.08,-3.08,-3.08,-3.08,-3.0798,-3.0795,-3.0809,-3.0807,-3.0807,0.0,0.0,0.0,0.0,0.0,0.0,0.0,0.0,0.0,0.0,0.0,0.0,0.0,0.0,0.0,0.0,0.0,0.0,-3.3293,0.0,-3.6634,-3.8387,-3.8406,-3.9241,-4.0907,-4.0907,-4.0907,-4.0907,-4.0907,-4.0907,-4.0907,-4.0907,-4.0907,-4.0927,-4.1276,-4.1723,-4.233,-4.3549,-4.4345,-4.4909,-4.5709,-4.5994,-4.5989,-4.0501,0.0,-4.2561,0.0,-4.4188,-4.509,-4.5348,-4.5896,-4.6307,-4.6308,-4.6308,-4.6308,-4.6308,-4.6308,-4.6308,-4.6308,-4.6308,-4.582,-4.4687,-4.4043,-4.3203,-4.2109,-4.1504,0.0,-3.9922,-3.9043,-3.8164,-3.7305,-3.5547,0.0,0.0,0.0,0.0,0.0,-3.164,-3.164,-3.164,-3.1639,-3.1638,-3.1637,-3.1632,-3.1473,-3.1256,-3.1193,-3.1016,-3.08,-3.08,-3.08,-3.0799,-3.0799,-3.0796,-3.0795,-3.0798,-3.0796,-3.0795,-3.0795,-3.0795,-3.0795,-3.0795,-3.0795,-3.0795,-3.0795,-3.0795,-3.0795,-3.0795,-3.0795,-3.0795,-3.0795,-3.0792,-3.0806,-3.0799,-3.0798,-3.0798,0.0,0.0,0.0,0.0,0.0,0.0,0.0,-3.0781,-3.0753,-3.0697,0.0,0.0,0.0,0.0,0.0,0.0,0.0,0.0,0.0,0.0,0.0,0.0,0.0,-3.9241,-4.0907,-4.0898,-4.0893,-4.0893,-4.0888,-4.0864,-4.0864,-4.0864,-4.0864,-4.0864,-4.0864,-4.1238,-4.1898,-4.3019,-4.3853,-4.4514,-4.5584,-4.596,-4.596,-4.2199,-4.2396,-4.2944,-4.4671,-4.4984,-4.5299,-4.6144,-4.6282,-4.6303,-4.6306,-4.6307,-4.6307,-4.6308,-4.6308,-4.6308,-4.6308,-4.6308,-4.5566,-4.3828,-4.3711,-4.2969,0.0,0.0,-4.0781,-3.9922,-3.9043,-3.8164,-3.7305,0.0,0.0,-3.4668,0.0,0.0,-3.3379,-3.3378,-3.3378,-3.3377,-3.3375,-3.3371,-3.3366,-3.3366,-3.2857,-3.2091,-3.2071,-3.1543,-3.08,-3.08,-3.0798,-3.0792,-3.0792,-3.0806,-3.0801,-3.0791,-3.0806,-3.0799,-3.0799,-3.0799,-3.0799,-3.0799,-3.0799,-3.0799,-3.0799,-3.0799,-3.0799,-3.0799,-3.0799,-3.0799,-3.0799,-3.0799,-3.0799,-3.0798,-3.0798,-3.0794,-3.0804,0.0,0.0,0.0,0.0,0.0,0.0,-3.0731,-3.0694,-3.0695,0.0,0.0,0.0,0.0,0.0,0.0,0.0,0.0,-3.4462,-3.5333,0.0,-3.8387,-3.8406,-3.9241,-4.0907,-4.0898,-4.0902,-4.0902,-4.0837,-4.0807,-4.0807,-4.0807,-4.0807,-4.0807,-4.0807,-4.0807,-4.0981,-4.2712,-4.341,-4.3623,-4.5291,-4.5892,-4.5892,-4.2348,-4.3368,-4.4348,-4.4898,-4.5483,-4.5975,-4.6256,-4.6296,-4.6299,-4.6303,-4.6304,-4.6304,-4.6305,-4.6308,-4.6308,0.0,-4.5762,-4.4922,0.0,-4.3144,-4.2324,-4.125,-4.1191,-4.1074,-4.0781,-3.9355,-3.8457,-3.8184,0.0,0.0,0.0,-3.3808,-3.3398,-3.3398,-3.3396,-3.3394,-3.3394,-3.339,-3.3407,-3.3405,-3.3401,-3.3223,-3.2929,-3.2324,-3.1934,-3.1602,-3.1011,-3.0794,-3.0792,-3.0806,-3.0796,-3.0808,-3.0792,-3.0796,-3.0798,-3.0798,-3.0798,-3.0798,-3.0798,-3.0798,-3.0798,-3.0798,-3.0798,-3.0798,-3.0798,-3.0798,-3.0796,-3.0808,-3.0806,-3.0804,-3.0795,-3.0793,-3.0793,-3.0808,0.0,0.0,0.0,0.0,0.0,0.0,0.0,-3.0698,0.0,-3.0701,0.0,0.0,0.0,0.0,0.0,0.0,0.0,0.0,-3.5875,0.0,-3.8316,-3.8918,-3.9767,-4.0833,-4.0823,-4.0837,-4.0837,-4.0812,-4.0807,-4.0807,-4.0807,-4.0807,-4.0807,-4.0807,-4.0807,-4.0962,-4.2732,-4.341,-4.3598,-4.5286,-4.5893,-4.5893,-4.3259,-4.4241,-4.5104,-4.542,-4.5948,-4.6302,-4.6308,-4.6308,-4.6291,-4.6297,-4.6299,-4.63,-4.6301,-4.6306,0.0,-4.6307,-4.5507,0.0,-4.3768,-4.2871,-4.2031,-4.1191,-4.1191,-4.1191,-4.1191,0.0,0.0,-3.8594,-3.6855,-3.5722,-3.5175,-3.4627,-3.4372,-3.4372,-3.4389,-3.4387,-3.4387,-3.4382,-3.4378,-3.4378,-3.4374,-3.4177,-3.3826,-3.3278,-3.2671,-3.2027,-3.1472,-3.1077,-3.0801,-3.0794,-3.0804,-3.0793,-3.0793,-3.08,-3.0806,-3.0806,-3.0806,-3.0806,-3.0806,-3.0806,-3.0806,-3.0806,-3.0806,-3.0806,-3.0806,-3.0806,-3.0804,-3.0795,-3.0793,-3.081,-3.0796,-3.0794,-3.0794,-3.0767,0.0,0.0,0.0,0.0,0.0,0.0,0.0,0.0,0.0,-3.0974,0.0,0.0,0.0,0.0,0.0,0.0,0.0,-3.4939,-3.6275,0.0,-3.8287,-3.9164,-4.0007,-4.0807,-4.0796,-4.0804,-4.0792,-4.0792,-4.0792,-4.0792,-4.0792,-4.0792,-4.0792,-4.0792,-4.0792,-4.0967,-4.2691,-4.3349,-4.3562,-4.5247,-4.586,-4.5854,-4.4675,-4.5033,0.0,0.0,-4.63,0.0,-4.63,-4.63,-4.6303,-4.6291,-4.6293,-4.6276,-4.6221,-4.6203,-4.6183,-4.6125,0.0,0.0,0.0,-4.2789,-4.1951,-4.1131,-4.1152,0.0,-4.1191,-4.0332,-3.9433,-3.8516,-3.6816,-3.5993,-3.5991,-3.5991,-3.5991,-3.5991,-3.6006,-3.6003,-3.6003,-3.5996,-3.5992,-3.5992,-3.5992,-3.5504,-3.4782,-3.4716,-3.3698,-3.2253,-3.2145,-3.159,-3.0878,-3.0819,-3.0791,-3.0801,-3.0801,-3.0801,-3.0801,-3.0801,-3.0801,-3.0801,-3.0801,-3.0801,-3.0801,-3.0801,-3.0801,-3.0801,-3.0799,-3.0799,-3.0799,-3.0799,-3.0799,-3.0794,-3.0786,-3.0784,-3.0778,-3.0703,-3.07,-3.07,-3.07,0.0,0.0,0.0,0.0,0.0,0.0,-3.1523,-3.2031,0.0,0.0,0.0,0.0,0.0,0.0,-3.5762,-3.6634,-3.7501,-3.8359,-3.9251,-4.0059,-4.0801,-4.0812,-4.0802,-4.0797,-4.0797,-4.0797,-4.0797,-4.0797,-4.0797,-4.0797,-4.0797,-4.0835,-4.1048,-4.2667,-4.3343,-4.3595,-4.52,-4.58,-4.58,0.0,0.0,-4.6002,-4.6267,-4.6308,-4.6292,-4.63,-4.63,-4.6302,-4.6303,-4.6303,-4.6051,-4.5387,-4.5309,-4.5037,-4.4374,-4.4129,-4.3646,-4.2767,-4.1889,-4.1323,-4.1108,-4.1129,-4.1129,-4.1129,-4.0328,-3.9156,-3.7613,-3.6539,-3.5992,-3.5991,-3.6008,-3.6006,-3.6006,-3.5999,-3.5995,-3.5995,-3.5994,-3.5992,-3.5992,-3.5992,-3.5872,-3.5612,-3.4949,-3.4436,-3.3901,-3.2582,-3.1971,-3.1694,-3.1023,-3.0804,-3.0801,-3.0801,-3.0801,-3.0801,-3.0801,-3.0801,-3.0801,-3.0801,-3.0801,-3.0801,-3.0801,-3.0801,-3.0799,-3.0791,-3.0808,-3.0786,-3.0734,-3.0712,-3.0712,-3.0728,-3.0728,-3.0725,-3.0703,-3.0691,-3.0701,-3.0701,0.0,0.0,0.0,-3.1239,-3.1616,-3.1616,-3.2391,-3.3173,0.0,0.0,0.0,0.0,0.0,-3.5818,-3.6673,-3.748,-3.8327,-3.9204,-4.0072,-4.0602,-4.0796,-4.0809,-4.0803,-4.0797,-4.0797,-4.0797,-4.0797,-4.0797,-4.0797,-4.0797,-4.0797,-4.1164,-4.1816,-4.2899,-4.3711,-4.44,-4.5423,-4.5803,-4.5795,-4.5423,-4.588,-4.6201,-4.6255,-4.6258,-4.626,-4.6247,-4.6271,-4.6158,-4.5765,-4.5711,-4.5363,-4.4504,-4.4406,-4.4055,-4.3177,-4.3106,-4.2895,-4.2428,-4.1571,-4.1103,-4.1103,-4.1106,-4.1107,-4.1107,-4.0677,-3.9602,-3.7882,-3.7022,-3.6397,-3.6004,-3.6001,-3.5999,-3.5999,-3.5995,-3.5992,-3.5992,-3.5992,-3.601,-3.6006,-3.6006,-3.6001,-3.5955,-3.5444,-3.5028,-3.4573,-3.3585,-3.3015,-3.2567,-3.1683,-3.1661,-3.1914,-3.1525,-3.1661,-3.1992,-3.1992,-3.1719,-3.1486,-3.1875,-3.1992,-3.197,-3.1943,-3.1935,-3.1849,-3.1437,-3.136,-3.124,-3.0781,-3.0703,-3.07,-3.0691,-3.071,-3.0707,-3.0701,-3.0691,-3.0704,-3.0704,-3.071,0.0,-3.12,-3.1627,-3.2057,-3.2464,-3.3257,-3.394,-3.4425,0.0,0.0,-3.5667,-3.6043,-3.6469,-3.6947,-3.7763,-3.8628,-3.9486,-4.0358,-4.0797,-4.0797,-4.0797,-4.0797,-4.0797,-4.0797,-4.1009,-4.1351,-4.1351,-4.1558,-4.1905,-4.1905,-4.215,-4.2632,-4.3501,-4.4119,-4.4622,-4.5457,-4.5758,-4.5758,-4.604,-4.62,-4.6206,-4.6201,-4.6203,-4.6203,-4.6206,-4.6138,-4.5813,-4.507,-4.4883,-4.4461,-4.3603,-4.3505,-4.3154,-4.2275,-4.2197,-4.2199,-4.2201,-4.1504,-4.1097,-4.1097,-4.1102,-4.1105,-4.1105,-4.0969,-4.0147,-3.8599,-3.774,-3.6858,-3.5992,-3.5992,-3.5992,-3.5992,-3.5991,-3.5991,-3.5991,-3.6009,-3.6004,-3.5997,-3.5997,-3.5992,-3.5981,-3.5914,-3.548,-3.4854,-3.4667,-3.4157,-3.3456,-3.2599,-3.2793,-3.3261,-3.2518,-3.2791,-3.3414,-3.3548,-3.3061,-3.2613,-3.322,-3.3373,-3.3368,-3.3315,-3.3297,-3.3109,-3.2354,-3.2198,-3.1981,-3.1258,-3.1083,-3.106,-3.0925,-3.0905,-3.084,-3.0713,-3.081,-3.0884,-3.0881,0.0,0.0,-3.2027,-3.2204,-3.2563,-3.3315,-3.4124,-3.4608,-3.4608,-3.527,0.0,0.0,-3.6458,-3.6961,-3.7096,-3.7947,-3.8818,-3.9694,-4.0429,-4.0797,-4.0797,-4.0797,-4.079,-4.0784,-4.092,-4.1345,-4.1989,-4.2125,-4.2568,-4.3197,-4.3197,-4.3195,-4.3262,-4.4014,-4.4342,-4.4496,-4.5229,-4.5584,-4.5692,-4.618,-4.6203,-4.6209,-4.6206,-4.6209,-4.6192,-4.6206,-4.5584,-4.506,-4.4924,-4.4321,-4.3563,-4.2702,-4.2605,-4.2258,-4.1388,-4.1291,-4.1294,-4.1303,-4.1187,-4.1091,-4.1091,-4.1093,-4.1093,-4.1093,-4.039,-3.9549,-3.8593,-3.7734,-3.6852,-3.5992,-3.5992,-3.5992,-3.5992,-3.6004,-3.6001,-3.6001,-3.5994,-3.6009,-3.6007,-3.6007,-3.5962,-3.5912,-3.589,-3.5824,-3.5619,-3.4878,-3.4528,-3.4294,-3.3475,-3.3281,-3.3375,-3.3167,-3.3204,-3.3454,-3.4198,-3.4312,-3.4082,-3.3473,-3.3326,-3.331,-3.331,-3.3304,-3.3262,-3.3135,-3.3093,-3.305,-3.2916,-3.2893,-3.2679,-3.1933,-3.1797,-3.1564,-3.083,-3.1312,-3.1786,0.0,0.0,-3.2865,-3.2979,-3.3592,-3.4081,-3.4197,-3.499,-3.5496,-3.5496,-3.5612,-3.5704,-3.5704,-3.6458,-3.7251,-3.7961,-3.8837,-3.9713,-4.0584,-4.0739,-4.0797,-4.0797,-4.0797,-4.0778,-4.0745,-4.148,-4.1845,-4.1965,-4.2678,-4.3084,-4.3192,-4.3192,-4.3192,-4.3219,-4.3354,-4.3855,-4.4484,-4.4569,-4.5073,-4.5682,-4.6197,-4.6201,-4.6208,-4.6206,-4.58,-4.5491,-4.5501,-4.4769,-4.4033,-4.3602,-4.3239,-4.2678,-4.1798,-4.17,-4.1547,-4.1142,-4.1103,-4.1105,-4.1092,-4.1103,-4.1109,-4.1109,-4.1109,-4.1109,-4.1109,-4.0717,-3.9879,-3.8591,-3.8201,-3.7319,-3.6006,-3.6006,-3.6002,-3.5999,-3.5994,-3.5992,-3.5992,-3.6007,-3.5981,-3.5955,-3.5955,-3.5929,-3.5899,-3.5899,-3.5894,-3.585,-3.5441,-3.5302,-3.5176,-3.4319,-3.4353,-3.4658,-3.4163,-3.4315,-3.4782,-3.5185,-3.5298,-3.5201,-3.4802,-3.4669,-3.4652,-3.4652,-3.4644,-3.4517,-3.4046,-3.3949,-3.381,-3.3394,-3.3293,-3.3177,-3.2769,-3.271,-3.2571,-3.2113,-3.2381,0.0,0.0,-3.2917,-3.331,-3.3785,-3.4168,-3.4578,-3.5043,-3.5458,-3.5704,-3.5704,-3.5704,-3.5897,-3.6323,-3.7135,-3.7974,-3.8826,-3.9721,-4.039,-4.0797,-4.0752,-4.0746,-4.0746,-4.0707,-4.0674,-4.0673,-4.1554,-4.2184,-4.2652,-4.3474,-4.3844,-4.3848,-4.3848,-4.357,-4.315,-4.315,-4.34,-4.3747,-4.3704,-4.3946,-4.4292,-4.6138,-4.6181,-4.6107,-4.5908,-4.5331,-4.4828,-4.4634,-4.3871,-4.3081,-4.2454,-4.2212,-4.1847,-4.1161,-4.1103,-4.1106,-4.1108,-4.1108,-4.1091,-4.1093,-4.1094,-4.1103,-4.1103,-4.1103,-4.1103,-4.1103,-4.1103,-4.0264,-3.8585,-3.8585,-3.7684,-3.5997,-3.5997,-3.5992,-3.6005,-3.5981,-3.5981,-3.5981,-3.5979,-3.5953,-3.5904,-3.5904,-3.5899,-3.5908,-3.5908,-3.5908,-3.5903,-3.5903,-3.5894,-3.5804,-3.5123,-3.5347,-3.5785,-3.5097,-3.5346,-3.5872,-3.5887,-3.5887,-3.5887,-3.5887,-3.5834,-3.5799,-3.5799,-3.5807,-3.562,-3.4944,-3.4808,-3.4633,-3.4012,-3.3876,-3.3814,-3.3616,-3.3577,-3.3491,-3.3238,0.0,0.0,0.0,-3.3606,-3.396,-3.4627,-3.4689,-3.4974,-3.5646,-3.5704,-3.5704,-3.5704,-3.5872,-3.6253,-3.6872,-3.7904,-3.8858,-3.9644,-4.0391,-4.0752,-4.0752,-4.07,-4.0687,-4.0687,-4.0621,-4.0607,-4.0639,-4.1499,-4.2263,-4.2919,-4.374,-4.411,-4.4105,-4.4105,-4.358,-4.2797,-4.2788,-4.2761,-4.2761,-4.2772,-4.2879,-4.3052,-4.5957,-4.6117,-4.5845,-4.5051,-4.4892,-4.4631,-4.3813,-4.2951,-4.2377,-4.2318,-4.1656,-4.1172,-4.1114,-4.1094,-4.11,-4.1095,-4.1098,-4.1103,-4.1093,-4.1096,-4.1096,-4.1096,-4.1096,-4.1096,-4.1096,-4.1096,-4.0259,-3.8506,-3.8506,-3.7646,-3.6005,-3.6005,-3.6005,-3.6003,-3.5936,-3.5909,-3.5909,-3.5916,-3.5892,-3.5892,-3.5892,-3.5892,-3.5908,-3.5908,-3.59,-3.5908,-3.5908,-3.5898,-3.5885,-3.5827,-3.5843,-3.5878,-3.5756,-3.5749,-3.5807,-3.5807,-3.5799,-3.5799,-3.5799,-3.5799,-3.5799,-3.5799,-3.5795,-3.5775,-3.5717,-3.5698,-3.5698,-3.562,-3.562,-3.5363,-3.4551,-3.441,-3.415,-3.3328,0.0,0.0,-3.4313,-3.5005,-3.5523,-3.5593,-3.5593,-3.5626,-3.5684,-3.5704,-3.5704,-3.5704,-3.6397,-3.6843,-3.6901,-3.8428,-3.9681,-4.0498,-4.0582,-4.0602,-4.0602,-4.0614,-4.0614,-4.0614,-4.0595,-4.0593,-4.0634,-4.1501,-4.1902,-4.1958,-4.2824,-4.3209,-4.3209,-4.3209,-4.2681,-4.1885,-4.1833,-4.1797,-4.1797,-4.1803,-4.2274,-4.2907,-4.4413,-4.4495,-4.4403,-4.4109,-4.3631,-4.3187,-4.2837,-4.2046,-4.1485,-4.1485,-4.1224,-4.1036,-4.1036,-4.1085,-4.1091,-4.11,-4.11,-4.1103,-4.1106,-4.1106,-4.1095,-4.1093,-4.1093,-4.1093,-4.1093,-4.0567,-3.9692,-3.8502,-3.7958,-3.7095,-3.5936,-3.5936,-3.5931,-3.5943,-3.5919,-3.5897,-3.5897,-3.5892,-3.5908,-3.5908,-3.59,-3.5897,-3.5894,-3.5905,-3.5898,-3.5892,-3.5892,-3.5878,-3.5841,-3.5841,-3.5834,-3.5819,-3.5811,-3.5807,-3.5807,-3.5799,-3.5795,-3.5795,-3.5795,-3.5795,-3.5795,-3.5795,-3.5795,-3.5795,-3.5795,-3.5795,-3.5795,-3.5795,-3.5806,-3.5696,-3.5377,-3.5266,-3.5131,-3.4798,0.0,-3.5248,-3.5217,-3.5488,-3.5701,-3.5709,-3.5704,-3.5704,-3.5704,-3.5648,-3.585,-3.6391,-3.669,-3.7302,-3.8382,-3.9525,-4.0282,-4.0591,-4.0549,-4.0564,-4.0595,-4.0605,-4.0591,-4.0591,-4.0549,-4.0534,-4.0577,-4.1436,-4.1824,-4.1846,-4.2676,-4.2725,-4.2236,-4.223,-4.1714,-4.0937,-4.0901,-4.0901,-4.0893,-4.0895,-4.1086,-4.1355,-4.3452,-4.3496,-4.3423,-4.3192,-4.2672,-4.217,-4.1921,-4.1381,-4.0996,-4.0996,-4.1007,-4.0999,-4.0999,-4.1048,-4.1071,-4.1071,-4.1071,-4.1071,-4.1071,-4.1078,-4.1075,-4.11,-4.11,-4.11,-4.11,-4.0242,-3.9368,-3.849,-3.7635,-3.6752,-3.5904,-3.5904,-3.5899,-3.5908,-3.5906,-3.5903,-3.5903,-3.5897,-3.5894,-3.5894,-3.5905,-3.5898,-3.5898,-3.5905,-3.5898,-3.5872,-3.5872,-3.5838,-3.5795,-3.5795,-3.5807,-3.5795,-3.5795,-3.5795,-3.5795,-3.5795,-3.581,-3.5806,-3.5806,-3.5778,-3.5778,-3.5791,-3.5795,-3.5795,-3.5806,-3.5806,-3.5782,-3.5778,-3.576,-3.577,-3.5761,-3.5728,-3.5708,-3.5697,-3.5697,-3.5706,-3.5709,-3.5704,-3.5704,-3.5704,-3.5679,-3.5673,-3.5673,-3.5858,-3.622,-3.6819,-3.7302,-3.822,-3.9658,-4.0272,-4.0573,-4.0573,-4.0531,-4.0519,-4.0579,-4.0569,-4.0573,-4.0573,-4.0523,-4.0496,-4.0516,-4.1127,-4.1388,-4.1426,-4.1942,-4.1848,-4.1283,-4.1287,-4.0943,-4.0407,-4.037,-4.037,-4.037,-4.0372,-4.0363,-4.0363,-4.3316,-4.3486,-4.3219,-4.235,-4.2189,-4.1915,-4.1123,-4.1003,-4.0996,-4.0996,-4.0996,-4.0996,-4.0996,-4.0996,-4.0996,-4.0996,-4.0996,-4.0996,-4.0996,-4.0995,-4.1036,-4.1107,-4.1107,-4.1107,-4.1088,-4.0234,-3.9357,-3.85,-3.7623,-3.6746,-3.5908,-3.5908,-3.5908,-3.5908,-3.5894,-3.5908,-3.5905,-3.5908,-3.5901,-3.5901,-3.5901,-3.5901,-3.5901,-3.5901,-3.5868,-3.5807,-3.5807,-3.5792,-3.5795,-3.5795,-3.5795,-3.5795,-3.5795,-3.5795,-3.5795,-3.5795,-3.5797,-3.5799,-3.5799,-3.5747,-3.5718,-3.5782,-3.5795,-3.581,-3.5808,-3.5799,-3.5775,-3.5713,-3.5708,-3.5699,-3.5693,-3.5707,-3.5697,-3.569,-3.5704,-3.5704,-3.5704,-3.5704,-3.5704,-3.5704,-3.5643,-3.5606,-3.5601,-3.6337,-3.6813,-3.6813,-3.8367,-3.9661,-4.0458,-4.0496,-4.0496,-4.0496,-4.0496,-4.0496,-4.0496,-4.0496,-4.0496,-4.0496,-4.0496,-4.0496,-4.0496,-4.0507,-4.0502,-4.0502,-4.0432,-4.0407,-4.0407,-4.0407,-4.0407,-4.0379,-4.0325,-4.0307,-4.0298,-4.0301,-4.0301,-4.0301,-4.1616,-4.1689,-4.1587,-4.1335,-4.1281,-4.1208,-4.098,-4.0926,-4.093,-4.093,-4.0963,-4.0995,-4.0995,-4.1007,-4.0996,-4.0996,-4.0996,-4.0996,-4.0996,-4.1,-4.1007,-4.103,-4.1075,-4.0815,-4.0195,-3.9337,-3.8461,-3.7584,-3.6718,-3.6147,-3.5894,-3.5901,-3.5898,-3.5895,-3.5892,-3.5908,-3.5908,-3.5905,-3.5901,-3.5901,-3.5845,-3.5838,-3.5834,-3.5823,-3.5811,-3.5803,-3.5803,-3.5799,-3.5791,-3.5797,-3.5793,-3.5788,-3.5732,-3.5727,-3.5727,-3.5727,-3.5722,-3.5737,-3.5737,-3.5713,-3.5689,-3.5722,-3.5727,-3.5727,-3.5737,-3.5737,-3.5713,-3.5708,-3.5694,-3.5698,-3.5707,-3.5692,-3.5695,-3.5709,-3.5704,-3.5704,-3.5704,-3.5704,-3.5679,-3.5637,-3.6147,-3.6483,-3.6453,-3.7166,-3.7898,-3.8514,-3.9545,-4.0254,-4.0496,-4.0496,-4.0496,-4.0496,-4.0503,-4.0507,-4.0507,-4.05,-4.05,-4.0507,-4.0507,-4.0491,-4.043,-4.0441,-4.0432,-4.0424,-4.0362,-4.0325,-4.0325,-4.0327,-4.0328,-4.0328,-4.031,-4.031,-4.031,-4.031,-4.0263,-4.0234,-4.0867,-4.0863,-4.0859,-4.0859,-4.0859,-4.0859,-4.0859,-4.0883,-4.0888,-4.0888,-4.0936,-4.095,-4.095,-4.0963,-4.0967,-4.0967,-4.0967,-4.0975,-4.1003,-4.1003,-4.1007,-4.0996,-4.0707,-4.0308,-3.9763,-3.8906,-3.8053,-3.7196,-3.633,-3.5898,-3.5898,-3.5905,-3.5901,-3.5901,-3.5872,-3.5868,-3.5868,-3.5861,-3.5857,-3.5857,-3.5819,-3.5795,-3.5792,-3.5799,-3.581,-3.5801,-3.5801,-3.5778,-3.5765,-3.5751,-3.5766,-3.5747,-3.5713,-3.5708,-3.5708,-3.5708,-3.5699,-3.5694,-3.5694,-3.5703,-3.5698,-3.5698,-3.5694,-3.5704,-3.5694,-3.5694,-3.5708,-3.5698,-3.5702,-3.5692,-3.5692,-3.5701,-3.5704,-3.5704,-3.5704,-3.5684,-3.5654,-3.5958,-3.6159,-3.6085,-3.6826,-3.7328,-3.7282,-3.8038,-3.8871,-3.9718,-4.0235,-4.0508,-4.0511,-4.0503,-4.0495,-4.046,-4.0466,-4.0458,-4.0458,-4.079,-4.079,-4.0449,-4.0803,-4.0959,-4.0905,-4.0888,-4.0879,-4.086,-4.047,-4.0299,-4.029,-4.0301,-4.0301,-4.0301,-4.0263,-4.0253,-4.0253,-4.0234,-4.0205,-4.0166,-4.0801,-4.0807,-4.0807,-4.0807,-4.0807,-4.0807,-4.0807,-4.0848,-4.0897,-4.0897,-4.0883,-4.0883,-4.0883,-4.0883,-4.0883,-4.0883,-4.0903,-4.0936,-4.0982,-4.0982,-4.0952,-4.089,-4.0112,-3.9626,-3.947,-3.8696,-3.7902,-3.7088,-3.6291,-3.5898,-3.5898,-3.5898,-3.5895,-3.5895,-3.5834,-3.5803,-3.5803,-3.5803,-3.5795,-3.5795,-3.5795,-3.5791,-3.5791,-3.5791,-3.5797,-3.5799,-3.5799,-3.5747,-3.5708,-3.5704,-3.5704,-3.5699,-3.5699,-3.5699,-3.5699,-3.5699,-3.5703,-3.5702,-3.5702,-3.5706,-3.5704,-3.5704,-3.5702,-3.5694,-3.5707,-3.5702,-3.5697,-3.569,-3.5704,-3.5704,-3.5704,-3.5762,-3.58,-3.58,-3.5878,-3.5905,-3.5838,-3.6509,-3.6973,-3.691,-3.7616,-3.8115,-3.8115,-3.8895,-3.9708,-4.0431,-4.0508,-4.0511,-4.0502,-4.0493,-4.0458,-4.0407,-4.0388,-4.0436,-4.0513,-4.1288,-4.1288,-4.0513,-4.1384,-4.1806,-4.1797,-4.1732,-4.1657,-4.1552,-4.0749,-4.0358,-4.0301,-4.0301,-4.0291,-4.0282,-4.0206,-4.0186,-4.0186,-4.0127,-4.0106,-4.0077,-4.0806,-4.079,-4.0807,-4.0807,-4.0807,-4.0807,-4.0807,-4.0812,-4.0818,-4.0818,-4.0823,-4.0828,-4.0828,-4.0828,-4.0828,-4.0828,-4.0863,-4.0908,-4.0917,-4.0917,-4.0645,-4.0008,-3.9794,-3.9056,-3.7696,-3.7537,-3.7049,-3.6174,-3.5942,-3.5815,-3.5815,-3.5819,-3.5811,-3.5811,-3.5803,-3.5803,-3.5803,-3.5799,-3.5795,-3.5795,-3.5797,-3.5808,-3.5788,-3.5751,-3.5718,-3.5713,-3.5713,-3.5713,-3.5704,-3.5703,-3.5702,-3.5706,-3.5706,-3.5706,-3.5706,-3.5706,-3.5701,-3.5695,-3.5695,-3.569,-3.5704,-3.5704,-3.5695,-3.5701,-3.5695,-3.5695,-3.5695,-3.5709,-3.5704,-3.5704,-3.5704,-3.6207,-3.6632,-3.6632,-3.7208,-3.766,-3.7629,-3.7758,-3.7803,-3.7744,-3.8507,-3.9013,-3.9022,-3.9765,-4.0308,-4.0479,-4.0499,-4.0474,-4.0424,-4.0424,-4.0415,-4.0407,-4.0353,-4.0641,-4.133,-4.1475,-4.1475,-4.135,-4.2182,-4.2565,-4.2556,-4.2546,-4.2164,-4.1514,-4.1313,-4.0845,-4.0215,-4.0215,-4.0186,-4.0137,-4.0127,-4.0127,-4.0127,-4.0117,-4.0067,-4.0007,-4.0796,-4.0794,-4.0806,-4.0806,-4.0806,-4.0806,-4.0806,-4.0798,-4.0804,-4.0804,-4.0796,-4.0807,-4.0807,-4.0807,-4.0807,-4.0807,-4.0837,-4.0853,-4.0849,-4.0849,-4.0485,-3.9689,-3.9258,-3.8404,-3.7089,-3.6688,-3.6281,-3.585,-3.5819,-3.5792,-3.5792,-3.5799,-3.5795,-3.5795,-3.5806,-3.5797,-3.5797,-3.5769,-3.5745,-3.5741,-3.5751,-3.5747,-3.5742,-3.5713,-3.5699,-3.5708,-3.5708,-3.5698,-3.5707,-3.5692,-3.5701,-3.5704,-3.5704,-3.5704,-3.5704,-3.5704,-3.5704,-3.5704,-3.5704,-3.5704,-3.5704,-3.5704,-3.5704,-3.5704,-3.5704,-3.5704,-3.5704,-3.5704,-3.6013,-3.6265,-3.6265,-3.6969,-3.7518,-3.7518,-3.7874,-3.8138,-3.8099,-3.8426,-3.8649,-3.8614,-3.9364,-3.9869,-3.9869,-4.0254,-4.0479,-4.0449,-4.0449,-4.0424,-4.0362,-4.0362,-4.0344,-4.0345,-4.0318,-4.0711,-4.1533,-4.1925,-4.2316,-4.2708,-4.3158,-4.3368,-4.3357,-4.3337,-4.3078,-4.2601,-4.177,-4.1148,-4.0709,-4.0309,-4.0137,-4.0106,-4.0067,-4.0057,-4.0046,-4.0015,-3.9975,-3.9943,-4.0778,-4.0778,-4.0778,-4.0784,-4.0784,-4.079,-4.0797,-4.0796,-4.0808,-4.0808,-4.0798,-4.0796,-4.0796,-4.0796,-4.0796,-4.0801,-4.0801,-4.0801,-4.0807,-4.0807,-4.0361,-3.9416,-3.8694,-3.7821,-3.6799,-3.6077,-3.5727,-3.5782,-3.5782,-3.5782,-3.5782,-3.5782,-3.5782,-3.5782,-3.5784,-3.5775,-3.5775,-3.5713,-3.5708,-3.5708,-3.5704,-3.5699,-3.5699,-3.5694,-3.5698,-3.5702,-3.5702,-3.5706,-3.5704,-3.5679,-3.5679,-3.5679,-3.5673,-3.5673,-3.5673,-3.5673,-3.5673,-3.5673,-3.5673,-3.5673,-3.5673,-3.5673,-3.5789,-3.588,-3.588,-3.5892,-3.5916,-3.5911,-3.6549,-3.7123,-3.7118,-3.7809,-3.8415,-3.8415,-3.8472,-3.8516,-3.845,-3.9059,-3.9507,-3.9515,-4.0085,-4.0503,-4.051,-4.0493,-4.0449,-4.0379,-4.0379,-4.0362,-4.0298,-4.0289,-4.029,-4.0301,-4.0425,-4.0883,-4.1695,-4.2545,-4.3354,-4.4122,-4.4164,-4.4185,-4.4185,-4.4143,-4.4026,-4.3787,-4.2201,-4.1428,-4.1238,-4.042,-4.0086,-4.0057,-3.9996,-3.9975,-3.9975,-3.9911,-3.9878,-3.9867,-4.0628,-4.0628,-4.0654,-4.07,-4.0707,-4.0739,-4.079,-4.0797,-4.0803,-4.0803,-4.0803,-4.0809,-4.0809,-4.0809,-4.0796,-4.08,-4.0806,-4.0798,-4.0807,-4.0807,-4.0089,-3.8539,-3.8364,-3.7531,-3.5902,-3.5766,-3.5708,-3.5718,-3.5718,-3.5718,-3.5718,-3.5718,-3.5718,-3.5718,-3.5713,-3.5713,-3.5713,-3.5708,-3.5708,-3.5704,-3.5703,-3.5693,-3.5693,-3.5706,-3.5695,-3.569,-3.569,-3.5709,-3.5684,-3.5637,-3.5612,-3.5606,-3.5616,-3.561,-3.561,-3.561,-3.561,-3.561,-3.561,-3.561,-3.561,-3.561,-3.6144,-3.6659,-3.6659,-3.6708,-3.6742,-3.6733,-3.7422,-3.8009,-3.7958,-3.8639,-3.9237,-3.9237,-3.9807,-4.026,-4.026,-4.0288,-4.035,-4.0342,-4.0419,-4.0491,-4.0502,-4.0441,-4.0379,-4.0316,-4.0316,-4.0308,-4.0301,-4.0291,-4.0291,-4.0301,-4.0912,-4.1674,-4.2532,-4.3281,-4.4097,-4.4943,-4.4954,-4.4954,-4.4954,-4.4943,-4.4524,-4.3762,-4.283,-4.1998,-4.1222,-4.0368,-3.9975,-3.9922,-3.9911,-3.9911,-3.9911,-3.9837,-3.977,-3.9724,-4.0595,-4.0595,-4.0614,-4.0628,-4.0635,-4.0661,-4.0674,-4.07,-4.07,-4.07,-4.07,-4.07,-4.07,-4.07,-4.0688,-4.0701,-4.0701,-4.0694,-4.0745,-4.0745,-4.0002,-3.8316,-3.8239,-3.7445,-3.5741,-3.5702,-3.5702,-3.5702,-3.5694,-3.5708,-3.5708,-3.5708,-3.5708,-3.5704,-3.5694,-3.5703,-3.5703,-3.5707,-3.5702,-3.5702,-3.5711,-3.5706,-3.5706,-3.569,-3.5679,-3.5643,-3.5645,-3.5639,-3.5633,-3.5602,-3.5596,-3.5596,-3.5604,-3.5598,-3.5598,-3.5598,-3.5598,-3.5598,-3.5598,-3.5598,-3.5713,-3.617,-3.655,-3.6929,-3.7411,-3.7919,-3.8151,-3.7675,-3.8254,-3.8865,-3.8826,-3.9499,-4.007,-4.007,-4.0349,-4.0539,-4.0539,-4.0523,-4.0508,-4.0495,-4.0474,-4.0432,-4.0388,-4.037,-4.0335,-4.0309,-4.03,-4.0291,-4.0301,-4.0263,-4.0454,-4.0893,-4.1176,-4.1975,-4.3289,-4.3629,-4.4216,-4.5038,-4.5038,-4.5049,-4.5103,-4.5068,-4.4829,-4.441,-4.3073,-4.2272,-4.1802,-4.0493,-3.9911,-3.9837,-3.9837,-3.9815,-3.9781,-3.9758,-3.9724,-3.9689]},{"header":{"parameterUnit":"m.s-1","parameterCategory":1,"la1":30.6,"la2":28.766,"lo1":-90.7593,"lo2":-88.6598,"dy":0.0162,"dx":0.0183,"nx":116,"ny":114,"refTime":"2023-07-01T06:00:00:Z","depth":0,"parameterNumber":3,"parameterNumberName":"V-component_of_WINDS"},"data":[0.0,0.0,0.0,0.0,0.0,0.0,0.0,0.0,0.0,0.0,0.0,0.0,0.0,0.0,0.0,0.0,0.0,0.0,0.0,0.0,0.0,0.0,0.0,0.0,0.0,0.0,0.0,0.0,0.0,0.0,0.0,0.0,0.0,0.0,0.0,0.0,0.0,0.0,0.0,0.0,0.0,0.0,0.0,0.0,0.0,0.0,0.0,0.0,0.0,0.0,0.0,0.0,0.0,0.0,0.0,0.0,0.0,0.0,0.0,0.0,0.0,0.0,0.0,0.0,0.0,0.0,0.0,0.0,0.0,0.0,0.0,0.0,0.0,0.0,0.0,0.0,0.0,0.0,0.0,0.0,0.0,0.0,0.0,0.0,0.0,0.0,0.0,0.0,0.0,0.0,0.0,0.0,0.0,0.0,0.0,0.0,0.0,0.0,0.0,0.0,0.0,0.0,0.0,0.0,0.0,0.0,0.0,0.0,0.0,0.0,0.0,0.0,0.0,0.0,0.0,0.0,0.0,0.0,0.0,0.0,0.0,0.0,0.0,0.0,0.0,0.0,0.0,0.0,0.0,0.0,0.0,0.0,0.0,0.0,0.0,0.0,0.0,0.0,0.0,0.0,0.0,0.0,0.0,0.0,0.0,0.0,0.0,0.0,0.0,0.0,0.0,0.0,0.0,0.0,0.0,0.0,0.0,0.0,0.0,0.0,0.0,0.0,0.0,0.0,0.0,0.0,0.0,0.0,0.0,0.0,0.0,0.0,0.0,0.0,0.0,0.0,0.0,0.0,0.0,0.0,0.0,0.0,0.0,0.0,0.0,0.0,0.0,0.0,0.0,0.0,0.0,0.0,0.0,0.0,0.0,0.0,0.0,0.0,0.0,0.0,0.0,0.0,0.0,0.0,0.0,0.0,0.0,0.0,0.0,0.0,0.0,0.0,0.0,0.0,0.0,0.0,0.0,0.0,0.0,0.0,0.0,0.0,0.0,0.0,0.0,0.0,0.0,0.0,0.0,0.0,0.0,0.0,0.0,0.0,0.0,0.0,0.0,0.0,0.0,0.0,0.0,0.0,0.0,0.0,0.0,0.0,0.0,0.0,0.0,0.0,0.0,0.0,0.0,0.0,0.0,0.0,0.0,0.0,0.0,0.0,0.0,0.0,0.0,0.0,0.0,0.0,0.0,0.0,0.0,0.0,0.0,0.0,0.0,0.0,0.0,0.0,0.0,0.0,0.0,0.0,0.0,0.0,0.0,0.0,0.0,0.0,0.0,0.0,0.0,0.0,0.0,0.0,0.0,0.0,0.0,0.0,0.0,0.0,0.0,0.0,0.0,0.0,0.0,0.0,0.0,0.0,0.0,0.0,0.0,0.0,0.0,0.0,0.0,0.0,0.0,0.0,0.0,0.0,0.0,0.0,0.0,0.0,0.0,0.0,0.0,0.0,0.0,0.0,0.0,0.0,0.0,0.0,0.0,0.0,0.0,0.0,0.0,0.0,0.0,0.0,0.0,0.0,0.0,0.0,0.0,0.0,0.0,0.0,0.0,0.0,0.0,0.0,0.0,0.0,0.0,0.0,0.0,0.0,0.0,0.0,0.0,0.0,0.0,0.0,0.0,0.0,0.0,0.0,0.0,0.0,0.0,0.0,0.0,0.0,0.0,0.0,0.0,0.0,0.0,0.0,0.0,0.0,0.0,0.0,0.0,0.0,0.0,0.0,0.0,0.0,0.0,0.0,0.0,0.0,0.0,0.0,0.0,0.0,0.0,0.0,0.0,0.0,0.0,0.0,0.0,0.0,0.0,0.0,0.0,0.0,0.0,0.0,0.0,0.0,0.0,0.0,0.0,0.0,0.0,0.0,0.0,0.0,0.0,0.0,0.0,0.0,0.0,0.0,0.0,0.0,0.0,0.0,0.0,0.0,0.0,0.0,0.0,0.0,0.0,0.0,0.0,0.0,0.0,0.0,0.0,0.0,0.0,0.0,0.0,0.0,0.0,0.0,0.0,0.0,0.0,0.0,0.0,0.0,0.0,0.0,0.0,0.0,0.0,0.0,0.0,0.0,0.0,0.0,0.0,0.0,0.0,0.0,0.0,0.0,0.0,0.0,0.0,0.0,0.0,0.0,0.0,0.0,0.0,0.0,0.0,0.0,0.0,0.0,0.0,0.0,0.0,0.0,0.0,0.0,0.0,0.0,0.0,0.0,0.0,0.0,0.0,0.0,0.0,0.0,0.0,0.0,0.0,0.0,0.0,0.0,0.0,0.0,0.0,0.0,0.0,0.0,0.0,0.0,0.0,0.0,0.0,0.0,0.0,0.0,0.0,0.0,0.0,0.0,0.0,0.0,0.0,0.0,0.0,0.0,0.0,0.0,0.0,0.0,0.0,0.0,0.0,0.0,0.0,0.0,0.0,0.0,0.0,0.0,0.0,0.0,0.0,0.0,0.0,0.0,0.0,0.0,0.0,0.0,0.0,0.0,0.0,0.0,0.0,0.0,0.0,0.0,0.0,0.0,0.0,0.0,0.0,0.0,0.0,0.0,0.0,0.0,0.0,0.0,0.0,0.0,0.0,0.0,0.0,0.0,0.0,0.0,0.0,0.0,0.0,0.0,0.0,0.0,0.0,0.0,0.0,0.0,0.0,0.0,0.0,0.0,0.0,0.0,0.0,0.0,0.0,0.0,0.0,0.0,0.0,0.0,0.0,0.0,0.0,0.0,0.0,0.0,0.0,0.0,0.0,0.0,0.0,0.0,0.0,0.0,0.0,0.0,0.0,0.0,0.0,0.0,0.0,0.0,0.0,0.0,0.0,0.0,0.0,0.0,0.0,0.0,0.0,0.0,0.0,0.0,0.0,0.0,0.0,0.0,0.0,0.0,0.0,0.0,0.0,0.0,0.0,0.0,0.0,0.0,0.0,0.0,0.0,0.0,0.0,0.0,0.0,0.0,0.0,0.0,0.0,0.0,0.0,0.0,0.0,0.0,0.0,0.0,0.0,0.0,0.0,0.0,0.0,0.0,0.0,0.0,0.0,0.0,0.0,0.0,0.0,0.0,0.0,0.0,0.0,0.0,0.0,0.0,0.0,0.0,0.0,0.0,0.0,0.0,0.0,0.0,0.0,0.0,0.0,0.0,0.0,0.0,0.0,0.0,0.0,0.0,0.0,0.0,0.0,0.0,0.0,0.0,0.0,0.0,0.0,0.0,0.0,0.0,0.0,0.0,0.0,0.0,0.0,0.0,0.0,0.0,0.0,0.0,0.0,0.0,0.0,0.0,0.0,0.0,0.0,0.0,0.0,0.0,0.0,0.0,0.0,0.0,0.0,0.0,0.0,0.0,0.0,0.0,0.0,0.0,0.0,0.0,0.0,0.0,0.0,0.0,0.0,0.0,0.0,0.0,0.0,0.0,0.0,0.0,0.0,0.0,0.0,0.0,0.0,0.0,0.0,0.0,0.0,0.0,0.0,0.0,0.0,0.0,0.0,0.0,0.0,0.0,0.0,0.0,0.0,0.0,0.0,0.0,0.0,0.0,0.0,0.0,0.0,0.0,0.0,0.0,0.0,0.0,0.0,0.0,0.0,0.0,0.0,0.0,0.0,0.0,0.0,0.0,0.0,0.0,0.0,0.0,0.0,0.0,0.0,0.0,0.0,0.0,0.0,0.0,0.0,0.0,0.0,0.0,0.0,0.0,0.0,0.0,0.0,0.0,0.0,0.0,0.0,0.0,0.0,0.0,0.0,0.0,0.0,0.0,0.0,0.0,0.0,0.0,0.0,0.0,0.0,0.0,0.0,0.0,0.0,0.0,0.0,0.0,0.0,0.0,0.0,0.0,0.0,0.0,0.0,0.0,0.0,0.0,0.0,0.0,0.0,0.0,0.0,0.0,0.0,0.0,0.0,0.0,0.0,0.0,0.0,0.0,0.0,0.0,0.0,0.0,0.0,0.0,0.0,0.0,0.0,0.0,0.0,0.0,0.0,0.0,0.0,0.0,0.0,0.0,0.0,0.0,0.0,0.0,0.0,0.0,0.0,0.0,0.0,0.0,0.0,0.0,0.0,0.0,0.0,0.0,0.0,0.0,0.0,0.0,0.0,0.0,0.0,0.0,0.0,0.0,0.0,0.0,0.0,0.0,0.0,0.0,0.0,0.0,0.0,0.0,0.0,0.0,0.0,0.0,0.0,0.0,0.0,0.0,0.0,0.0,0.0,0.0,0.0,0.0,0.0,0.0,0.0,0.0,0.0,0.0,0.0,0.0,0.0,0.0,0.0,0.0,0.0,0.0,0.0,0.0,0.0,0.0,0.0,0.0,0.0,0.0,0.0,0.0,0.0,0.0,0.0,0.0,0.0,0.0,0.0,0.0,0.0,0.0,0.0,0.0,0.0,0.0,0.0,0.0,0.0,0.0,0.0,0.0,0.0,0.0,0.0,0.0,0.0,0.0,0.0,0.0,0.0,0.0,0.0,0.0,0.0,0.0,0.0,0.0,0.0,0.0,0.0,0.0,0.0,0.0,0.0,0.0,0.0,0.0,0.0,0.0,0.0,0.0,0.0,0.0,0.0,0.0,0.0,0.0,0.0,0.0,0.0,0.0,0.0,0.0,0.0,0.0,0.0,0.0,0.0,0.0,0.0,0.0,0.0,0.0,0.0,0.0,0.0,0.0,0.0,0.0,0.0,0.0,0.0,0.0,0.0,0.0,0.0,0.0,0.0,0.0,0.0,0.0,0.0,0.0,0.0,0.0,0.0,0.0,0.0,0.0,0.0,0.0,0.0,0.0,0.0,0.0,0.0,0.0,0.0,0.0,0.0,0.0,0.0,0.0,0.0,0.0,0.0,0.0,0.0,0.0,0.0,0.0,0.0,0.0,0.0,0.0,0.0,0.0,0.0,0.0,0.0,0.0,0.0,0.0,0.0,0.0,0.0,0.0,0.0,0.0,0.0,0.0,0.0,0.0,0.0,0.0,0.0,0.0,0.0,0.0,0.0,0.0,0.0,0.0,0.0,0.0,0.0,0.0,0.0,0.0,0.0,0.0,0.0,0.0,0.0,0.0,0.0,0.0,0.0,0.0,0.0,0.0,0.0,0.0,0.0,0.0,0.0,0.0,0.0,0.0,0.0,0.0,0.0,0.0,0.0,0.0,0.0,0.0,0.0,0.0,0.0,0.0,0.0,0.0,0.0,0.0,0.0,0.0,0.0,0.0,0.0,0.0,0.0,0.0,0.0,0.0,0.0,0.0,0.0,0.0,0.0,0.0,0.0,0.0,0.0,0.0,0.0,0.0,0.0,0.0,0.0,0.0,0.0,0.0,0.0,0.0,0.0,0.0,0.0,0.0,0.0,0.0,0.0,0.0,0.0,0.0,0.0,0.0,0.0,0.0,0.0,0.0,0.0,0.0,0.0,0.0,0.0,0.0,0.0,0.0,0.0,0.0,0.0,0.0,0.0,0.0,0.0,0.0,0.0,0.0,0.0,0.0,0.0,0.0,0.0,0.0,0.0,0.0,0.0,0.0,0.0,0.0,0.0,0.0,0.0,0.0,0.0,0.0,0.0,0.0,0.0,0.0,0.0,0.0,0.0,0.0,0.0,0.0,0.0,0.0,0.0,0.0,0.0,0.0,0.0,0.0,0.0,0.0,0.0,0.0,0.0,0.0,0.0,0.0,0.0,0.0,0.0,0.0,0.0,0.0,0.0,0.0,0.0,0.0,0.0,0.0,0.0,0.0,0.0,0.0,0.0,0.0,0.0,0.0,0.0,0.0,0.0,0.0,0.0,0.0,0.0,0.0,0.0,0.0,0.0,0.0,0.0,0.0,0.0,0.0,0.0,0.0,0.0,0.0,0.0,0.0,0.0,0.0,0.0,0.0,0.0,0.0,0.0,0.0,0.0,0.0,0.0,0.0,0.0,0.0,0.0,0.0,0.0,0.0,0.0,0.0,0.0,0.0,0.0,0.0,0.0,0.0,0.0,0.0,0.0,0.0,0.0,0.0,0.0,0.0,0.0,0.0,0.0,0.0,0.0,0.0,0.0,0.0,0.0,0.0,0.0,0.0,0.0,0.0,0.0,0.0,0.0,0.0,0.0,0.0,0.0,0.0,0.0,0.0,0.0464,0.0,0.0,0.0,0.0,0.0,0.0,0.0,0.0,0.0,0.0,0.0,0.0,0.0,0.0,0.0,0.0,0.0,0.0,0.0,0.0,0.0,0.0,0.0,0.0,0.0,0.0,0.0,0.0,0.0,0.0,0.0,0.0,0.0,0.0,0.0,0.0,0.0,0.0,0.5632,0.5632,0.5629,0.5639,0.5251,0.4991,0.4822,0.0,0.0,0.0,0.0,0.0,0.0,0.0,0.0,0.0,0.0,0.0,0.0,0.0,0.0,0.0,0.0,0.0,0.0,0.0,0.0,0.0,0.0,0.0,0.0,0.0,0.0,0.0,0.0,0.0,0.0,0.0,0.0,0.0,0.0,0.0,0.0,0.0,0.0,0.0,0.0,0.0,0.0,0.0,0.0,0.0,0.0,0.0,0.0,0.0,0.0,0.0,0.0,0.0,0.0,0.0,0.0,0.0,0.0,0.0,0.0,0.0,0.0,0.0,0.0,0.0,0.0,0.0,0.0,0.0,0.0,0.0,0.0199,0.0,0.0,0.0,0.0,0.0,0.0,0.0,0.0,0.0,0.0,0.0,0.0,0.0,0.0,0.0,0.0,0.0,0.0,0.0,0.0,0.0,0.0,0.0,0.0,0.5628,0.5826,0.5843,0.0,0.0,0.0,0.0,0.0,0.0,0.0,0.0,0.5806,0.5851,0.6043,0.6073,0.6085,0.61,0.5967,0.5762,0.547,0.5324,0.0,0.0,0.0,0.0,0.0,0.0,0.0,0.0,0.0,0.0,0.0,0.0,0.0,0.0,0.0,0.0,0.0,0.0,0.0,0.0,0.0,0.0,0.0,0.0,0.0,0.0,0.0,0.0,0.0,0.0,0.0,0.0,0.0,0.0,0.0,0.0,0.0,0.0,0.0,0.0,0.0,0.0,0.0,0.0,0.0,0.0,0.0,0.0,0.0,0.0,0.0,0.0,0.0,0.0,0.0,0.0,0.0,0.0,0.0,0.0,0.0,0.0,0.0,0.0,0.0,0.1113,0.0917,0.0676,0.0386,0.027,0.0173,0.0,0.0,0.0,0.0,0.0,0.0,0.0,0.0,0.0,0.0,0.0,0.0,0.0,0.0,0.0,0.0,0.0,0.0,0.0,0.0,0.0,0.0,0.0,0.5637,0.583,0.6048,0.6065,0.614,0.0,0.0,0.0,0.0,0.0,0.0,0.6336,0.6306,0.6384,0.6603,0.6762,0.6861,0.6846,0.6846,0.6698,0.6483,0.59,0.5514,0.5322,0.0,0.0,0.0,0.0,0.0,0.0,0.0,0.0,0.0,0.0,0.0,0.0,0.0,0.0,0.0,0.0,0.0,0.0,0.0,0.0,0.0,0.0,0.0,0.0,0.0,0.0,0.0,0.0,0.0,0.0,0.0,0.0,0.0,0.0,0.0,0.0,0.0,0.0,0.0,0.0,0.0,0.3934,0.3716,0.0,0.0,0.0,0.0,0.0,0.0,0.0,0.0,0.0,0.0,0.0,0.0,0.0,0.0,0.1935,0.1726,0.1595,0.1599,0.1599,0.1463,0.1181,0.0909,0.0658,0.041,0.015,0.0,0.0,-0.0263,0.0,0.0,0.0,0.0,0.0,0.0,0.0,0.0,0.0,0.0,0.0,0.0,0.0,0.0,0.0,0.0,0.0,0.0,0.0,0.0,0.0,0.6082,0.6284,0.649,0.6504,0.6515,0.6607,0.0,0.0,0.0,0.0,0.6571,0.6687,0.6706,0.6889,0.7203,0.7302,0.7387,0.7447,0.7447,0.7438,0.7417,0.6908,0.6437,0.5939,0.5686,0.0,0.0,0.0,0.0,0.0,0.0,0.0,0.0,0.0,0.0,0.0,0.0,0.0,0.0,0.0,0.0,0.0,0.0,0.0,0.0,0.0,0.0,0.0,0.0,0.0,0.0,0.0,0.0,0.0,0.0,0.0,0.0,0.0,0.0,0.0,0.0,0.0,0.0,0.0,0.4221,0.4067,0.3977,0.3923,0.3836,0.0,0.0,0.0,0.0,0.0,0.0,0.0,0.0,0.0,0.2677,0.2464,0.2261,0.1975,0.1754,0.1675,0.1692,0.1692,0.1486,0.1016,0.0901,0.0581,0.0158,0.0052,0.0,0.0,-0.0286,-0.0556,-0.0778,0.0,0.0,0.0,0.0,0.0,0.0,0.0,0.0,0.0,0.0,0.0,0.0,0.0,0.0,0.0,0.0,0.0,0.0,0.6257,0.6464,0.6671,0.6882,0.6901,0.692,0.6972,0.6977,0.0,0.0,0.6931,0.697,0.7127,0.7214,0.7441,0.7821,0.7797,0.7884,0.8021,0.8021,0.8047,0.809,0.7859,0.7309,0.659,0.626,0.6082,0.5985,0.0,0.0,0.0,0.0,0.0,0.0,0.0,0.0,0.0,0.0,0.0,0.0,0.0,0.0,0.0,0.0,0.0,0.0,0.0,0.0,0.0,0.0,0.0,0.0,0.0,0.0,0.0,0.0,0.0,0.0,0.0,0.0,0.0,0.0,0.0,0.0,0.0,0.4356,0.4242,0.4216,0.4074,0.3941,0.0,0.0,0.0,0.0,0.0,0.0,0.3069,0.3036,0.2956,0.2674,0.25,0.2281,0.1972,0.1844,0.1762,0.184,0.184,0.1505,0.0892,0.0892,0.0554,0.0,0.0,0.0,0.0,-0.0357,-0.064,-0.0821,-0.1137,-0.1358,0.0,-0.1983,-0.2138,-0.2222,0.0,0.0,0.0,0.0,0.0,0.0,0.0,0.0,0.0,0.0,0.0,0.6261,0.6464,0.6675,0.6887,0.7157,0.7175,0.7256,0.7446,0.746,0.746,0.746,0.7655,0.7735,0.7749,0.7937,0.8133,0.8371,0.8368,0.8444,0.8651,0.8651,0.8541,0.8357,0.8382,0.7921,0.7134,0.6795,0.6536,0.636,0.5996,0.0,0.0,0.0,0.0,0.0,0.0,0.0,0.0,0.0,0.0,0.0,0.0,0.0,0.0,0.0,0.0,0.0,0.0,0.0,0.0,0.0,0.0,0.0,0.0,0.0,0.0,0.0,0.0,0.0,0.0,0.0,0.0,0.0,0.0,0.0,0.0,0.0,0.0,0.4295,0.4233,0.0,0.0,0.0,0.0,0.3318,0.3199,0.315,0.3162,0.3019,0.2835,0.2609,0.2326,0.2084,0.1831,0.1862,0.1877,0.1879,0.1879,0.1526,0.088,0.088,0.0587,0.0,0.0,0.0,-0.0056,-0.0582,-0.0769,-0.0855,-0.1381,-0.1549,-0.1571,-0.2092,-0.2279,-0.2374,0.0,0.0,0.0,0.0,0.0,0.0,0.0,0.0,0.0,0.5774,0.6139,0.6478,0.6685,0.6927,0.7187,0.756,0.7593,0.7679,0.7878,0.7892,0.7892,0.7892,0.7968,0.8099,0.8368,0.8445,0.865,0.8986,0.8975,0.9,0.908,0.908,0.9063,0.8965,0.8839,0.8538,0.8057,0.7622,0.7289,0.7086,0.6853,0.669,0.0,0.0,0.0,0.0,0.0,0.0,0.0,0.0,0.0,0.0,0.0,0.0,0.0,0.0,0.0,0.0,0.0,0.0,0.0,0.0,0.0,0.0,0.0,0.0,0.0,0.0,0.0,0.0,0.0,0.0,0.0,0.0,0.0,0.0,0.0,0.0,0.0,0.4462,0.437,0.0,0.4049,0.3922,0.3718,0.3523,0.3311,0.3298,0.3397,0.3134,0.2923,0.2654,0.2412,0.2149,0.1869,0.188,0.1896,0.1915,0.1675,0.1376,0.0957,0.0718,0.0416,0.0,0.0,-0.0116,-0.0285,-0.0671,-0.0868,-0.0941,-0.1454,-0.1805,-0.1994,-0.2246,-0.2473,-0.2663,0.0,0.0,0.0,0.0,0.0,0.0,0.0,0.0,0.0,0.5908,0.6323,0.669,0.6901,0.7206,0.7512,0.7788,0.7878,0.7973,0.8106,0.8115,0.8115,0.8115,0.8212,0.8453,0.8803,0.8874,0.9082,0.939,0.939,0.9461,0.9539,0.9539,0.9479,0.9384,0.9246,0.906,0.8833,0.8463,0.8048,0.7646,0.7476,0.7297,0.7151,0.0,0.0,0.0,0.0,0.0,0.0,0.0,0.0,0.0,0.0,0.0,0.0,0.0,0.0,0.0,0.0,0.0,0.0,0.0,0.0,0.0,0.0,0.0,0.0,0.0,0.0,0.0,0.0,0.0,0.0,0.0,0.0,0.0,0.0,0.0,0.4545,0.4629,0.4518,0.4385,0.4164,0.4074,0.3915,0.3575,0.3483,0.34,0.3386,0.3162,0.2879,0.2591,0.2323,0.2107,0.1946,0.1936,0.1941,0.196,0.1585,0.1277,0.0973,0.0669,0.0302,0.0,0.0,-0.0177,-0.0467,-0.0751,-0.0959,-0.1094,-0.1566,-0.1928,-0.2231,-0.2385,-0.2622,-0.2918,0.0,0.0,0.0,0.0,0.0,0.0,0.0,0.5354,0.576,0.5987,0.6452,0.6901,0.7171,0.7565,0.7782,0.7826,0.8011,0.8129,0.8134,0.8134,0.8139,0.8144,0.8496,0.8817,0.8999,0.9192,0.9399,0.9616,0.9616,0.9762,1.0004,1.0004,0.9878,0.962,0.962,0.9538,0.9319,0.9319,0.8841,0.8032,0.789,0.7706,0.7518,0.0,0.0,0.0,0.0,0.0,0.0,0.0,0.0,0.0,0.0,0.0,0.0,0.0,0.0,0.0,0.0,0.0,0.0,0.0,0.0,0.0,0.0,0.0,0.0,0.0,0.0,0.0,0.0,0.0,0.0,0.0,0.0,0.0,0.4885,0.4908,0.4923,0.4715,0.4774,0.4585,0.4039,0.4179,0.4082,0.3549,0.3557,0.3506,0.3219,0.2922,0.2691,0.2405,0.2163,0.2007,0.2128,0.2035,0.202,0.2018,0.1679,0.1297,0.0988,0.0617,0.0309,0.0,0.0,-0.0181,-0.0542,-0.0817,-0.1093,-0.1433,-0.1719,-0.195,-0.2241,-0.2506,-0.2773,-0.3137,0.0,0.0,0.0,0.0,0.0,0.0,0.0,0.5313,0.5672,0.6033,0.633,0.6628,0.6952,0.7338,0.7706,0.7985,0.8193,0.8377,0.8519,0.8529,0.86,0.876,0.8874,0.9065,0.9428,0.9489,0.9658,0.9909,0.9909,1.0023,1.0227,1.0227,1.0263,1.0313,1.0313,1.0177,0.9949,0.9949,0.9749,0.9338,0.887,0.8567,0.8354,0.0,0.0,0.0,0.0,0.0,0.0,0.0,0.0,0.0,0.0,0.0,0.0,0.0,0.0,0.0,0.0,0.0,0.0,0.0,0.0,0.0,0.0,0.0,0.0,0.0,0.0,0.0,0.0,0.0,0.0,0.0,0.0,0.5494,0.5012,0.5022,0.4988,0.4797,0.4595,0.4434,0.424,0.4118,0.3934,0.3617,0.3659,0.3628,0.333,0.302,0.2765,0.2506,0.2218,0.2112,0.2128,0.2056,0.204,0.2018,0.1384,0.1061,0.0988,0.037,0.0062,0.0,0.0,-0.0305,-0.0784,-0.0896,-0.1233,-0.1722,-0.1797,-0.2111,-0.2542,-0.2564,-0.291,-0.3357,0.0,0.0,0.0,0.0,0.0,0.0,0.0,0.5285,0.5674,0.6055,0.6271,0.6542,0.6849,0.7218,0.7552,0.7924,0.817,0.8379,0.8689,0.8784,0.8892,0.8981,0.915,0.9357,0.9597,0.9729,0.9875,1.0132,1.0132,1.0241,1.0445,1.0445,1.0507,1.0621,1.0621,1.0528,1.0389,1.0389,1.0297,1.0177,0.9817,0.9381,0.8957,0.8873,0.8688,0.8501,0.8615,0.8492,0.8319,0.8336,0.0,0.0,0.0,0.0,0.0,0.0,0.0,0.0,0.0,0.0,0.0,0.0,0.0,0.0,0.0,0.0,0.0,0.0,0.0,0.0,0.0,0.0,0.0,0.0,0.5813,0.5596,0.5312,0.5282,0.5209,0.492,0.4703,0.4485,0.4341,0.4183,0.3933,0.3755,0.3826,0.3664,0.3254,0.3038,0.2767,0.2377,0.2203,0.2089,0.2168,0.2089,0.2074,0.2056,0.1334,0.1006,0.0997,0.031,0.0,0.0,0.0,-0.0369,-0.0913,-0.0907,-0.1253,0.0,0.0,0.0,0.0,0.0,-0.3171,-0.3502,0.0,0.0,0.0,0.0,0.0,0.0,0.0,0.5244,0.5694,0.6011,0.6233,0.648,0.6811,0.7104,0.7406,0.7716,0.7943,0.8231,0.8613,0.8824,0.8955,0.8979,0.9353,0.9573,0.9592,0.988,1.0127,1.0317,1.0341,1.0455,1.0612,1.0612,1.0622,1.0641,1.0641,1.0599,1.0594,1.0594,1.0594,1.0594,1.0575,1.009,0.9406,0.9224,0.9103,0.9078,0.9078,0.9071,0.899,0.8836,0.0,0.0,0.0,0.0,0.0,0.0,0.0,0.0,0.0,0.0,0.0,0.0,0.0,0.0,0.0,0.0,0.0,0.0,0.0,0.0,0.0,0.0,0.0,0.0,0.5895,0.5731,0.5653,0.5643,0.5477,0.5045,0.4885,0.4685,0.4428,0.4229,0.4036,0.3912,0.3934,0.3619,0.3025,0.0,0.0,0.0,0.0,0.2127,0.2222,0.2128,0.2112,0.2108,0.1349,0.1014,0.0947,0.0311,0.0,0.0,0.0,-0.037,-0.0987,-0.0913,-0.133,-0.1925,-0.1922,-0.2221,-0.275,-0.3363,-0.3553,0.0,0.0,0.0,0.0,0.0,0.0,0.0,0.0,0.5117,0.5425,0.5661,0.5884,0.6122,0.647,0.6826,0.7147,0.7383,0.7677,0.7965,0.8203,0.8395,0.8573,0.8742,0.9141,0.9426,0.9586,1.0014,1.0274,1.0317,1.0483,1.0627,1.0834,1.0834,1.0824,1.0736,1.0736,1.0639,1.0444,1.0444,1.0444,1.0431,1.028,1.0167,1.0117,1.0079,0.9826,0.9503,0.9503,0.9367,0.9216,0.9219,0.9067,0.8825,0.8462,0.8217,0.0,0.0,0.0,0.0,0.0,0.0,0.0,0.0,0.0,0.0,0.0,0.0,0.0,0.0,0.0,0.0,0.0,0.0,0.0,0.6637,0.6246,0.5957,0.5919,0.5755,0.5491,0.519,0.4735,0.4487,0.4564,0.4169,0.3955,0.3919,0.3947,0.3698,0.3028,0.3034,0.0,0.2109,0.2133,0.2216,0.2222,0.2216,0.2133,0.2109,0.0,0.0,0.0947,0.0315,0.0,0.0,0.0,-0.037,-0.0988,-0.0985,-0.1342,-0.1925,-0.2389,-0.262,-0.275,-0.3363,-0.3579,-0.3681,0.0,0.0,0.0,0.0,0.0,0.0,0.0,0.509,0.5361,0.5588,0.5774,0.6018,0.6258,0.6523,0.6827,0.7125,0.7547,0.7886,0.8089,0.837,0.8576,0.8677,0.909,0.9334,0.9428,0.9663,0.9902,1.0058,1.0154,1.0359,1.066,1.066,1.0613,1.0609,1.0609,1.0511,1.0413,1.0413,1.0413,1.0404,1.0312,1.0244,1.0195,1.0126,1.0056,0.9946,0.9838,0.9663,0.9446,0.9322,0.9081,0.8809,0.8507,0.8264,0.8034,0.0,0.0,0.0,0.0,0.0,0.0,0.0,0.0,0.0,0.0,0.0,0.0,0.0,0.0,0.6822,0.0,0.0,0.6668,0.6611,0.6238,0.6011,0.6066,0.5743,0.5475,0.5312,0.4828,0.4581,0.4695,0.424,0.3884,0.3943,0.4001,0.3745,0.3094,0.3075,0.2778,0.2198,0.2213,0.2222,0.2222,0.2222,0.2214,0.2132,0.1455,0.1108,0.1021,0.0317,0.0,0.0,0.0,-0.037,-0.105,-0.1359,-0.1652,-0.1989,-0.2549,-0.2786,-0.2782,-0.3375,-0.3587,-0.3699,0.0,0.0,0.0,0.0,0.0,0.0,0.0,0.0,0.529,0.5454,0.5633,0.5828,0.5995,0.6169,0.6419,0.6809,0.7267,0.7611,0.7804,0.8206,0.8474,0.8513,0.893,0.9179,0.9218,0.9297,0.9508,0.9776,0.9815,1.0013,1.0356,1.0356,1.0324,1.0314,1.0314,1.0314,1.0216,1.0216,1.0216,1.0216,1.0216,1.0152,0.9997,0.9879,0.9944,1.0109,0.9943,0.9718,0.9535,0.937,0.9045,0.8698,0.8453,0.8273,0.8013,0.7668,0.7551,0.0,0.0,0.0,0.0,0.0,0.0,0.0,0.0,0.707,0.7191,0.7051,0.7069,0.7041,0.6752,0.6821,0.6771,0.6487,0.6185,0.6032,0.6048,0.5693,0.5418,0.5398,0.4945,0.4628,0.4687,0.4231,0.3921,0.3965,0.3983,0.3781,0.3161,0.3107,0.2862,0.2221,0.2222,0.2222,0.2222,0.2222,0.2222,0.2222,0.1464,0.1117,0.11,0.0319,0.0,0.0,-0.0124,-0.0494,-0.105,-0.1729,-0.1962,-0.2,-0.2595,-0.279,-0.2838,-0.3406,-0.3598,-0.3699,0.0,0.0,0.0,0.0,0.0,0.0,0.0,0.0,0.0,0.4978,0.5161,0.5275,0.5323,0.5605,0.5925,0.6253,0.6443,0.6619,0.6753,0.727,0.7608,0.7806,0.8375,0.8781,0.8951,0.9335,0.9575,0.9619,0.9795,0.999,1.0145,1.0145,1.0096,1.0019,1.0019,0.992,0.9677,0.9677,0.9677,0.9677,0.9677,0.9758,0.981,0.9558,0.9518,0.9575,0.942,0.9375,0.9314,0.9314,0.9124,0.8824,0.8498,0.8277,0.8036,0.7822,0.7778,0.7767,0.7858,0.7777,0.7622,0.7601,0.7416,0.725,0.0,0.7382,0.7405,0.7495,0.7523,0.7473,0.7171,0.7148,0.7001,0.6577,0.6241,0.6055,0.6025,0.5718,0.5438,0.5297,0.4968,0.4682,0.4395,0.409,0.3905,0.3967,0.4085,0.3822,0.3163,0.3134,0.2888,0.2222,0.2222,0.2222,0.2222,0.2222,0.2222,0.2222,0.1479,0.1133,0.1051,0.0324,0.0,-0.0063,-0.0621,-0.0926,-0.105,-0.1729,-0.1975,-0.203,-0.2364,-0.2646,-0.2928,-0.3478,-0.3634,-0.3699,0.0,0.0,0.0,0.0,0.0,0.0,0.0,0.0,0.0,0.0,0.5074,0.5212,0.5212,0.5506,0.58,0.6011,0.618,0.6386,0.6574,0.6915,0.7198,0.7329,0.7799,0.806,0.8135,0.844,0.867,0.8733,0.881,0.8934,0.9103,0.9103,0.9096,0.9076,0.9135,0.9129,0.904,0.9288,0.9381,0.9373,0.9462,0.9518,0.9515,0.9178,0.9071,0.9116,0.9244,0.9305,0.0,0.913,0.891,0.8692,0.8413,0.8218,0.8024,0.7947,0.7906,0.7923,0.7835,0.7793,0.7733,0.7608,0.758,0.7601,0.758,0.7641,0.7732,0.7602,0.7594,0.7531,0.7264,0.7159,0.6974,0.0,0.6378,0.6212,0.6016,0.5835,0.5517,0.505,0.4919,0.4703,0.4396,0.4057,0.3926,0.408,0.411,0.3841,0.3197,0.3152,0.2893,0.2222,0.2222,0.2222,0.2222,0.2222,0.2222,0.2222,0.1481,0.1069,0.1054,0.0325,0.0,-0.0062,-0.0681,-0.0988,-0.105,-0.1729,-0.1977,-0.2037,-0.2328,-0.2612,-0.2943,-0.3256,-0.349,-0.3748,0.0,0.0,0.0,0.0,0.0,0.0,0.0,0.0,0.0,0.0,0.0,0.493,0.4919,0.5152,0.5339,0.5542,0.5739,0.595,0.6179,0.6457,0.6641,0.6803,0.711,0.7337,0.7428,0.7592,0.769,0.7809,0.7809,0.798,0.8227,0.8227,0.8299,0.8395,0.8515,0.8523,0.8578,0.8844,0.8995,0.8983,0.9096,0.9108,0.904,0.8784,0.8701,0.8686,0.9002,0.9087,0.9087,0.8867,0.8736,0.8567,0.8347,0.8199,0.8089,0.8089,0.8074,0.807,0.7862,0.7814,0.7807,0.7631,0.7773,0.7907,0.7719,0.7851,0.7961,0.7762,0.7644,0.749,0.7272,0.7163,0.6934,0.6521,0.6434,0.6272,0.5985,0.5875,0.5549,0.491,0.484,0.4755,0.4342,0.4097,0.3952,0.4117,0.414,0.3868,0.3224,0.3228,0.2893,0.2222,0.2222,0.2222,0.2222,0.2222,0.2222,0.2222,0.1481,0.1071,0.106,0.0326,0.0,-0.0062,-0.068,-0.0988,-0.105,-0.1729,-0.1977,-0.2038,-0.2284,-0.2573,-0.2962,-0.3059,-0.3359,-0.3786,0.0,0.0,0.0,0.0,0.0,0.0,0.0,0.0,0.0,0.0,0.0,0.0,0.0,0.4235,0.4345,0.4607,0.4823,0.4996,0.513,0.5577,0.5909,0.6022,0.6364,0.6702,0.6994,0.7004,0.7083,0.7149,0.7149,0.7358,0.7829,0.7829,0.8004,0.8387,0.8395,0.8395,0.8395,0.8402,0.8402,0.8402,0.8442,0.8305,0.8166,0.8424,0.8401,0.8252,0.852,0.8612,0.8612,0.8612,0.8608,0.8571,0.8349,0.8284,0.828,0.828,0.8352,0.8348,0.8125,0.7972,0.7905,0.7905,0.7949,0.7975,0.7975,0.8,0.8,0.7997,0.7689,0.7408,0.7408,0.729,0.702,0.6509,0.6417,0.6263,0.5866,0.5778,0.5573,0.4983,0.4872,0.4651,0.0,0.4031,0.3995,0.412,0.418,0.3909,0.3226,0.3228,0.2893,0.2222,0.2222,0.2222,0.2222,0.2222,0.2222,0.2222,0.1481,0.1077,0.1075,0.0327,0.0,-0.0063,-0.0684,-0.0988,-0.105,-0.1729,-0.1977,-0.1977,-0.2038,-0.2406,-0.3015,-0.2906,-0.3246,-0.3736,0.0,0.0,0.0,0.0,0.0,0.0,0.0,0.0,0.0,0.0,0.0,0.0,0.0,0.0,0.0,0.0,0.4565,0.4784,0.4956,0.5199,0.5442,0.5642,0.5864,0.6062,0.6248,0.6344,0.6418,0.6424,0.6519,0.6636,0.6815,0.6859,0.6927,0.7066,0.7214,0.726,0.731,0.7686,0.7868,0.7905,0.8133,0.8154,0.8091,0.8113,0.8078,0.8028,0.0,0.8344,0.8612,0.8612,0.8612,0.8556,0.8313,0.8245,0.8225,0.817,0.8057,0.7935,0.7955,0.7911,0.7856,0.7959,0.8091,0.8167,0.8055,0.8124,0.8103,0.7672,0.756,0.7486,0.7315,0.7075,0.6748,0.646,0.6309,0.6111,0.5823,0.5833,0.5639,0.4993,0.4914,0.0,0.0,0.0,0.0,0.4179,0.4204,0.4044,0.363,0.3363,0.3027,0.2559,0.2289,0.2222,0.2222,0.2222,0.2222,0.2222,0.1481,0.0871,0.0332,0.0131,0.0,0.0,-0.0503,-0.081,-0.105,-0.1482,-0.1791,-0.1977,-0.1977,-0.2407,-0.3021,-0.3005,-0.3324,-0.3847,0.0,0.0,0.0,0.0,0.0,0.0,0.0,0.0,0.0,0.0,0.0,0.0,0.0,0.0,0.0,0.0,0.0,0.4232,0.4424,0.4586,0.4751,0.4916,0.5047,0.5192,0.5357,0.5442,0.5527,0.5618,0.5701,0.5783,0.5868,0.5904,0.6008,0.6101,0.632,0.643,0.6527,0.6972,0.7194,0.7185,0.7416,0.7562,0.7642,0.7627,0.7676,0.0,0.7856,0.8076,0.8344,0.8344,0.8344,0.83,0.816,0.8111,0.8139,0.7978,0.7905,0.7876,0.7881,0.7918,0.7997,0.8096,0.8224,0.8246,0.8123,0.8094,0.7923,0.7537,0.7436,0.7382,0.721,0.6935,0.6651,0.6455,0.6248,0.6046,0.5873,0.588,0.5683,0.5031,0.4949,0.4745,0.0,0.0,0.0,0.4211,0.4237,0.4133,0.3833,0.3431,0.3027,0.2694,0.2357,0.2222,0.2222,0.2222,0.2087,0.1818,0.1346,0.0737,0.0,0.0,0.0,0.0,-0.0383,-0.0694,-0.0996,-0.1369,-0.1675,-0.1977,-0.1977,-0.2407,-0.3023,-0.3023,-0.3373,-0.3937,0.0,0.0,0.0,0.0,0.0,0.0,0.0,0.0,0.0,0.0,0.0,0.0,0.0,0.0,0.0,0.0,0.0,0.0,0.3562,0.3756,0.3871,0.3881,0.398,0.4163,0.4363,0.4368,0.4468,0.4629,0.4682,0.4809,0.5056,0.5066,0.526,0.5542,0.5752,0.5904,0.6062,0.6281,0.6369,0.6375,0.6375,0.6561,0.6792,0.701,0.7234,0.7507,0.7768,0.7856,0.7852,0.79,0.79,0.79,0.79,0.7968,0.8015,0.7787,0.7915,0.8115,0.788,0.8048,0.8272,0.8289,0.8295,0.8285,0.8294,0.7904,0.7607,0.7607,0.7379,0.721,0.0,0.0,0.6618,0.648,0.6228,0.6006,0.5886,0.5919,0.5706,0.0,0.0,0.0,0.0,0.0,0.0,0.4226,0.0,0.4174,0.3839,0.3434,0.3032,0.2766,0.236,0.2225,0.2225,0.2223,0.1818,0.1077,0.1077,0.074,0.0,0.0,0.0,0.0,-0.0325,-0.0705,-0.1011,-0.1325,-0.1689,-0.1977,-0.1977,-0.2407,-0.2961,-0.3023,-0.3394,-0.3872,0.0,0.0,0.0,0.0,0.0,0.0,0.0,0.0,0.0,0.0,0.0,0.0,0.0,0.0,0.0,0.0,0.0,0.0,0.3294,0.3453,0.3522,0.353,0.3561,0.3663,0.3815,0.3819,0.3843,0.3894,0.4196,0.4353,0.4433,0.4671,0.4841,0.4912,0.4994,0.5009,0.5079,0.5501,0.5726,0.5857,0.6204,0.6393,0.652,0.6564,0.6745,0.6972,0.7061,0.719,0.7363,0.7764,0.7768,0.7591,0.7591,0.761,0.7576,0.7598,0.7763,0.7959,0.8142,0.8052,0.8007,0.8226,0.8119,0.7925,0.781,0.7695,0.7551,0.7324,0.7265,0.7099,0.6879,0.6604,0.0,0.6159,0.5893,0.0,0.58,0.5933,0.0,0.548,0.5269,0.5029,0.4676,0.4392,0.0,0.0,0.4324,0.426,0.4236,0.3622,0.3226,0.3191,0.2543,0.2189,0.2189,0.2233,0.1818,0.1077,0.1077,0.074,0.0,0.0,0.0,0.0,-0.0066,-0.0452,-0.1011,-0.1073,-0.1502,-0.1977,-0.1977,-0.2284,-0.2652,-0.29,-0.3271,-0.3632,0.0,0.0,0.0,0.0,0.0,0.0,0.0,0.0,0.0,0.0,0.0,0.0,0.0,0.0,0.0,0.0,0.0,0.0,0.0,0.2959,0.3042,0.304,0.3076,0.3134,0.3252,0.3254,0.3273,0.3346,0.356,0.3669,0.3671,0.3849,0.4019,0.4094,0.4261,0.4371,0.4453,0.491,0.5115,0.0,0.0,0.5849,0.5956,0.6045,0.626,0.6485,0.6549,0.6649,0.683,0.7143,0.7275,0.7337,0.7406,0.7489,0.7502,0.7509,0.7604,0.7717,0.7845,0.7798,0.7789,0.8009,0.7889,0.7664,0.7517,0.7413,0.7287,0.7065,0.6999,0.6961,0.6683,0.6366,0.6142,0.0,0.0,0.0,0.5767,0.5939,0.5879,0.5661,0.539,0.5083,0.485,0.4512,0.4361,0.0,0.4367,0.4373,0.4432,0.3881,0.3547,0.3434,0.2784,0.2351,0.22,0.217,0.1818,0.1077,0.1077,0.074,0.0,0.0,0.0,0.0,0.0,-0.0394,-0.1029,-0.1023,-0.139,-0.1994,-0.1981,-0.2222,-0.2529,-0.29,-0.3208,-0.351,0.0,0.0,0.0,0.0,0.0,0.0,0.0,0.0,0.0,0.0,0.0,0.0,0.0,0.0,0.0,0.0,0.0,0.0,0.0,0.0,0.2491,0.2469,0.2535,0.2567,0.263,0.2641,0.2712,0.2812,0.2858,0.2896,0.2923,0.2943,0.3095,0.3257,0.3634,0.3844,0.3999,0.4414,0.4585,0.464,0.4926,0.5144,0.5327,0.0,0.0,0.6014,0.6236,0.6325,0.6384,0.6384,0.6653,0.7033,0.7232,0.7382,0.7486,0.7388,0.7432,0.7528,0.7428,0.7504,0.7575,0.7723,0.7673,0.7497,0.7385,0.7132,0.6931,0.6825,0.6801,0.6728,0.6503,0.6266,0.6065,0.5903,0.0,0.5613,0.5751,0.5941,0.5908,0.5727,0.5425,0.5179,0.4914,0.4638,0.4473,0.442,0.4421,0.4443,0.4492,0.4147,0.3725,0.3373,0.2947,0.2577,0.22,0.217,0.1885,0.1144,0.1144,0.074,0.0067,0.0,0.0,0.0,0.0,0.0,-0.0987,-0.0973,-0.1406,-0.2016,-0.1988,-0.216,-0.2467,-0.2838,-0.3208,-0.3449,0.0,0.0,0.0,0.0,0.0,0.0,0.0,0.0,0.0,0.0,0.0,0.0,0.0,0.0,0.0,0.0,0.0,0.0,0.0,0.0,0.0,0.1861,0.182,0.1789,0.1798,0.1806,0.1833,0.1842,0.206,0.2264,0.242,0.271,0.2926,0.3067,0.3171,0.3245,0.3299,0.377,0.3974,0.4085,0.4532,0.4746,0.487,0.5116,0.0,0.0,0.6108,0.6325,0.6384,0.6384,0.6473,0.6542,0.6684,0.6824,0.6963,0.7054,0.7186,0.7293,0.7492,0.7416,0.7328,0.7567,0.7347,0.7119,0.7097,0.6958,0.6828,0.6806,0.6801,0.6648,0.6192,0.6109,0.5909,0.5395,0.549,0.559,0.5607,0.5951,0.6163,0.0,0.5931,0.5656,0.5398,0.5006,0.0,0.0,0.0,0.0,0.4557,0.4204,0.3706,0.2992,0.254,0.23,0.22,0.217,0.1953,0.1481,0.1212,0.0875,0.0404,0.0135,0.0,0.0,0.0,0.0,-0.0987,-0.0973,-0.1406,-0.2016,-0.1988,-0.2038,-0.2161,-0.2776,-0.3023,-0.3145,0.0,0.0,0.0,0.0,0.0,0.0,0.0,0.0,0.0,0.0,0.0,0.0,0.0,0.0,0.0,0.0,0.0,0.0,0.0,0.0,0.0,0.0,0.0,0.0,0.1611,0.1591,0.1614,0.1614,0.0,0.1867,0.2,0.0,0.0,0.2576,0.272,0.2831,0.2982,0.3295,0.3553,0.3707,0.4066,0.4254,0.0,0.0,0.0,0.0,0.5496,0.57,0.5813,0.5971,0.6038,0.6114,0.6587,0.6739,0.6833,0.6893,0.6945,0.6983,0.7073,0.6966,0.6959,0.7144,0.7039,0.6872,0.6809,0.6749,0.6687,0.6624,0.6459,0.6274,0.5967,0.5854,0.5674,0.5291,0.5413,0.5584,0.5584,0.5953,0.618,0.618,0.601,0.5878,0.5827,0.532,0.0,0.0,0.0,0.0,0.4621,0.4261,0.3828,0.3251,0.2764,0.2447,0.2223,0.2178,0.202,0.1616,0.1279,0.0875,0.0471,0.0135,0.0,0.0,0.0,0.0,-0.0732,-0.0911,-0.1284,-0.1783,-0.1931,-0.1977,-0.2099,-0.2776,-0.3023,-0.3085,0.0,0.0,0.0,0.0,0.0,0.0,0.0,0.0,0.0,0.0,0.0,0.0,0.0,0.0,0.0,0.0,0.0,0.0,0.0,0.0,0.0,0.0,0.0,0.0,0.0,0.0,0.0,0.0,0.0,0.0,0.0,0.0,0.0,0.0,0.0,0.0,0.2668,0.2904,0.3098,0.0,0.0,0.0,0.0,0.0,0.0,0.0,0.0,0.5041,0.5173,0.5442,0.5534,0.5679,0.6258,0.6535,0.6652,0.6689,0.6722,0.672,0.6637,0.6619,0.6649,0.6771,0.6782,0.6738,0.6641,0.66,0.6503,0.6406,0.6189,0.5967,0.5797,0.5593,0.543,0.52,0.5368,0.5542,0.558,0.5939,0.6159,0.6178,0.6076,0.0,0.6124,0.55,0.0,0.0,0.0,0.0,0.0,0.4299,0.3935,0.3501,0.3065,0.2601,0.2175,0.2191,0.2026,0.175,0.1279,0.0942,0.0606,0.0202,0.0,0.0,0.0,0.0,0.0,-0.0848,-0.1225,-0.1543,-0.1874,-0.1977,-0.2099,-0.2653,-0.2961,-0.3085,0.0,0.0,0.0,0.0,0.0,0.0,0.0,0.0,0.0,0.0,0.0,0.0,0.0,0.0,0.0,0.0,0.0,0.0,0.0,0.0,0.0,0.0,0.0,0.0,0.0,0.0,0.0,0.0,0.0,0.0,0.0,0.0,0.0,0.0,0.0,0.0,0.0,0.0,0.0,0.0,0.0,0.0,0.0,0.0,0.0,0.0,0.0,0.4772,0.4949,0.4959,0.5024,0.5074,0.5283,0.5717,0.6208,0.6295,0.6407,0.6464,0.6586,0.6619,0.6649,0.6771,0.6717,0.6632,0.6622,0.6481,0.64,0.6389,0.6189,0.5944,0.5648,0.5486,0.5331,0.5159,0.5279,0.5461,0.5564,0.5825,0.6094,0.6172,0.0,0.0,0.6134,0.0,0.0,0.0,0.0,0.0,0.0,0.4299,0.3935,0.3501,0.3093,0.2697,0.2176,0.2213,0.2182,0.2155,0.1414,0.1077,0.101,0.0337,0.0,0.0,0.0,0.0,0.0,-0.0848,-0.1225,-0.1543,-0.1874,-0.1977,-0.2038,-0.2406,-0.2714,-0.3023,0.0,0.0,0.0,0.0,0.0,0.0,0.0,0.0,0.0,0.0,0.0,0.0,0.0,0.0,0.0,0.0,0.0,0.0,0.0,0.0,0.0,0.0,0.0,0.0,0.0,0.0,0.0,0.074,0.0,0.0,0.0,0.0,0.0,0.0,0.0,0.0,0.0,0.0,0.0,0.0,0.0,0.0,0.0,0.0,0.0,0.0,0.0,0.0,0.4564,0.482,0.4932,0.4939,0.5041,0.5283,0.5595,0.5777,0.586,0.5916,0.6178,0.626,0.627,0.6519,0.6495,0.646,0.646,0.6418,0.6284,0.6134,0.5891,0.5598,0.5347,0.5229,0.516,0.5094,0.5261,0.5443,0.556,0.5772,0.6023,0.6163,0.6294,0.0,0.0,0.0,0.0,0.0,0.0,0.0,0.0,0.4518,0.43,0.3863,0.3455,0.3055,0.2594,0.2353,0.2185,0.2222,0.1683,0.1279,0.1077,0.0538,0.0202,0.0,0.0,0.0,0.0,-0.079,-0.1105,-0.1222,-0.1766,-0.1992,-0.2038,-0.2406,-0.2714,-0.3023,0.0,0.0,0.0,0.0,0.0,0.0,0.0,0.0,0.0,0.0,0.0,0.0,0.0,0.0,0.0,0.0,0.0,0.0,0.0,0.0,0.0,0.0,0.0,0.0,0.0,0.0,0.0506,0.0506,0.051,0.0516,0.0,0.0,0.0,0.0,0.0,0.0,0.0,0.0,0.0,0.0,0.0,0.0,0.0,0.0,0.0,0.0,0.0,0.0,0.0,0.0,0.0,0.4662,0.4715,0.4842,0.4983,0.5332,0.5417,0.5506,0.5775,0.5844,0.5844,0.6038,0.6088,0.6088,0.6088,0.6076,0.5973,0.5777,0.5536,0.5303,0.5136,0.5007,0.4941,0.5086,0.5216,0.5382,0.5552,0.5778,0.5951,0.6155,0.0,0.6425,0.0,0.0,0.0,0.0,0.0,0.0,0.0,0.0,0.4518,0.408,0.3685,0.3282,0.2804,0.2432,0.2193,0.2222,0.1818,0.1481,0.1212,0.074,0.0404,0.0,0.0,0.0,0.0,-0.0597,-0.0915,-0.103,-0.1649,-0.1939,-0.2038,-0.2284,-0.2653,-0.3023,0.0,0.0,0.0,0.0,0.0,0.0,0.0,0.0,0.0,0.0,0.0,0.0,0.0,0.0,0.0,0.0,0.0,0.0,0.0,0.0,0.0,0.0,0.0,0.0,0.0,0.0,0.0506,0.0506,0.0484,0.049,0.0491,0.0504,0.0,0.0,0.0,0.0,0.0,0.0,0.0,0.0,0.0,0.0,0.0,0.0,0.0,0.0,0.0,0.0,0.0,0.0,0.0,0.0,0.0,0.4218,0.4341,0.5022,0.5295,0.5379,0.5426,0.5429,0.5429,0.5429,0.5426,0.5426,0.5426,0.5426,0.5426,0.5426,0.5185,0.5025,0.5074,0.4903,0.4798,0.5065,0.511,0.5235,0.5536,0.5725,0.5882,0.0,0.0,0.0,0.0,0.0,0.0,0.0,0.0,0.0,0.0,0.0,0.4518,0.408,0.3717,0.324,0.2804,0.2384,0.2215,0.2222,0.1818,0.1616,0.1548,0.0808,0.0,0.0,0.0,0.0,0.0,-0.0398,-0.0719,-0.103,-0.1396,-0.1689,-0.1977,-0.1977,-0.2408,-0.3023,0.0,0.0,0.0,0.0,0.0,0.0,0.0,0.0,0.0,0.0,0.0,0.0,0.0,0.0,0.0,0.0,0.0,0.0,0.0,0.0,0.0,0.0,0.0,0.0,0.0,0.0,0.017,0.0173,0.0175,0.0143,0.0148,0.0298,0.0417,0.0505,0.0,0.0,0.0,0.0,0.0,0.0,0.0,0.0,0.0,0.0,0.0,0.0,0.0,0.0,0.0,0.0,0.0,0.0,0.0,0.0,0.0,0.4099,0.4444,0.4771,0.507,0.5138,0.5185,0.5377,0.5377,0.5377,0.5377,0.5319,0.522,0.5039,0.4946,0.4835,0.4788,0.4713,0.4796,0.5065,0.5108,0.5233,0.0,0.0,0.0,0.6141,0.6427,0.0,0.0,0.0,0.0,0.0,0.0,0.0,0.0,0.0,0.4664,0.4518,0.4048,0.364,0.3225,0.278,0.2401,0.2222,0.2087,0.1885,0.1616,0.0,0.0,0.0,0.0,0.0,0.0,-0.0335,-0.0725,-0.1031,-0.1347,-0.1704,-0.1977,-0.1977,-0.2408,-0.3023,0.0,0.0,0.0,0.0,0.0,0.0,0.0,0.0,0.0,0.0,0.0,0.0,0.0,0.0,0.0,0.0,0.0,0.0,0.0,0.0,0.0,0.0,0.0,0.0,0.0,0.0,0.0,0.0,0.0,0.0,0.0,0.0115,0.0232,0.0314,0.0432,0.0,0.0,0.0,0.0,0.0,0.0,0.0,0.2392,0.0,0.0,0.0,0.0,0.0,0.0,0.0,0.0,0.0,0.0,0.0,0.0,0.0,0.3849,0.4214,0.4576,0.4719,0.4791,0.4933,0.4979,0.4979,0.4979,0.4929,0.4792,0.4658,0.4615,0.4608,0.4596,0.4618,0.4757,0.5059,0.5108,0.5233,0.0,0.0,0.0,0.6137,0.0,0.0,0.0,0.0,0.0,0.0,0.0,0.0,0.0,0.0,0.463,0.463,0.4237,0.3829,0.3339,0.2899,0.2527,0.2222,0.2222,0.2087,0.1818,0.0,0.0,0.0,0.0,0.0,0.0,-0.0202,-0.053,-0.0839,-0.1161,-0.1521,-0.1853,-0.1977,-0.2346,-0.2837,0.0,0.0,0.0,0.0,0.0,0.0,0.0,0.0,0.0,0.0,0.0,0.0,0.0,0.0,0.0,0.0,0.0,0.0,0.0,0.0,0.0,0.0,0.0,0.0,-0.0034,-0.0035,-0.0035,-0.0035,-0.0037,-0.0038,-0.0038,-0.0039,0.0079,0.0275,0.0275,0.051,0.0,0.0,0.0,0.0,0.0,0.0,0.0,0.0,0.0,0.0,0.0,0.0,0.0,0.0,0.0,0.0,0.0,0.0,0.0,0.0,0.0,0.0,0.0,0.422,0.4289,0.4289,0.4295,0.43,0.43,0.43,0.0,0.43,0.43,0.4355,0.4586,0.4621,0.4689,0.5049,0.5108,0.0,0.0,0.5607,0.0,0.0,0.0,0.0,0.0,0.0,0.0,0.0,0.0,0.0,0.0,0.0,0.0,0.4561,0.4207,0.3806,0.3366,0.2953,0.2592,0.2222,0.2222,0.2222,0.2155,0.0,0.0,0.0,0.0,0.0,0.0,0.0,-0.0199,-0.0517,-0.0839,-0.1204,-0.1544,-0.1853,-0.2222,-0.2529,0.0,0.0,0.0,0.0,0.0,0.0,0.0,0.0,0.0,0.0,0.0,0.0,0.0,0.0,0.0,0.0,0.0,0.0,0.0,0.0,0.0,0.0,0.0,0.0,-0.0243,-0.0384,-0.0465,-0.0447,-0.0452,-0.0382,-0.0234,-0.0235,-0.0118,0.0079,0.0079,0.0275,0.0,0.0,0.0,0.0,0.0,0.0,0.0,0.0,0.0,0.0,0.2243,0.2339,0.0,0.0,0.0,0.0,0.0,0.0,0.0,0.0,0.3149,0.3442,0.3667,0.0,0.4202,0.4202,0.4251,0.43,0.0,0.43,0.43,0.43,0.43,0.4355,0.4586,0.4621,0.4689,0.5049,0.5108,0.5233,0.5536,0.0,0.0,0.617,0.0,0.0,0.0,0.0,0.0,0.0,0.0,0.0,0.0,0.0,0.0,0.4442,0.4371,0.4149,0.3778,0.3331,0.2903,0.2559,0.2289,0.2222,0.0,0.0,0.0,0.0,0.0,0.0,0.0,0.0,-0.0199,-0.0517,-0.0839,-0.1204,-0.1544,-0.1853,-0.2222,-0.2529,0.0,0.0,0.0,0.0,0.0,0.0,0.0,0.0,0.0,0.0,0.0,0.0,0.0,0.0,0.0,0.0,0.0,0.0,0.0,0.0,0.0,0.0,0.0,-0.0345,-0.042,-0.0538,-0.0589,-0.0606,-0.0613,-0.0546,-0.0479,-0.0479,-0.0359,-0.016,0.0039,0.0275,0.0,0.0,0.0,0.0,0.1375,0.0,0.0,0.0,0.0,0.0,0.198,0.2006,0.0,0.2079,0.2171,0.2269,0.0,0.0,0.0,0.0,0.2826,0.3077,0.3199,0.3598,0.398,0.4067,0.4175,0.424,0.424,0.4271,0.43,0.43,0.43,0.4355,0.4586,0.4621,0.4689,0.5049,0.5108,0.0,0.0,0.0,0.618,0.0,0.0,0.0,0.0,0.0,0.0,0.0,0.0,0.0,0.0,0.0,0.0,0.0,0.4371,0.422,0.3879,0.3444,0.3027,0.2694,0.2357,0.2222,0.0,0.0,0.0,0.0,0.0,0.0,0.0,0.0,-0.0132,-0.0323,-0.0839,-0.114,-0.1359,-0.1791,-0.2099,-0.2345,0.0,0.0,0.0,0.0,0.0,0.0,0.0,0.0,0.0,0.0,0.0,0.0,0.0,0.0,0.0,0.0,0.0,0.0,0.0,0.0,0.0,0.0,-0.0346,-0.0456,-0.0634,-0.0665,-0.0683,-0.0723,-0.07,-0.0716,-0.0732,-0.0732,-0.061,-0.0366,0.004,0.0236,0.0,0.0,0.0,0.0,0.1135,0.0,0.0,0.0,0.0,0.0,0.0,0.0,0.0,0.1766,0.1879,0.2031,0.2031,0.0,0.0,0.0,0.0,0.0,0.277,0.3182,0.3622,0.3885,0.4051,0.4173,0.4173,0.4238,0.43,0.43,0.431,0.4371,0.4588,0.4631,0.4706,0.5053,0.0,0.0,0.5542,0.5943,0.0,0.0,0.0,0.0,0.0,0.0,0.0,0.0,0.0,0.0,0.0,0.0,0.0,0.0,0.4335,0.4172,0.3902,0.3498,0.3095,0.276,0.2425,0.2222,0.2222,0.2222,0.0,0.0,0.0,0.0,0.0067,0.0,0.0,-0.0065,-0.071,-0.095,-0.105,-0.1667,-0.1977,-0.2099,0.0,0.0,0.0,0.0,0.0,0.0,0.0,0.0,0.0,0.0,0.0,0.0,0.0,0.0,0.0,0.0,0.0,0.0,0.0,0.0,0.0,-0.0472,-0.0518,-0.0637,-0.0832,-0.1007,-0.1148,-0.1211,-0.1176,-0.1114,-0.0936,-0.0936,-0.0773,-0.0406,-0.0278,0.0,0.0314,0.0353,0.0589,0.0902,0.096,0.0,0.0,0.0,0.0,0.0,0.0,0.0,0.0,0.1635,0.1696,0.1763,0.1763,0.0,0.0,0.0,0.0,0.0,0.2625,0.2835,0.3069,0.3535,0.3792,0.3998,0.4173,0.4238,0.43,0.43,0.4361,0.4447,0.4553,0.4634,0.4779,0.5061,0.0,0.5522,0.0,0.0,0.0,0.0,0.0,0.0,0.0,0.0,0.0,0.0,0.0,0.0,0.0,0.0,0.0,0.0,0.0,0.4308,0.4239,0.3902,0.3499,0.3095,0.276,0.2492,0.2222,0.2222,0.1953,0.0,0.0,0.0,0.0404,0.0135,0.0,-0.0065,-0.0452,-0.0761,-0.105,-0.142,-0.1729,-0.2099,0.0,0.0,0.0,0.0,0.0,0.0,0.0,0.0,0.0,0.0,0.0,0.0,0.0,0.0,0.0,0.0,0.0,0.0,0.0,0.0,-0.0371,-0.0506,-0.0666,-0.0864,-0.1056,-0.1175,-0.1282,-0.1296,-0.1296,-0.1241,-0.1161,-0.1036,-0.0824,-0.0569,-0.0397,-0.0118,0.0157,0.0236,0.039,0.0577,0.0,0.0,0.0,0.0,0.0,0.0,0.0,0.0,0.0,0.0,0.139,0.1474,0.1474,0.0,0.0,0.0,0.0,0.0,0.2386,0.2543,0.2714,0.3061,0.3467,0.3798,0.3927,0.4114,0.4312,0.4363,0.436,0.4433,0.462,0.4679,0.4796,0.5065,0.0,0.5584,0.0,0.0,0.0,0.0,0.0,0.0,0.0,0.0,0.0,0.0,0.0,0.0,0.0,0.0,0.0,0.0,0.0,0.0,0.4308,0.4172,0.3768,0.3228,0.2828,0.2492,0.2222,0.2222,0.1953,0.0,0.0,0.0875,0.0471,0.0133,0.0,-0.0065,-0.0384,-0.0693,-0.105,-0.1606,-0.1976,-0.2345,0.0,0.0,0.0,0.0,0.0,0.0,0.0,0.0,0.0,0.0,0.0,0.0,0.0,0.0,0.0,0.0,0.0,0.0,0.0,0.0,-0.0404,-0.0506,-0.0776,-0.1014,-0.1203,-0.1265,-0.1296,-0.1296,-0.1296,-0.1285,-0.1296,-0.1128,-0.0952,-0.0772,-0.0476,-0.0275,-0.0039,0.0157,0.0271,0.0303,0.0,0.0,0.0,0.0,0.0,0.0,0.0,0.0,0.0,0.0,0.0,0.0,0.0,0.0,0.0,0.1597,0.1795,0.2013,0.2062,0.2255,0.2458,0.2644,0.31,0.3571,0.3613,0.3968,0.4258,0.4328,0.4423,0.4495,0.4681,0.4761,0.0,0.5102,0.5366,0.0,0.0,0.0,0.0,0.0,0.0,0.0,0.0,0.0,0.0,0.0,0.0,0.0,0.0,0.0,0.0,0.0,0.0,0.0,0.4308,0.4293,0.3957,0.3363,0.2961,0.2626,0.2289,0.2222,0.202,0.175,0.1346,0.1008,0.0602,0.0265,0.0065,0.0,-0.0254,-0.0626,-0.1111,-0.1729,-0.216,-0.2405,0.0,0.0,0.0,0.0,0.0,0.0,0.0,0.0,0.0,0.0,0.0,0.0,0.0,0.0,0.0,0.0,0.0,0.0,0.0,0.0,-0.0506,-0.0506,-0.0865,-0.1138,-0.1202,-0.1265,-0.1296,-0.1296,-0.1296,-0.1314,-0.1306,-0.1265,-0.1182,-0.0975,-0.0715,-0.0471,-0.0275,-0.0079,0.0116,0.0302,0.0332,0.0,0.0,0.0,0.0,0.0,0.0,0.0,0.0,0.0,0.0,0.0,0.0,0.0,0.118,0.1281,0.1378,0.1488,0.1671,0.1975,0.2228,0.2327,0.2686,0.3114,0.336,0.3793,0.4103,0.4108,0.4427,0.4694,0.4706,0.4912,0.5114,0.5164,0.5409,0.0,0.0,0.0,0.0,0.0,0.0,0.0,0.0,0.0,0.0,0.0,0.0,0.0,0.0,0.0,0.0,0.0,0.0,0.0,0.4308,0.4252,0.4052,0.3768,0.3363,0.2961,0.2627,0.2357,0.2155,0.2155,0.175,0.1403,0.1056,0.0659,0.0259,0.0,0.0,-0.0438,-0.1111,-0.1729,-0.2038,-0.2095,0.0,0.0,0.0,0.0,0.0,0.0,0.0,0.0,0.0,0.0,0.0,0.0,0.0,0.0,0.0,0.0,0.0,0.0,0.0,-0.0367,-0.0539,-0.0674,-0.0967,-0.1126,-0.1138,-0.1198,-0.1277,-0.1296,-0.1316,-0.1281,-0.1314,-0.1294,-0.1171,-0.0915,-0.0828,-0.0589,-0.0314,-0.0232,-0.0076,0.0111,0.0108,0.0245,0.0,0.0,0.0,0.0,0.0,0.0,0.0,0.0,0.074,0.074,0.074,0.0808,0.0909,0.0977,0.1167,0.141,0.1557,0.1747,0.1993,0.225,0.2482,0.2742,0.312,0.3523,0.3851,0.3901,0.409,0.4296,0.4603,0.4898,0.5139,0.5176,0.0,0.0,0.0,0.0,0.0,0.0,0.0,0.0,0.0,0.0,0.0,0.0,0.0,0.0,0.0,0.0,0.0,0.0,0.0,0.0,0.0,0.4172,0.4107,0.3997,0.3408,0.2951,0.2623,0.2295,0.2164,0.2098,0.1704,0.1373,0.1039,0.0644,0.0319,0.0,-0.025,-0.0621,-0.105,-0.1544,-0.178,-0.2007,0.0,0.0,0.0,0.0,0.0,0.0,0.0,0.0,0.0,0.0,0.0,0.0,0.0,0.0,0.0,0.0,0.0,0.0,-0.0255,-0.0426,-0.0599,-0.0799,-0.0989,-0.1111,-0.1086,-0.1161,-0.1202,-0.1281,-0.1273,-0.1317,-0.1297,-0.1319,-0.1197,-0.1021,-0.0943,-0.0704,-0.0388,-0.0343,-0.0186,0.0,0.0,0.0069,0.0,0.0,0.0,0.0,0.0,0.0,0.0,0.0,0.0499,0.0499,0.0499,0.0602,0.0708,0.0708,0.0956,0.1221,0.13,0.1514,0.1787,0.2023,0.2203,0.2376,0.2857,0.3279,0.3657,0.3708,0.386,0.4081,0.4421,0.4669,0.0,0.0,0.0,0.0,0.0,0.0,0.0,0.0,0.0,0.0,0.0,0.0,0.0,0.0,0.0,0.0,0.0,0.0,0.0,0.0,0.0,0.0,0.0,0.4106,0.4097,0.4033,0.3506,0.307,0.2774,0.2386,0.2193,0.2064,0.1805,0.1415,0.096,0.0761,0.0378,-0.0063,-0.0372,-0.0679,-0.1049,-0.1351,-0.1644,-0.1928,0.0,0.0,0.0,0.0,0.0,0.0,0.0,0.0,0.0,0.0,0.0,0.0,0.0,0.0,0.0,0.0,0.0,0.0,-0.0185,-0.0381,-0.0581,-0.0807,-0.0994,-0.1089,-0.1085,-0.1086,-0.1151,-0.1212,-0.1281,-0.1296,-0.1296,-0.1296,-0.1296,-0.1296,-0.1021,-0.0775,-0.0606,-0.0378,-0.0184,0.0,0.0,0.0,0.0,0.0,0.0,0.0,0.0,0.0,0.0,0.0,0.0484,0.0484,0.0484,0.0494,0.0506,0.0506,0.064,0.0819,0.0863,0.1203,0.1532,0.1644,0.1849,0.2096,0.2511,0.3055,0.3479,0.3482,0.3793,0.4119,0.4247,0.4322,0.0,0.0,0.0,0.0,0.0,0.0,0.0,0.0,0.0,0.0,0.0,0.0,0.0,0.0,0.0,0.0,0.0,0.0,0.0,0.0,0.0,0.0,0.0,0.4001,0.3971,0.397,0.3665,0.3385,0.3096,0.2773,0.2386,0.2128,0.2128,0.1663,0.101,0.101,0.0626,-0.0062,-0.037,-0.0679,-0.1047,-0.1275,-0.1629,-0.1861,0.0,0.0,0.0,0.0,0.0,0.0,0.0,0.0,0.0,0.0,0.0,0.0,0.0,0.0,0.0,0.0,0.0,0.0,-0.0388,-0.0461,-0.0632,-0.0936,-0.1009,-0.1059,-0.1089,-0.111,-0.1151,-0.1212,-0.1281,-0.1296,-0.1296,-0.1296,-0.1296,-0.1296,-0.1218,-0.1046,-0.0794,-0.0594,-0.0398,-0.021,-0.0069,0.0,0.0,0.0,0.0,0.0,0.0,0.0,0.0,0.0,0.0,0.0,0.016,0.026,0.0361,0.0369,0.0472,0.0614,0.0683,0.0875,0.1158,0.1438,0.1639,0.1882,0.2236,0.2632,0.3024,0.3258,0.3556,0.3857,0.3981,0.416,0.0,0.0,0.0,0.0,0.0,0.0,0.0,0.0,0.0,0.0,0.0,0.0,0.0,0.0,0.0,0.0,0.0,0.0,0.0,0.0,0.0,0.0,0.0,0.0,0.3914,0.3914,0.3834,0.3534,0.3001,0.2688,0.2376,0.2003,0.2003,0.1748,0.1306,0.087,0.0372,0.0,-0.0123,-0.0491,-0.0911,-0.1027,-0.1368,-0.1807,0.0,0.0,0.0,0.0,0.0,0.0,0.0,0.0,0.0,0.0,0.0421,0.028,0.0,0.0,0.0,0.0,0.0,0.0,0.0,-0.0477,-0.0642,-0.0934,-0.0989,-0.1047,-0.1109,-0.1105,-0.1103,-0.1176,-0.1218,-0.1278,-0.1278,-0.1291,-0.1296,-0.1295,-0.1284,-0.1108,-0.0894,-0.0762,-0.0565,-0.0276,-0.017,-0.0067,0.0,0.0,0.0,0.0,0.0,0.0,0.0,0.0,0.0,0.0,0.0,0.0095,0.0194,0.0165,0.0301,0.0443,0.0467,0.0619,0.0822,0.1069,0.1261,0.1544,0.1984,0.2329,0.2625,0.2959,0.3226,0.3441,0.3663,0.3837,0.0,0.0,0.0,0.0,0.0,0.0,0.0,0.0,0.0,0.0,0.0,0.0,0.0,0.0,0.0,0.0,0.0,0.0,0.0,0.0,0.0,0.0,0.0,0.0,0.0,0.3889,0.3889,0.358,0.3023,0.2775,0.2469,0.1977,0.1853,0.1606,0.1235,0.0741,0.0309,0.0,0.0,-0.0365,-0.0904,-0.0892,-0.1286,-0.1781,0.0,0.0,0.0,0.0,0.0,0.0,0.0,0.0,0.0,0.0,0.028,0.0196,0.0,0.0,0.0,0.0,0.0,0.0,0.0,0.0,-0.0646,-0.0884,-0.097,-0.1013,-0.1104,-0.1102,-0.1117,-0.1117,-0.1178,-0.1208,-0.1209,-0.1274,-0.1288,-0.1287,-0.122,-0.1079,-0.0906,-0.0921,-0.069,-0.0303,-0.0303,-0.0165,0.0,0.0,0.0,0.0,0.0,0.0,0.0,0.0,0.0,0.0,-0.0029,-0.0031,-0.0032,-0.0032,0.0099,0.0272,0.0287,0.0437,0.0598,0.0659,0.0846,0.1129,0.1688,0.2032,0.2317,0.2663,0.2816,0.2972,0.3288,0.0,0.0,0.0,0.0,0.0,0.0,0.0,0.0,0.0,0.0,0.0,0.0,0.0,0.0,0.0,0.0,0.0,0.0,0.0,0.0,0.0,0.0,0.0,0.0,0.0,0.0,0.0,0.0,0.3573,0.3017,0.3021,0.2654,0.1977,0.1667,0.1359,0.0988,0.0678,0.0308,0.0,0.0,-0.0361,-0.0838,-0.0872,-0.1264,-0.1775,0.0,0.0,0.0,0.0,0.0,0.0,0.0,0.0,0.0,0.0,0.0,0.0,0.0,0.0,0.0,0.0,0.0,0.0,0.0,0.0,-0.0717,-0.0883,-0.097,-0.1004,-0.101,-0.1071,-0.1085,-0.1085,-0.1182,-0.1213,-0.1213,-0.122,-0.1223,-0.1222,-0.1216,-0.1159,-0.106,-0.0948,-0.0725,-0.0437,-0.0329,-0.0195,0.0,0.0,0.0,0.0,0.0,0.0,0.0,0.0,0.0,0.0,-0.0321,-0.0327,-0.0304,-0.0191,-0.013,-0.0066,0.0036,0.0219,0.0373,0.0453,0.0656,0.0915,0.1278,0.1404,0.1628,0.2362,0.256,0.2649,0.2972,0.0,0.0,0.0,0.0,0.0,0.0,0.0,0.0,0.0,0.0,0.0,0.0,0.0,0.0,0.0,0.0,0.0,0.0,0.0,0.0,0.0,0.0,0.0,0.3889,0.3889,0.3889,0.0,0.3902,0.3697,0.3334,0.3067,0.2654,0.1977,0.1915,0.1544,0.0987,0.0914,0.0546,0.0,0.0,-0.0235,-0.0522,-0.0807,-0.1141,-0.1466,0.0,0.0,0.0,0.0,0.0,0.0,0.0,0.0,0.0,0.0,0.0,0.0,0.0,0.0,0.0,0.0,0.0,0.0,0.0,0.0,-0.0768,-0.0883,-0.0943,-0.0966,-0.1012,-0.1041,-0.1056,-0.1056,-0.1135,-0.1165,-0.1145,-0.1196,-0.1203,-0.1202,-0.1151,-0.1136,-0.1085,-0.1036,-0.0853,-0.0639,-0.0458,-0.0288,-0.0126,-0.0122,-0.0089,-0.0115,-0.0259,0.0,0.0,0.0,0.0,0.0,0.0,0.0,-0.0386,-0.0306,-0.0316,-0.0294,-0.0138,-0.0036,0.0075,0.0329,0.0526,0.0687,0.0936,0.101,0.1132,0.1541,0.1972,0.2362,0.0,0.0,0.0,0.0,0.0,0.0,0.0,0.0,0.0,0.0,0.0,0.0,0.0,0.0,0.0,0.0,0.0,0.0,0.0,0.0,0.0,0.0,0.0,0.0,0.3907,0.3877,0.3864,0.3864,0.3831,0.3578,0.31,0.2827,0.2415,0.1933,0.1933,0.1692,0.1207,0.1017,0.0656,0.0179,0.0059,-0.0174,-0.046,-0.0798,-0.1073,-0.1346,0.0,0.0,0.0,0.0,0.0,0.0,0.0,0.0,0.0,0.0,0.0,0.0,0.0,0.0,0.0,0.0,0.0,0.0,0.0,0.0,0.0,-0.0905,-0.0911,-0.0925,-0.098,-0.0979,-0.0994,-0.0994,-0.1054,-0.1081,-0.1072,-0.1137,-0.1187,-0.1186,-0.1125,-0.1113,-0.1112,-0.1087,-0.0973,-0.0801,-0.0616,-0.0472,-0.0305,-0.0266,-0.023,-0.0252,-0.0393,-0.0449,-0.0449,-0.0477,0.0,0.0,0.0,0.0,-0.0468,-0.0471,-0.0491,-0.0484,-0.0301,-0.0318,-0.0264,0.0163,0.0259,0.0359,0.0641,0.071,0.073,0.0781,0.1343,0.0,0.0,0.0,0.0,0.0,0.0,0.0,0.0,0.0,0.0,0.0,0.0,0.0,0.0,0.0,0.0,0.0,0.0,0.0,0.0,0.0,0.0,0.0,0.0,0.3905,0.3905,0.3854,0.3829,0.3829,0.3759,0.3454,0.286,0.2512,0.217,0.1886,0.1886,0.1709,0.1355,0.1057,0.0704,0.0351,0.0115,-0.0114,-0.0343,-0.0676,-0.1009,-0.129,0.0,0.0,0.0,0.0,0.0,0.0,0.0,0.0,0.0,0.0,0.0,0.0,0.0,0.0,0.0,0.0,0.0,0.0,0.0,0.0,0.0,-0.0903,-0.09,-0.0915,-0.0919,-0.0979,-0.0994,-0.0994,-0.1024,-0.1009,-0.1013,-0.1074,-0.1122,-0.1121,-0.1118,-0.1116,-0.1116,-0.1111,-0.0995,-0.081,-0.0786,-0.061,-0.0384,-0.0372,-0.0366,-0.0393,-0.0589,-0.0673,-0.0673,-0.0785,-0.0842,0.0,0.0,0.0,-0.0823,-0.0701,-0.0665,-0.0629,-0.0499,-0.0508,-0.0507,-0.0277,-0.0208,-0.0088,0.0359,0.0459,0.0516,0.0,0.0,0.0,0.0,0.0,0.0,0.0,0.0,0.0,0.0,0.0,0.0,0.0,0.0,0.0,0.0,0.0,0.0,0.0,0.0,0.0,0.0,0.0,0.384,0.384,0.384,0.0,0.384,0.3833,0.3829,0.3827,0.3715,0.3491,0.3046,0.2767,0.2352,0.1886,0.1886,0.1709,0.1354,0.1045,0.0692,0.0346,0.0113,0.0,-0.0112,-0.0337,-0.0673,-0.1009,0.0,0.0,0.0,0.0,0.0,0.0,0.0,0.0,0.0,0.0,0.0,0.0,0.0,0.0,0.0,0.0,0.0,0.0,0.0,0.0,0.0,-0.0898,-0.0911,-0.0889,-0.0889,-0.0918,-0.0932,-0.0932,-0.0993,-0.0985,-0.1002,-0.1046,-0.1061,-0.1109,-0.1109,-0.1109,-0.1109,-0.1109,-0.1026,-0.0902,-0.0844,-0.0697,-0.0558,-0.0568,-0.0561,-0.0589,-0.0757,-0.0813,-0.0814,-0.087,-0.0898,-0.0898,-0.0898,0.0,0.0,0.0,-0.0821,-0.0796,-0.0694,-0.06,-0.0522,-0.0466,-0.0482,-0.0417,-0.0262,-0.009,0.0046,0.0,0.0,0.0,0.0,0.0,0.0,0.0,0.0,0.0,0.0,0.0,0.0,0.0,0.0,0.0,0.0,0.0,0.0,0.0,0.0,0.0,0.0,0.37,0.3718,0.3718,0.3718,0.0,0.3718,0.3684,0.3668,0.3668,0.364,0.3443,0.3081,0.2805,0.2489,0.2064,0.1892,0.1778,0.1604,0.1081,0.0794,0.0623,0.0169,0.0,-0.0056,-0.028,-0.0505,-0.0673,0.0,0.0,0.0,0.0,0.0,0.0,0.0,0.0,0.0,0.0,0.0,0.0,0.0,0.0,0.0,0.0,0.0,0.0,0.0,0.0,0.0,-0.0898,-0.0898,-0.0898,-0.0898,-0.0891,-0.0902,-0.0902,-0.0962,-0.0988,-0.0979,-0.0987,-0.1033,-0.1087,-0.1102,-0.1109,-0.1109,-0.1068,-0.1048,-0.0987,-0.0865,-0.0809,-0.0754,-0.0764,-0.0757,-0.0757,-0.087,-0.0898,-0.0898,-0.0898,-0.0898,-0.0898,-0.0898,-0.0898,0.0,0.0,0.0,-0.0901,-0.0849,-0.0748,-0.0669,-0.0639,-0.0658,-0.0677,-0.0671,0.0,-0.04,0.0,0.0,0.0,0.0,0.0,0.0,0.0,0.0,0.0,0.0,0.0,0.0,0.0,0.0,0.0,0.0,0.0,0.0,0.0,0.0,0.0,0.3587,0.3631,0.3655,0.3655,0.3655,0.3655,0.3655,0.3609,0.3587,0.3587,0.3587,0.3475,0.3194,0.2861,0.2581,0.23,0.1964,0.1795,0.1739,0.1234,0.0953,0.0841,0.0336,0.0056,0.0,-0.0224,-0.0336,-0.0449,0.0,0.0,0.0,0.0,0.0,0.0,0.0,0.0,0.0,0.0,0.0,0.0,0.0,0.0,-0.0056,-0.0196,-0.0336,0.0,0.0,0.0,0.0,-0.0898,-0.0898,0.0,-0.0898,-0.0899,-0.09,-0.09,-0.0901,-0.0917,-0.0919,-0.0977,-0.0991,-0.0995,-0.1084,-0.1109,-0.1107,-0.1047,-0.1018,-0.0988,-0.0928,-0.0898,-0.09,-0.0898,-0.0898,-0.0898,-0.0898,-0.0898,-0.0898,-0.0898,-0.0898,-0.0898,0.0,-0.0898,-0.0898,0.0,0.0,0.0,-0.0987,-0.1024,-0.1018,-0.084,-0.082,-0.0826,0.0,0.0,0.0,0.0,0.0,0.0,0.0,0.0,0.0,0.0,0.0,0.0,0.0,0.0,0.0,0.0,0.0,0.0,0.0,0.0,0.0,0.0,0.0,0.0,0.3587,0.359,0.3593,0.3593,0.3593,0.3593,0.3593,0.3589,0.3587,0.3587,0.3587,0.3587,0.3531,0.2974,0.2693,0.2637,0.2076,0.1795,0.1795,0.1402,0.1121,0.0841,0.0505,0.0224,0.0,0.0,-0.0168,-0.0393,0.0,0.0,0.0,0.0,0.0,0.0,0.0,0.0,0.0,0.0,0.0,0.0,0.0,0.0,-0.0084,-0.0308,-0.0561,0.0,0.0,0.0,0.0,-0.0898,-0.0898,-0.0898,-0.0898,-0.0898,-0.0898,-0.0898,-0.0909,-0.0895,-0.0914,-0.0924,-0.0969,-0.0989,-0.101,-0.1052,-0.1019,-0.1009,-0.0987,-0.0928,-0.0918,-0.0907,-0.0897,-0.0897,-0.0939,-0.0956,-0.0956,-0.0956,-0.0956,-0.0956,0.0,0.0,-0.0897,-0.0913,-0.0898,-0.0898,-0.089,-0.0918,-0.0939,-0.098,-0.1023,-0.0983,-0.1025,-0.1037,-0.105,-0.0915,0.0,0.0,0.0,0.0,0.0,0.0,0.0,0.0,0.0,0.0,0.0,0.0,0.0,0.0,0.0,0.0,0.0,0.0,0.0,0.0,0.0,0.0,0.3476,0.3476,0.3476,0.3476,0.3476,0.3476,0.3476,0.3476,0.3476,0.3476,0.3476,0.3476,0.3476,0.3096,0.2787,0.2595,0.2208,0.1944,0.1795,0.1458,0.1121,0.0841,0.0505,0.0224,0.0,0.0,-0.0056,-0.0166,0.0,0.0,0.0,0.0,0.0,0.0,0.0,0.0,0.0,0.0,0.0,0.0,0.0,0.0,-0.0112,-0.0364,-0.0701,-0.0898,-0.0898,-0.0898,-0.0898,-0.0898,-0.0898,-0.0898,-0.0898,-0.0898,-0.0898,-0.0898,-0.0898,-0.0908,-0.0899,-0.0899,-0.0939,-0.0958,-0.0958,-0.0969,-0.0988,-0.0977,-0.0931,-0.0913,-0.0913,-0.0913,-0.0915,-0.0924,-0.0971,-0.0988,-0.0988,-0.0988,0.0,0.0,0.0,0.0,-0.0917,-0.0893,-0.0898,-0.0898,-0.0912,-0.0901,-0.0911,-0.0942,-0.0981,-0.1052,-0.1084,-0.1125,-0.1196,0.0,0.0,0.0,0.0,0.0,0.0,0.0,0.0,0.0,0.0,0.0,0.0,0.0,0.0,0.0,0.0,0.0,0.0,0.0,0.0,0.0,0.0,0.0,0.3413,0.3413,0.3413,0.3413,0.3413,0.3413,0.3413,0.3413,0.3413,0.3413,0.3413,0.3413,0.3413,0.3145,0.2843,0.2602,0.2277,0.2032,0.1795,0.157,0.129,0.1009,0.0669,0.0389,0.0111,0.0055,0.0,0.0,0.0,0.0,0.0,0.0,0.0,0.0,0.0,0.0,0.0,0.0,0.0,0.0,0.0,0.0,0.0,-0.0393,-0.0701,-0.0898,-0.0898,-0.0898,-0.0898,-0.0898,0.0,0.0,-0.0896,-0.0896,-0.0896,-0.0896,-0.0896,-0.0896,-0.0898,-0.0898,-0.0898,-0.0898,-0.0898,-0.093,-0.0984,-0.0924,-0.0912,-0.0912,-0.0913,-0.0914,-0.0918,-0.0978,-0.099,-0.099,-0.099,-0.099,0.0,-0.099,0.0,0.0,-0.0923,-0.0893,-0.0898,-0.0898,-0.0898,-0.0904,0.0,0.0,0.0,-0.0985,0.0,0.0,-0.1112,0.0,0.0,0.0,0.0,0.0,0.0,0.0,0.0,0.0,0.0,0.0,0.0,0.0,0.0,0.0,0.0,0.0,0.0,0.0,0.0,0.0,0.0,0.3407,0.3407,0.3407,0.3407,0.3407,0.3407,0.3407,0.3407,0.3407,0.3407,0.3407,0.3407,0.3407,0.3406,0.314,0.2875,0.2609,0.2235,0.2009,0.1792,0.1792,0.1624,0.1286,0.0989,0.071,0.0382,0.0107,0.0,0.0,0.0,0.0,0.0,0.0,0.0,0.0,0.0,0.0,0.0,0.0,0.0,0.0,0.0,-0.0168,-0.0364,-0.0589,-0.0785,-0.0898,-0.0898,-0.0898,-0.0898,-0.0898,-0.0898,-0.0887,-0.0892,-0.0892,-0.0892,-0.0892,-0.0892,-0.0903,-0.0898,-0.0898,-0.0898,-0.0898,-0.0898,-0.0907,-0.0922,-0.0913,-0.091,-0.0912,-0.0905,-0.0926,-0.098,-0.0978,0.0,0.0,0.0,-0.1085,-0.1085,0.0,-0.1038,-0.0981,-0.0929,-0.0907,-0.0897,-0.0904,-0.0898,-0.0899,-0.0907,0.0,0.0,0.0,0.0,0.0,0.0,0.0,0.0,0.0,0.0,0.0,0.0,0.0,0.0,0.0,0.0,0.0,0.0,0.0,0.0,0.0,0.0,0.0,0.0,0.0,0.0,0.0,0.0,0.323,0.323,0.323,0.323,0.323,0.323,0.323,0.323,0.323,0.323,0.323,0.323,0.323,0.323,0.3178,0.3046,0.2823,0.2508,0.2223,0.1999,0.1783,0.1568,0.1298,0.1022,0.0698,0.0376,0.0107,0.0,0.0,0.0,0.0,0.0,0.0,0.0,0.0,0.0,0.0,0.0,0.0,0.0,0.0,-0.0117,-0.0321,-0.0523,-0.0688,-0.083,-0.0911,-0.0898,-0.0898,-0.0898,-0.0898,-0.0898,-0.0889,-0.0898,-0.0913,-0.0905,-0.0905,-0.0866,-0.0869,-0.086,-0.086,-0.0866,-0.0906,-0.0906,-0.0913,-0.0898,-0.0898,-0.0898,-0.0901,-0.0945,-0.0973,0.0,-0.1035,-0.1069,0.0,0.0,0.0,-0.1146,-0.1099,-0.1067,0.0,0.0,-0.0942,-0.0926,-0.0897,-0.0887,-0.0913,-0.0901,-0.0911,-0.0898,-0.0911,0.0,0.0,-0.1048,-0.1072,0.0,0.0,0.0,0.0,0.0,0.0,0.0,0.0,0.0,0.0,0.0,0.0,0.0,0.0,0.0,0.0,0.0,0.0,0.0,0.0,0.2881,0.3103,0.3179,0.318,0.318,0.318,0.318,0.318,0.318,0.318,0.318,0.318,0.318,0.318,0.318,0.318,0.3097,0.2821,0.2564,0.2322,0.2033,0.1772,0.1578,0.1438,0.1164,0.0897,0.058,0.0262,0.0104,0.0,0.0,0.0,0.0,0.0,0.0,0.0,0.0,0.0,0.0,0.0,0.0,-0.0093,-0.0309,-0.0432,-0.055,-0.0713,-0.0829,-0.0905,-0.0905,-0.0902,-0.0901,-0.0898,-0.0898,-0.0896,-0.0892,-0.0893,-0.0904,-0.09,-0.082,-0.0806,-0.0806,-0.0806,-0.0823,-0.0905,-0.0905,-0.0896,-0.0898,-0.0898,-0.09,-0.0907,-0.0965,-0.099,0.0,0.0,-0.1097,-0.1086,-0.1125,-0.1143,-0.1198,-0.1131,-0.1053,0.0,0.0,0.0,0.0,0.0,-0.0918,-0.0912,-0.0911,-0.0902,-0.0909,-0.0903,0.0,0.0,-0.098,-0.0996,0.0,0.0,0.0,0.0,0.0,0.0,0.0,0.0,0.0,0.0,0.0,0.0,0.0,0.0,0.0,0.0,0.0,0.0,0.0,0.229,0.2616,0.2956,0.3157,0.321,0.321,0.321,0.321,0.3214,0.3169,0.3171,0.3173,0.318,0.318,0.318,0.318,0.318,0.3079,0.2826,0.2573,0.2271,0.2021,0.1768,0.1647,0.1639,0.1406,0.1139,0.0878,0.0559,0.0253,0.0051,0.0,0.0,0.0,0.0,0.0,0.0,0.0,0.0,0.0,0.0,0.0,-0.0123,-0.0432,-0.0494,-0.0616,-0.0918,-0.098,-0.0967,-0.0907,-0.0905,-0.0894,-0.0898,-0.0898,-0.0914,-0.0888,-0.0909,-0.0867,-0.0815,-0.081,-0.0806,-0.0806,-0.0806,-0.0823,-0.0905,-0.0905,-0.0896,-0.0898,-0.0898,-0.0911,-0.0908,-0.0973,0.0,-0.0999,-0.109,-0.1116,-0.1124,-0.1149,-0.1198,-0.1198,-0.1131,-0.1078,-0.1062,0.0,0.0,0.0,-0.0988,0.0,-0.0973,-0.0913,-0.0905,-0.0901,0.0,0.0,0.0,-0.0928,-0.0967,-0.1004,0.0,0.0,0.0,0.0,0.0,0.0,0.0,0.0,0.0,0.0,0.0,0.0,0.0,0.0,0.0,0.0,0.0,0.2004,0.229,0.2775,0.3072,0.3133,0.3133,0.3133,0.3133,0.3133,0.3108,0.3108,0.3108,0.3133,0.318,0.318,0.318,0.318,0.318,0.318,0.313,0.2826,0.2574,0.2321,0.2021,0.1826,0.1582,0.1322,0.1168,0.1117,0.0809,0.0556,0.0303,0.0,0.0,0.0,0.0,0.0,0.0,0.0,0.0,0.0,0.0,0.0,-0.0132,-0.0494,-0.0534,-0.0698,-0.1034,-0.1064,-0.1013,-0.0969,-0.0936,-0.0922,-0.0893,-0.0891,-0.0906,-0.0903,-0.0886,-0.0871,-0.0855,-0.0814,-0.08,-0.081,-0.08,-0.0815,-0.0856,-0.0898,-0.0896,-0.0898,-0.0898,-0.0866,-0.0816,-0.0828,0.0,-0.0877,-0.0824,-0.0812,-0.086,-0.0994,-0.1114,-0.1187,-0.1171,-0.111,0.0,0.0,-0.1033,-0.1048,0.0,-0.1011,-0.1004,0.0,0.0,0.0,-0.0899,0.0,0.0,0.0,-0.0936,-0.0966,0.0,0.0,0.0,0.0,0.0,0.0,0.0,0.0,0.0,0.0,0.0,0.0,0.0,0.0,0.0,0.0,0.0,0.1839,0.2206,0.2724,0.3063,0.3095,0.3097,0.3097,0.3097,0.3097,0.3112,0.3094,0.3094,0.3125,0.3136,0.3136,0.3152,0.318,0.318,0.318,0.318,0.2927,0.2725,0.2574,0.2172,0.1921,0.1768,0.1516,0.1314,0.1162,0.1061,0.0808,0.0606,0.0,0.0,0.0,0.0,0.0,0.0,0.0,0.0,0.0,0.0,0.0,-0.0141,-0.0565,-0.0612,-0.0752,-0.1097,-0.1127,-0.1101,-0.1009,-0.1005,-0.0989,-0.0924,-0.0917,-0.0902,-0.0907,-0.0904,-0.0912,-0.0905,-0.0853,-0.0801,-0.0798,-0.0796,-0.081,-0.0817,-0.0867,-0.0896,-0.0898,-0.087,0.0,-0.0679,0.0,-0.0663,-0.0721,-0.0588,-0.0537,-0.0622,-0.0792,-0.0953,-0.1067,-0.11,-0.1065,-0.1058,-0.1053,-0.1066,0.0,0.0,0.0,0.0,0.0,0.0,0.0,0.0,0.0,-0.0913,0.0,0.0,0.0,0.0,0.0,0.0,0.0,0.0,0.0,0.0,0.0,0.0,0.0,0.0,0.0,0.0,0.0,0.0,0.0,0.0,0.1708,0.2132,0.2635,0.2979,0.3041,0.3044,0.3051,0.3062,0.3062,0.3068,0.3079,0.3079,0.3111,0.3123,0.3123,0.3105,0.3162,0.3162,0.3169,0.318,0.2977,0.2826,0.2775,0.2272,0.2071,0.1971,0.1718,0.1465,0.1263,0.1263,0.1111,0.0859,0.0,0.0,0.0,0.0,0.0,0.0,0.0,0.0,0.0,0.0,0.0,-0.0145,-0.0544,-0.0582,-0.0763,-0.1157,-0.1192,-0.1165,-0.1103,-0.1099,-0.1073,-0.0986,-0.0927,-0.0912,-0.0908,-0.0908,-0.0907,-0.0905,-0.0902,-0.0858,-0.0802,-0.0805,-0.0821,-0.09,-0.0904,-0.0896,-0.0898,-0.0785,-0.0699,0.0,-0.037,-0.0383,0.0,-0.0569,-0.0582,-0.0587,-0.0616,-0.0665,-0.0663,0.0,-0.078,-0.0903,0.0,-0.0963,-0.1109,-0.1105,0.0,0.0,0.0,0.0,0.0,0.0,-0.0932,0.0,0.0,0.0,0.0,0.0,0.0,0.0,0.0,0.0,0.0,0.0,0.0,0.0,0.0,0.0,0.0,0.0,0.0,0.0,0.0,0.0,0.0,0.1998,0.2467,0.2749,0.2811,0.2813,0.2882,0.2938,0.2939,0.2964,0.3014,0.3015,0.3045,0.3108,0.3108,0.3091,0.3101,0.3101,0.313,0.318,0.318,0.3027,0.2775,0.2472,0.2222,0.1971,0.1718,0.1566,0.1566,0.1566,0.1364,0.1162,0.0,0.0,0.0,0.0,0.0,0.0,0.0,0.0,0.0,0.0,0.0,-0.015,-0.0608,-0.0656,-0.0812,-0.1221,-0.1258,-0.1231,0.0,0.0,-0.1136,-0.1074,-0.1027,-0.0965,-0.0915,-0.0901,-0.0909,-0.0906,-0.0906,-0.089,-0.086,-0.0851,-0.0884,-0.0906,-0.0898,-0.0913,-0.0898,0.0,-0.0622,0.0,0.0,0.0,0.0,-0.025,-0.0334,-0.042,-0.0429,-0.051,-0.0588,0.0,-0.0647,0.0,0.0,0.0,0.0,0.0,0.0,0.0,0.0,0.0,0.0,0.0,0.0,0.0,-0.0943,0.0,-0.0977,0.0,0.0,0.0,0.0,0.0,0.0,0.0,0.0,0.0,0.0,0.0,0.0,0.0,0.0,0.0,0.0,0.0,0.0,0.0,0.0,0.2703,0.2729,0.273,0.2759,0.2819,0.2822,0.2895,0.2954,0.2954,0.2985,0.3043,0.3043,0.3075,0.3089,0.3124,0.3105,0.313,0.3165,0.313,0.3027,0.2725,0.2574,0.2424,0.2021,0.1718,0.1617,0.1617,0.1516,0.1415,0.0,0.0,0.0,0.0,0.0,0.0,0.0,0.0,0.0,0.0,0.0,-0.0195,-0.0639,-0.0691,-0.0857,-0.1284,-0.1282,-0.1295,0.0,0.0,-0.1201,-0.1137,0.0,0.0,-0.095,-0.0933,-0.0911,-0.091,-0.091,-0.0894,-0.0892,-0.0887,-0.0913,-0.0893,-0.0887,-0.087,-0.0844,0.0,-0.051,-0.0341,-0.0191,-0.0099,0.0,0.0,-0.0075,-0.0236,-0.0236,-0.0314,-0.0432,-0.0432,-0.0464,0.0,-0.0519,0.0,0.0,0.0,0.0,0.0,-0.0674,0.0,0.0,0.0,0.0,0.0,0.0,0.0,0.0,0.0,0.0,0.0,0.0,0.0,0.0,-0.05,0.0,0.0,0.0,0.0,0.0,0.0,0.0,0.0,0.0,0.0,0.0,0.0,0.0,0.0,0.2666,0.2668,0.2695,0.2756,0.2775,0.2804,0.2893,0.291,0.2939,0.298,0.298,0.3012,0.3073,0.307,0.3059,0.3093,0.3137,0.3165,0.318,0.2927,0.2775,0.2775,0.2272,0.1969,0.1818,0.1667,0.1617,0.1617,0.0,0.0,0.0,0.0,0.0,0.0,0.0,0.0,0.0,0.0,0.0,0.0,0.0,0.0,0.0,0.0,0.0,-0.1319,-0.1298,0.0,-0.1265,0.0,0.0,-0.1108,0.0,-0.1016,-0.0972,-0.0912,-0.0912,-0.0897,-0.0896,-0.0897,-0.0897,-0.0896,-0.0897,-0.0842,-0.0702,-0.0494,-0.033,-0.0186,-0.0064,0.0,0.0,0.0,0.0,0.0,0.0,0.0,0.0,0.0,-0.0155,0.0,0.0,0.0,0.0,0.0,0.0,0.0,0.0,0.0,0.0,-0.0505,0.0,0.0,0.0,0.0,-0.0997,0.0,0.0,0.0,0.0,-0.0791,-0.0679,-0.0356,-0.0316,0.0,0.0,0.0,0.0,0.0,0.0,0.0,0.0,0.0,0.0,0.0,0.0,0.0,0.2601,0.2604,0.2632,0.2694,0.2752,0.2783,0.2786,0.2889,0.292,0.2922,0.2922,0.2951,0.3007,0.301,0.3027,0.309,0.3093,0.3126,0.318,0.2927,0.2775,0.2775,0.2472,0.2371,0.2321,0.1768,0.1617,0.1617,0.0,0.0,0.0,0.0,0.0,0.0,0.0,0.0,0.0,0.0,0.0,0.0,0.0,-0.0689,-0.0861,0.0,0.0,-0.1359,-0.132,-0.1317,0.0,0.0,0.0,-0.1194,0.0,0.0,0.0,-0.0973,-0.0923,-0.0908,-0.0898,-0.0907,-0.0898,-0.0898,-0.0898,-0.0823,0.0,0.0,0.0,0.0,0.0,0.0,0.0,0.0,0.0,0.0,0.0,0.0,0.0,0.0,-0.0039,-0.0116,-0.0114,-0.0148,-0.0179,-0.0176,-0.0172,0.0,0.0,0.0,-0.0404,-0.0472,0.0,0.0,0.0,0.0,0.0,0.0,0.0,0.0,0.0,-0.0527,-0.042,-0.0323,-0.0189,-0.0093,0.0,0.0,0.0,0.0,0.0,0.0,0.0,0.0,0.0,0.0,0.0,0.0,0.0,0.2519,0.257,0.2629,0.2653,0.2702,0.2782,0.2804,0.2834,0.292,0.292,0.2929,0.2949,0.2987,0.305,0.3082,0.3123,0.3125,0.318,0.3079,0.3079,0.3029,0.2775,0.2674,0.2623,0.2271,0.202,0.1819,0.0,0.0,0.0,0.0,0.0,0.0,0.0,0.0,0.0,0.0,0.0,0.0,-0.0532,0.0,-0.0893,0.0,-0.1383,-0.141,-0.1338,-0.1326,0.0,-0.1316,-0.1303,0.0,0.0,0.0,0.0,0.0,0.0,-0.0934,-0.0913,-0.0894,-0.0908,-0.0898,-0.0842,-0.0743,-0.0591,-0.0396,-0.0251,0.0,0.0,0.0,0.0,0.0,0.0,0.0,0.0,0.0,0.0,0.0,0.0,0.0,0.0,0.0,0.0,0.0,0.0,-0.0034,-0.0169,-0.0202,0.0,0.0,-0.0371,0.0,-0.0438,0.0,0.0,0.0,0.0,0.0,0.0,0.0,-0.029,-0.0191,-0.0093,0.003,0.0,0.0312,0.0,0.0,0.0,0.0,0.0,0.0,0.0,0.0,0.0,0.0,0.0,0.0,0.2506,0.2567,0.2671,0.2774,0.2879,0.2987,0.3075,0.3141,0.3141,0.3096,0.3008,0.3046,0.3052,0.3068,0.308,0.3142,0.315,0.3171,0.318,0.318,0.3027,0.2927,0.2876,0.2522,0.2271,0.2121,0.0,0.0,0.0,0.0,0.0,0.0,0.0,0.0,0.0,0.0,0.0,-0.0089,-0.0368,-0.0648,-0.0887,-0.1095,-0.1359,-0.147,-0.1395,-0.141,0.0,0.0,-0.1318,-0.1286,-0.1215,0.0,0.0,0.0,0.0,-0.0972,-0.0915,-0.0914,-0.0897,-0.0898,-0.0757,0.0,-0.0385,-0.0244,-0.0126,0.0,0.0,0.0,0.0,0.0,0.0,0.0,0.0,0.0,0.0,0.0,0.0,0.0,0.0039,0.0039,0.0038,0.0,0.0,0.0,0.0,0.0,0.0,0.0,0.0,0.0,0.0,0.0,-0.0472,0.0,0.0,0.0,0.0,0.0,-0.0224,-0.0031,0.0,0.0059,0.0207,0.0394,0.0,0.0,0.0,0.0,0.0,0.0,0.0,0.0,0.0,0.0,0.0,0.0,0.0,0.2504,0.2766,0.2915,0.303,0.3348,0.3552,0.3587,0.3587,0.3452,0.3227,0.3227,0.3174,0.3054,0.3066,0.3129,0.3144,0.3152,0.3177,0.318,0.318,0.318,0.313,0.2623,0.2422,0.2422,0.0035,0.0,0.0,0.0,0.0,0.0,0.0,0.0,0.0,0.0,0.0,-0.0091,-0.037,-0.0656,-0.0901,-0.1096,-0.1329,0.0,0.0,0.0,0.0,-0.137,-0.134,-0.13,-0.1286,-0.1223,0.0,-0.111,0.0,0.0,-0.0976,-0.0924,-0.084,-0.0757,-0.0729,-0.0521,-0.0244,-0.0215,-0.0127,0.0,0.0,0.0,0.0,0.0,0.0,0.0,0.0,0.0,0.0039,0.0157,0.0236,0.0236,0.0393,0.0464,0.0414,0.0257,0.0215,0.0174,0.0034,0.0,0.0,0.0,-0.0034,-0.0067,0.0,0.0,0.0,0.0,0.0,0.0,0.0,0.0,0.0,0.0,0.0125,0.0275,0.0397,0.0,0.0,0.0936,0.0,0.0,0.0,0.0,0.0,0.0,0.0,0.0,0.0,0.0,0.0,0.0,0.2776,0.2988,0.3276,0.3379,0.3499,0.3587,0.3587,0.3542,0.3497,0.3497,0.3492,0.3516,0.3348,0.3328,0.3387,0.3206,0.314,0.318,0.318,0.318,0.318,0.2826,0.2674,0.2674,0.0178,0.0,0.0,0.0,0.0,0.0,0.0,0.0,0.0,0.0,0.0,0.0,-0.019,-0.048,-0.0679,-0.0782,-0.1165,0.0,-0.1315,0.0,0.0,-0.1393,-0.1375,-0.1338,-0.1319,-0.1269,0.0,-0.1141,0.0,0.0,-0.0913,-0.0885,-0.0739,-0.0573,-0.0508,-0.0378,-0.0186,-0.0127,-0.0065,0.0,0.0,0.0,0.0,0.0108,0.0148,0.0152,0.0234,0.0196,0.0157,0.0353,0.0432,0.0432,0.055,0.0618,0.0565,0.0477,0.0393,0.0348,0.0238,0.0202,0.0202,0.0135,0.0135,0.0101,0.0034,0.0,0.0,0.0,0.0,0.0,0.0,0.0,0.0,0.0129,0.0283,0.0432,0.0,0.0,0.0,0.0,0.0,0.0,0.0,0.0,0.0,0.0,0.0,0.0,0.0,0.0,0.0,0.0,0.2982,0.3249,0.3526,0.3613,0.3737,0.39,0.39,0.3855,0.3723,0.3723,0.3702,0.3653,0.3548,0.3515,0.3593,0.3506,0.3455,0.3491,0.3422,0.3281,0.318,0.3029,0.2977,0.2977,0.0331,0.0,0.0,0.0,0.0,0.0,0.0,0.0,0.0,0.0,0.0,0.0,0.0,-0.0246,-0.0397,-0.0403,0.0,-0.1124,-0.1055,-0.1268,-0.1369,-0.1316,-0.1307,-0.1279,-0.1228,-0.1195,-0.1189,0.0,0.0,-0.092,-0.0775,-0.0752,-0.0607,-0.0382,-0.0257,0.0,0.0,-0.0066,0.0,0.0,0.0,0.0,0.007,0.0216,0.0294,0.0338,0.0578,0.0508,0.0353,0.0589,0.0627,0.0625,0.0665,0.0692,0.0675,0.0658,0.0606,0.0557,0.0509,0.0506,0.0472,0.0371,0.0337,0.027,0.0101,0.0067,0.0067,0.0067,0.0067,0.0,0.0,0.0,0.0,0.0293,0.0,0.0,0.0,0.0,0.0,0.0,0.0,0.0,0.0,0.0,0.0,0.0,0.0,0.0,0.0,0.0,0.0,0.0,0.3245,0.0,0.3737,0.0,0.4081,0.43,0.43,0.4168,0.3946,0.3946,0.3857,0.368,0.3704,0.3738,0.3755,0.3839,0.3902,0.3878,0.3707,0.3534,0.3281,0.3281,0.3281,0.3281,0.0385,0.0,0.0,0.0,0.0,0.0,0.0,0.0,0.0,0.0,0.0,0.0,0.0,-0.0249,-0.0403,-0.0404,-0.0705,0.0,0.0,0.0,0.0,-0.0824,-0.0842,-0.0817,-0.0796,-0.0763,-0.0729,0.0,0.0,0.0,-0.0549,-0.0564,-0.0425,-0.0236,0.0,0.0,-0.0032,0.0,0.0,0.0,0.0,0.0101,0.0238,0.0279,0.0354,0.0499,0.0769,0.0721,0.0589,0.0786,0.0853,0.0877,0.1029,0.1087,0.1059,0.0889,0.0844,0.0766,0.0543,0.0506,0.0506,0.0472,0.0472,0.0472,0.0404,0.0404,0.0404,0.0404,0.0404,0.0404,0.0404,0.0,0.0,0.0,0.0,0.0,0.0,0.0,0.0,0.0,0.0,0.0,0.0,0.0,0.0,0.0,0.0,0.0,0.0,0.0,0.0,0.0,0.0,0.0,0.0,0.0,0.0,0.43,0.43,0.4255,0.421,0.421,0.421,0.4166,0.3961,0.3913,0.3928,0.3773,0.381,0.3878,0.3904,0.3883,0.3883,0.3883,0.3883,0.3783,0.0,0.0,0.0,0.0,0.0,0.0,0.0,0.0,0.0,0.0,0.0,0.0,0.0,-0.01,-0.0202,-0.0202,-0.0455,-0.0601,-0.059,-0.0723,-0.0756,-0.0694,-0.0719,0.0,-0.0716,-0.066,-0.0633,-0.0595,0.0,0.0,-0.0404,0.0,0.0,-0.0093,0.0,-0.0063,0.0,0.0,0.0,0.0,0.0101,0.0202,0.0338,0.052,0.0665,0.0738,0.0975,0.1,0.0907,0.1021,0.105,0.1077,0.1151,0.1168,0.114,0.102,0.1006,0.0991,0.0844,0.0808,0.0775,0.0674,0.064,0.064,0.0539,0.0506,0.0506,0.0506,0.0506,0.0506,0.0506,0.0573,0.0,0.0,0.0,0.0,0.0,0.0,0.0,0.0,0.0,0.0,0.0,0.0,0.0,0.0,0.0,0.0,0.0,0.0,0.0,0.0,0.0,0.0,0.0,0.0,0.0,0.43,0.43,0.43,0.43,0.43,0.43,0.43,0.4166,0.4144,0.4138,0.4095,0.4071,0.4119,0.4159,0.4098,0.3982,0.3982,0.3982,0.3982,0.0,0.0754,0.0,0.0,0.0224,0.0,0.0,0.0,0.0,0.0,0.0,0.0,0.0,0.0,0.0,0.0,-0.0202,-0.0301,-0.0295,-0.053,-0.0614,-0.0556,-0.0544,-0.0572,-0.0548,-0.0548,-0.0529,0.0,0.0,0.0,0.0,0.0,0.0,0.0,0.0,0.0,0.0,0.0,0.0034,0.0067,0.0236,0.0337,0.0439,0.0758,0.0903,0.0975,0.1138,0.1183,0.1183,0.1183,0.1187,0.1193,0.1193,0.1136,0.1111,0.1111,0.1095,0.1109,0.1109,0.1109,0.1076,0.0909,0.0876,0.0809,0.0674,0.064,0.064,0.064,0.064,0.064,0.064,0.0741,0.0,0.0,0.0,0.0,0.0,0.0,0.0,0.0,0.0,0.0,0.0,0.0,0.0,0.0,0.0,0.0,0.0,0.0,0.0,0.0,0.0,0.0,0.3992,0.0,0.4081,0.0,0.43,0.43,0.43,0.43,0.43,0.43,0.43,0.43,0.4306,0.4352,0.4377,0.4313,0.4351,0.4305,0.4162,0.4178,0.4183,0.4183,0.0,0.0,0.0,0.0,0.0,0.0,0.0,0.0,0.0,0.0,0.0,0.0,0.0,0.0,0.0,0.0,0.0,-0.005,-0.0049,-0.0048,-0.0094,-0.0046,-0.0045,-0.0044,-0.0084,-0.0084,-0.0081,0.0,0.0,0.0,0.0,0.0,0.0,0.0,0.0,0.0,0.0,0.0,0.0101,0.027,0.0303,0.0472,0.0742,0.0811,0.0912,0.108,0.1117,0.1118,0.1118,0.1118,0.1102,0.1125,0.1125,0.1104,0.1113,0.1113,0.1111,0.1109,0.1109,0.1109,0.1109,0.1076,0.1076,0.1076,0.1042,0.1042,0.1042,0.1042,0.1042,0.1042,0.1042,0.1042,0.1109,0.0,0.0,0.0,0.0,0.0,0.0,0.0,0.0,0.0,0.0,0.0,0.0,0.0,0.0,0.0,0.0,0.0,0.0,0.0,0.0,0.385,0.3992,0.3994,0.0,0.43,0.43,0.43,0.43,0.43,0.43,0.43,0.43,0.43,0.4306,0.4352,0.4398,0.4431,0.4594,0.4665,0.4632,0.4706,0.4734,0.4734,0.0,0.0,0.0,0.0,0.0,0.0,0.0,0.0248,0.02,0.0,0.0,0.0,0.0,0.0,0.0,0.0,0.0,0.0,0.0,0.0,0.0,0.0,0.0,0.0,0.0,0.0,0.0,0.0,0.0,0.0,0.0,0.0,0.0,0.0,0.0,0.0,0.0,0.0135,0.0236,0.0303,0.0506,0.0674,0.0809,0.0943,0.1043,0.1109,0.1109,0.1109,0.1109,0.1109,0.1084,0.1094,0.1094,0.1085,0.1109,0.1109,0.1109,0.1109,0.1109,0.1109,0.1109,0.1109,0.1109,0.1109,0.1109,0.1109,0.1109,0.1109,0.1176,0.1244,0.1379,0.1412,0.1412,0.0,0.0,0.0,0.0,0.0,0.0,0.0,0.0,0.0,0.0,0.0,0.0,0.0,0.0,0.0,0.0,0.0,0.0,0.3499,0.0,0.385,0.3992,0.3994,0.4081,0.43,0.43,0.43,0.43,0.43,0.43,0.43,0.43,0.43,0.4302,0.4338,0.4385,0.4402,0.4577,0.4661,0.472,0.4955,0.5037,0.5087,0.1459,0.0,0.1207,0.0,0.1012,0.0836,0.0544,0.0501,0.0404,0.0152,0.0101,0.0101,0.0,0.0,0.0,0.0,0.0,0.0,0.0,0.0,0.0,0.0,0.0,0.0,0.0,0.0,0.0,0.0,0.0,0.0,0.0,0.0,0.0,0.0,0.0069,0.0104,0.0104,0.0311,0.0414,0.0483,0.0725,0.0858,0.0921,0.1055,0.1083,0.1109,0.1109,0.1109,0.1143,0.1143,0.121,0.1244,0.1176,0.121,0.1244,0.1244,0.1244,0.1244,0.1244,0.1244,0.1244,0.1244,0.1244,0.1244,0.1244,0.1244,0.1244,0.1244,0.1311,0.1446,0.158,0.1614,0.1614,0.0,0.0,0.0,0.0,0.0,0.0,0.0,0.2456,0.2555,0.2753,0.0,0.0,0.0,0.0,0.0,0.0,0.0,0.0,0.0,0.0,0.0,0.0,0.0,0.4081,0.43,0.4389,0.4433,0.4433,0.4478,0.452,0.452,0.452,0.452,0.452,0.452,0.4516,0.4589,0.4759,0.4851,0.4924,0.5194,0.5338,0.5338,0.152,0.148,0.1453,0.1219,0.1178,0.1087,0.0856,0.0808,0.0707,0.0455,0.0404,0.0303,0.0051,0.0,0.0,0.0,0.0,0.0,0.0,0.0,0.0,0.0,0.0,0.0,0.0,0.0,0.0,0.0,0.0,0.0,0.0,0.0,0.0,0.0,0.0218,0.0291,0.0328,0.051,0.0728,0.091,0.091,0.0968,0.1086,0.1085,0.1102,0.1109,0.1109,0.1176,0.1311,0.1311,0.1446,0.1547,0.1344,0.1446,0.158,0.158,0.158,0.158,0.158,0.158,0.158,0.158,0.158,0.158,0.158,0.158,0.158,0.158,0.158,0.158,0.1614,0.1614,0.1681,0.185,0.0,0.0,0.0,0.0,0.0,0.0,0.2587,0.2787,0.2989,0.0,0.0,0.0,0.0,0.0,0.0,0.0,0.0,0.3584,0.3714,0.0,0.3992,0.3994,0.4081,0.43,0.4569,0.4705,0.4705,0.4924,0.501,0.501,0.501,0.501,0.501,0.501,0.501,0.5032,0.5197,0.5282,0.5308,0.5511,0.5584,0.5584,0.171,0.1609,0.1549,0.147,0.1489,0.1405,0.111,0.1061,0.096,0.0707,0.0657,0.0657,0.0556,0.0202,0.0,0.0,0.0,0.0,0.0,0.0,0.0,0.0,0.0,0.0,0.0,0.0,0.0,0.0,0.0,0.0,0.0,0.0148,0.0219,0.0219,0.0401,0.051,0.051,0.0729,0.0838,0.0911,0.1057,0.1124,0.115,0.1129,0.1115,0.1104,0.1218,0.1277,0.1311,0.1446,0.1648,0.1783,0.1715,0.1648,0.1614,0.1614,0.1614,0.1614,0.1614,0.1614,0.1614,0.1614,0.1614,0.1614,0.1614,0.1614,0.1648,0.1783,0.1817,0.185,0.1985,0.2018,0.2018,0.2087,0.0,0.0,0.0,0.0,0.0,0.0,0.0,0.2956,0.0,0.3125,0.0,0.0,0.0,0.0,0.0,0.0,0.0,0.0,0.3969,0.0,0.4281,0.452,0.4663,0.4788,0.4877,0.4924,0.4924,0.4966,0.501,0.501,0.501,0.501,0.501,0.501,0.501,0.5029,0.5199,0.5282,0.5353,0.5711,0.5889,0.5889,0.1889,0.1787,0.1723,0.1636,0.1605,0.1566,0.1364,0.1364,0.1263,0.101,0.096,0.0909,0.0808,0.0505,0.0,0.0303,0.0298,0.0,0.0286,0.0187,0.0138,0.0135,0.0045,0.0,0.0,0.0,0.0,0.0,0.008,0.0156,0.023,0.034,0.0412,0.0412,0.0638,0.0713,0.0713,0.0938,0.105,0.105,0.12,0.1231,0.1218,0.1235,0.1248,0.1223,0.1409,0.1493,0.1547,0.1681,0.185,0.2018,0.2018,0.1918,0.1817,0.1817,0.1817,0.1817,0.1817,0.1817,0.1817,0.1817,0.1817,0.1817,0.1817,0.1817,0.185,0.1985,0.2018,0.2053,0.2255,0.2288,0.2288,0.2388,0.0,0.0,0.0,0.0,0.0,0.0,0.0,0.0,0.0,0.3324,0.0,0.0,0.0,0.0,0.0,0.0,0.0,0.3904,0.4253,0.0,0.4532,0.4765,0.4956,0.501,0.5099,0.5191,0.528,0.528,0.528,0.528,0.528,0.528,0.528,0.528,0.528,0.5302,0.5526,0.5611,0.5638,0.6007,0.6139,0.6189,0.2146,0.2015,0.0,0.0,0.1617,0.0,0.1617,0.1617,0.1516,0.1263,0.1212,0.1111,0.0908,0.0857,0.0857,0.0855,0.0,0.0,0.0,0.056,0.0412,0.0404,0.018,0.0,0.0045,0.0044,0.0043,0.0042,0.0241,0.0432,0.0589,0.0628,0.0628,0.0628,0.0825,0.0943,0.0943,0.1178,0.1296,0.1296,0.1296,0.1279,0.1253,0.144,0.1471,0.1443,0.1649,0.1794,0.1922,0.1919,0.2052,0.2188,0.2188,0.2188,0.2188,0.2188,0.2188,0.2188,0.2188,0.2188,0.2188,0.2188,0.2188,0.2188,0.2221,0.2221,0.2221,0.2221,0.2221,0.2288,0.2389,0.2423,0.249,0.2686,0.272,0.272,0.272,0.0,0.0,0.0,0.0,0.0,0.0,0.3522,0.372,0.0,0.0,0.0,0.0,0.0,0.0,0.4431,0.4539,0.4688,0.4752,0.4863,0.5007,0.5055,0.5282,0.5508,0.5688,0.5688,0.5688,0.5688,0.5688,0.5688,0.5688,0.5688,0.5694,0.5723,0.5996,0.6092,0.6127,0.6352,0.6437,0.6437,0.0,0.0,0.221,0.1969,0.1921,0.1819,0.1617,0.1617,0.1566,0.1516,0.1516,0.1457,0.1436,0.1434,0.1376,0.1356,0.1011,0.0762,0.0746,0.0685,0.0631,0.0628,0.0583,0.0538,0.0538,0.0528,0.0555,0.0533,0.0518,0.055,0.0589,0.0746,0.0825,0.0825,0.11,0.1218,0.1218,0.1257,0.1296,0.1296,0.1296,0.137,0.1516,0.1488,0.1579,0.174,0.1886,0.1955,0.2008,0.2101,0.2154,0.2188,0.2188,0.2188,0.2188,0.2188,0.2188,0.2188,0.2188,0.2188,0.2188,0.2188,0.2188,0.2221,0.2322,0.2357,0.2389,0.2554,0.2586,0.2586,0.2621,0.2621,0.2654,0.2686,0.282,0.2922,0.2922,0.0,0.0,0.0,0.3421,0.3567,0.3567,0.3834,0.4036,0.0,0.0,0.0,0.0,0.0,0.4755,0.4543,0.4851,0.5003,0.5074,0.5365,0.5526,0.5552,0.5599,0.5644,0.5688,0.5688,0.5688,0.5688,0.5688,0.5688,0.5688,0.5688,0.5739,0.5877,0.6029,0.6143,0.6289,0.6586,0.6692,0.6742,0.2778,0.2655,0.2522,0.2222,0.2171,0.2121,0.1969,0.1869,0.1763,0.1798,0.1696,0.1584,0.1554,0.1551,0.1538,0.1508,0.127,0.1123,0.1065,0.0952,0.0897,0.0897,0.0762,0.0718,0.0718,0.071,0.0734,0.0827,0.0808,0.0834,0.0904,0.1021,0.11,0.11,0.1218,0.1296,0.1296,0.1296,0.1336,0.1454,0.1454,0.1572,0.1727,0.178,0.1874,0.1963,0.2128,0.2164,0.2135,0.2181,0.2214,0.2232,0.2204,0.2214,0.2237,0.2237,0.2218,0.2202,0.2229,0.2237,0.2271,0.2374,0.2478,0.2576,0.2578,0.2571,0.2596,0.2693,0.2686,0.272,0.282,0.2822,0.2855,0.2922,0.3023,0.3092,0.3092,0.3228,0.0,0.3417,0.3638,0.383,0.3878,0.4157,0.4355,0.4418,0.0,0.0,0.4854,0.4985,0.5044,0.4864,0.5097,0.5257,0.533,0.5582,0.5688,0.5688,0.5688,0.5688,0.5688,0.5688,0.5718,0.5812,0.5812,0.5887,0.6076,0.6076,0.6158,0.6371,0.6501,0.6594,0.6669,0.6895,0.6992,0.6992,0.2917,0.2876,0.2775,0.2522,0.2472,0.2472,0.2422,0.2216,0.205,0.2066,0.1862,0.165,0.1618,0.1614,0.1601,0.1569,0.1566,0.152,0.1474,0.1268,0.1166,0.1166,0.0942,0.0807,0.0807,0.0805,0.0876,0.1053,0.1029,0.1126,0.1296,0.1296,0.1296,0.1296,0.1335,0.1335,0.1335,0.1375,0.1493,0.165,0.165,0.1768,0.1964,0.2118,0.217,0.217,0.2348,0.2351,0.2303,0.2244,0.2257,0.2289,0.2274,0.2293,0.2337,0.2383,0.2348,0.2316,0.2323,0.237,0.2443,0.2622,0.284,0.2969,0.2866,0.2852,0.2868,0.2838,0.2822,0.2854,0.3046,0.3044,0.3105,0.3194,0.3204,0.3246,0.328,0.0,0.0,0.3755,0.3918,0.4034,0.4164,0.4455,0.4671,0.4671,0.4878,0.0,0.0,0.5124,0.5195,0.5214,0.5333,0.5455,0.5534,0.5637,0.5688,0.5688,0.5688,0.5733,0.5777,0.5796,0.5857,0.6041,0.6061,0.6267,0.6552,0.6552,0.6697,0.69,0.702,0.7073,0.7097,0.7214,0.722,0.7288,0.3179,0.313,0.3029,0.2775,0.2725,0.2674,0.2422,0.2339,0.2263,0.2256,0.2177,0.2092,0.2098,0.2093,0.1984,0.1762,0.1758,0.1668,0.1442,0.1393,0.1345,0.1345,0.13,0.13,0.13,0.1278,0.1295,0.1263,0.1235,0.1287,0.1296,0.1296,0.1296,0.1296,0.1493,0.1572,0.1572,0.1729,0.1808,0.1848,0.1848,0.1963,0.2157,0.2195,0.2309,0.2452,0.2401,0.2377,0.236,0.2304,0.2291,0.2334,0.2501,0.254,0.2596,0.2842,0.2889,0.2832,0.2598,0.2733,0.2914,0.2914,0.2987,0.302,0.3118,0.315,0.3182,0.3351,0.3385,0.3363,0.3356,0.3342,0.3318,0.3206,0.3291,0.3446,0.0,0.0,0.3817,0.4013,0.4311,0.4487,0.4502,0.4762,0.4949,0.4949,0.4965,0.5018,0.5018,0.5124,0.5235,0.5377,0.5458,0.5537,0.5659,0.568,0.5688,0.5688,0.5688,0.5822,0.6044,0.6153,0.6347,0.66,0.6712,0.6776,0.6841,0.6841,0.6841,0.6797,0.6818,0.6897,0.7046,0.7259,0.7442,0.7593,0.3484,0.3433,0.3332,0.3079,0.3002,0.2932,0.2783,0.2591,0.2452,0.2476,0.2313,0.219,0.2191,0.2185,0.2132,0.2021,0.2019,0.1974,0.1839,0.157,0.1391,0.1391,0.1391,0.1391,0.1391,0.1422,0.1349,0.1305,0.1292,0.1344,0.1454,0.1454,0.1533,0.1611,0.1729,0.1768,0.1768,0.1848,0.1964,0.2081,0.2081,0.2198,0.2353,0.2353,0.2431,0.2507,0.2478,0.2507,0.2614,0.255,0.2628,0.2728,0.2801,0.2851,0.289,0.3001,0.3049,0.3041,0.2892,0.3071,0.326,0.326,0.3336,0.3438,0.3428,0.3419,0.3442,0.3473,0.3499,0.3487,0.3444,0.3438,0.3459,0.3517,0.3582,0.0,0.0,0.4042,0.4201,0.4335,0.4574,0.4744,0.4808,0.4944,0.5018,0.5018,0.5018,0.5045,0.5105,0.5219,0.5421,0.5673,0.5627,0.5632,0.5688,0.5863,0.5908,0.5908,0.6038,0.6124,0.626,0.6442,0.6587,0.6755,0.6934,0.7091,0.719,0.719,0.7193,0.7221,0.7221,0.7263,0.7321,0.7461,0.7551,0.7611,0.3732,0.3685,0.3629,0.3412,0.3269,0.3184,0.317,0.2875,0.2682,0.269,0.2489,0.2376,0.2382,0.2379,0.2334,0.2289,0.2289,0.2243,0.2199,0.1794,0.157,0.157,0.157,0.157,0.157,0.157,0.1538,0.1474,0.1474,0.1522,0.165,0.165,0.1768,0.1887,0.1964,0.1964,0.1964,0.2004,0.212,0.2275,0.2275,0.2353,0.2511,0.2511,0.2511,0.2589,0.2589,0.2707,0.2857,0.2803,0.2937,0.3091,0.3109,0.317,0.3217,0.3258,0.3258,0.3258,0.3258,0.3411,0.3565,0.3565,0.3684,0.3783,0.3673,0.3658,0.364,0.3575,0.356,0.3591,0.3607,0.3603,0.3668,0.3824,0.0,0.0,0.0,0.435,0.4509,0.4674,0.4798,0.4876,0.501,0.5018,0.5018,0.5018,0.5081,0.5176,0.5264,0.5496,0.5721,0.6013,0.5901,0.5863,0.5863,0.6083,0.6171,0.6171,0.6343,0.6432,0.6482,0.6666,0.6836,0.6942,0.7124,0.7283,0.743,0.743,0.7488,0.7546,0.7593,0.7636,0.7636,0.7686,0.7754,0.7785,0.4021,0.3984,0.3961,0.3842,0.3632,0.3464,0.34,0.3145,0.2963,0.2959,0.2913,0.2834,0.283,0.2829,0.2739,0.2513,0.2469,0.2379,0.2199,0.2154,0.2154,0.2154,0.2154,0.2154,0.2154,0.2154,0.2066,0.1934,0.1934,0.1932,0.1887,0.1887,0.1887,0.1926,0.208,0.2196,0.2196,0.2393,0.247,0.247,0.247,0.247,0.2511,0.2511,0.2628,0.2787,0.2787,0.2904,0.3061,0.3056,0.3096,0.3139,0.3404,0.3482,0.3487,0.3684,0.3763,0.3763,0.3763,0.3763,0.3763,0.3763,0.3802,0.38,0.3793,0.3791,0.3791,0.3783,0.3783,0.3795,0.386,0.3883,0.3929,0.4055,0.0,0.0,0.4517,0.4647,0.4756,0.4963,0.4963,0.5007,0.5015,0.5018,0.5018,0.5018,0.5277,0.5465,0.5474,0.5957,0.6285,0.6369,0.6337,0.634,0.634,0.6387,0.6387,0.6387,0.6384,0.652,0.6754,0.6898,0.7106,0.7351,0.7503,0.757,0.757,0.757,0.7526,0.7433,0.7612,0.7699,0.7699,0.7984,0.8122,0.8243,0.4179,0.4138,0.408,0.3859,0.3721,0.3636,0.3607,0.3448,0.3356,0.3356,0.3199,0.3094,0.3094,0.2963,0.2873,0.2739,0.2739,0.2694,0.2649,0.2649,0.2513,0.2199,0.2199,0.2199,0.2199,0.217,0.208,0.2018,0.1948,0.1985,0.208,0.208,0.2158,0.2277,0.2354,0.2392,0.2392,0.247,0.2511,0.2511,0.2628,0.2668,0.2707,0.2826,0.2904,0.2982,0.2982,0.3139,0.3333,0.3333,0.3411,0.3567,0.3645,0.3684,0.3684,0.3763,0.3802,0.3802,0.3802,0.3802,0.3802,0.3802,0.3802,0.3802,0.3802,0.3802,0.3802,0.3802,0.3882,0.3988,0.4031,0.4135,0.4275,0.4427,0.0,0.4601,0.4832,0.4869,0.4898,0.4979,0.5018,0.5018,0.5018,0.5129,0.5238,0.5317,0.5565,0.5825,0.5993,0.6393,0.6605,0.6656,0.6786,0.6697,0.6384,0.6567,0.6656,0.6656,0.6786,0.6874,0.6972,0.7166,0.7328,0.7426,0.7669,0.7726,0.7685,0.7827,0.7825,0.7726,0.7812,0.7812,0.7856,0.7949,0.7986,0.8039,0.4375,0.4332,0.4277,0.4016,0.3921,0.3829,0.376,0.3666,0.3587,0.3587,0.3452,0.3317,0.3317,0.3186,0.3142,0.3142,0.3142,0.3142,0.3142,0.3053,0.2827,0.2424,0.2424,0.2424,0.2424,0.2373,0.2279,0.2228,0.2137,0.2167,0.2275,0.2275,0.2353,0.2511,0.255,0.2589,0.2589,0.2668,0.2707,0.2707,0.2826,0.2904,0.2904,0.3062,0.3141,0.3217,0.3217,0.3372,0.3604,0.3604,0.3684,0.3802,0.3802,0.3802,0.3802,0.3802,0.3843,0.3882,0.3882,0.3958,0.3958,0.3841,0.3802,0.3802,0.3882,0.3882,0.3919,0.3958,0.4114,0.4194,0.4272,0.4387,0.4543,0.4779,0.4779,0.4859,0.4979,0.5018,0.5018,0.5018,0.5054,0.5093,0.5093,0.5319,0.5534,0.5626,0.595,0.6267,0.6548,0.6784,0.6881,0.6881,0.701,0.6962,0.6609,0.6789,0.6881,0.6881,0.7054,0.7095,0.7098,0.7344,0.7438,0.7444,0.7773,0.7851,0.7791,0.7979,0.8005,0.79,0.7984,0.7984,0.7984,0.8076,0.812,0.812,0.4553,0.4619,0.4542,0.4404,0.4248,0.4036,0.3914,0.3723,0.3587,0.3587,0.3587,0.3587,0.3587,0.3587,0.3587,0.3587,0.3587,0.3587,0.3587,0.3361,0.3094,0.292,0.292,0.292,0.2918,0.2813,0.2752,0.2692,0.2631,0.257,0.2511,0.2511,0.2511,0.2511,0.2707,0.2787,0.2826,0.3023,0.3102,0.3102,0.3102,0.3102,0.3102,0.3102,0.3256,0.3487,0.3487,0.3643,0.3802,0.3802,0.3802,0.3802,0.3802,0.3802,0.3802,0.3802,0.396,0.4118,0.4118,0.4231,0.4307,0.3919,0.3802,0.3843,0.404,0.4118,0.4155,0.4345,0.4384,0.4462,0.4659,0.4701,0.4779,0.4976,0.5018,0.5018,0.5018,0.5018,0.5018,0.5018,0.5168,0.5282,0.5321,0.5674,0.5913,0.5913,0.6334,0.677,0.7088,0.7095,0.7095,0.7095,0.7095,0.7095,0.7095,0.7095,0.7095,0.7095,0.7095,0.7095,0.7095,0.737,0.7507,0.7507,0.7768,0.79,0.79,0.79,0.79,0.794,0.8113,0.8201,0.8245,0.852,0.8612,0.8612,0.465,0.452,0.4371,0.4344,0.4293,0.424,0.4172,0.4121,0.4076,0.4076,0.3944,0.3812,0.3812,0.3678,0.3587,0.3587,0.3587,0.3587,0.3587,0.3542,0.3452,0.3409,0.3097,0.2899,0.2811,0.2751,0.2689,0.2628,0.2688,0.2726,0.2707,0.2865,0.2904,0.2943,0.2982,0.3023,0.3023,0.3062,0.3102,0.3102,0.3294,0.3372,0.3411,0.3528,0.3645,0.3724,0.3724,0.3763,0.3841,0.396,0.3999,0.4038,0.419,0.4229,0.4229,0.4229,0.4268,0.4309,0.4309,0.4345,0.4382,0.4268,0.4229,0.4229,0.4309,0.4309,0.4345,0.4384,0.4501,0.4621,0.4701,0.4818,0.4937,0.4979,0.5018,0.5018,0.5018,0.5018,0.5054,0.5207,0.5362,0.5493,0.5692,0.6053,0.6299,0.6402,0.6751,0.7007,0.7095,0.7095,0.7095,0.7095,0.7279,0.737,0.737,0.7187,0.7187,0.737,0.737,0.7459,0.7676,0.7724,0.7768,0.7812,0.8028,0.8113,0.8113,0.8296,0.8388,0.8388,0.8476,0.8476,0.8476,0.8568,0.8696,0.8828,0.4837,0.4701,0.4565,0.4565,0.4565,0.4565,0.4565,0.4523,0.4478,0.4478,0.4212,0.4078,0.4078,0.3944,0.39,0.39,0.39,0.381,0.3723,0.3723,0.3678,0.3587,0.3293,0.3128,0.3086,0.3019,0.2911,0.2846,0.2899,0.2904,0.2904,0.3062,0.3102,0.3102,0.3217,0.3256,0.3256,0.3335,0.3374,0.3374,0.3567,0.3604,0.3643,0.3763,0.3843,0.3921,0.3921,0.3958,0.4075,0.4192,0.4233,0.4231,0.4345,0.4384,0.4384,0.4384,0.4462,0.4501,0.4501,0.4582,0.4621,0.4621,0.4501,0.4423,0.4501,0.4501,0.4543,0.4621,0.474,0.4818,0.4818,0.4898,0.5018,0.5018,0.5018,0.5015,0.509,0.5174,0.5283,0.5514,0.5709,0.5912,0.6072,0.6408,0.6636,0.678,0.7004,0.7143,0.7234,0.7279,0.7323,0.7408,0.7591,0.7635,0.7635,0.756,0.756,0.768,0.7701,0.7823,0.7997,0.8087,0.8131,0.8127,0.828,0.8336,0.838,0.852,0.8612,0.8612,0.8696,0.874,0.874,0.8828,0.8959,0.9043,0.5055,0.501,0.501,0.501,0.501,0.501,0.501,0.4835,0.475,0.475,0.4523,0.4342,0.4342,0.4342,0.4342,0.4342,0.4344,0.4212,0.3946,0.3946,0.3853,0.3667,0.3598,0.3554,0.354,0.3428,0.3316,0.3204,0.3135,0.3141,0.3141,0.3141,0.318,0.318,0.3411,0.3526,0.3526,0.3724,0.3802,0.3802,0.3802,0.3841,0.3841,0.3841,0.396,0.4118,0.4118,0.4231,0.4384,0.4423,0.4423,0.4462,0.4462,0.4462,0.4462,0.4462,0.4582,0.474,0.474,0.4859,0.5018,0.5018,0.474,0.4501,0.4701,0.474,0.4779,0.4976,0.5018,0.5018,0.5018,0.5026,0.5031,0.5031,0.5042,0.5126,0.5316,0.5456,0.5649,0.5928,0.621,0.6421,0.6421,0.6727,0.6957,0.7129,0.7143,0.7234,0.7507,0.7551,0.7635,0.79,0.7896,0.7952,0.7967,0.8072,0.8072,0.7967,0.8091,0.8174,0.8219,0.8443,0.8522,0.8548,0.8569,0.8624,0.8612,0.8612,0.8656,0.87,0.8867,0.8955,0.8955,0.9218,0.9305,0.9345,0.5327,0.5144,0.501,0.501,0.501,0.501,0.501,0.4966,0.4921,0.4921,0.4877,0.4832,0.4832,0.4832,0.4832,0.4832,0.4701,0.448,0.421,0.421,0.4182,0.4073,0.4051,0.3976,0.3837,0.3449,0.3201,0.3125,0.3303,0.3409,0.3409,0.3567,0.3645,0.3645,0.3724,0.3724,0.3724,0.3763,0.3802,0.3802,0.396,0.404,0.4038,0.4192,0.4307,0.4345,0.4345,0.4345,0.4423,0.4582,0.474,0.4859,0.4859,0.4859,0.4859,0.4859,0.4898,0.4937,0.4937,0.4976,0.5018,0.5018,0.4937,0.4898,0.4937,0.4937,0.4937,0.4979,0.5018,0.5018,0.5018,0.5089,0.5148,0.5148,0.5395,0.5544,0.5624,0.5812,0.603,0.6274,0.6444,0.6616,0.6793,0.6967,0.7153,0.7411,0.7415,0.7547,0.7812,0.7812,0.7856,0.79,0.8072,0.8222,0.8362,0.8532,0.8532,0.8366,0.8486,0.866,0.89,0.8946,0.8866,0.8729,0.8734,0.8775,0.8823,0.8823,0.8955,0.9174,0.9218,0.9218,0.9218,0.9262,0.9388,0.9559,0.5552,0.5416,0.5327,0.5327,0.5327,0.5327,0.5327,0.5235,0.5191,0.5191,0.5099,0.501,0.501,0.501,0.501,0.501,0.4924,0.479,0.4654,0.4654,0.4568,0.4478,0.4473,0.4376,0.4185,0.3897,0.3653,0.3452,0.3567,0.3643,0.3643,0.3763,0.3802,0.3802,0.3882,0.396,0.396,0.4036,0.4073,0.4112,0.4192,0.4231,0.427,0.4345,0.4462,0.4543,0.4543,0.4621,0.4701,0.4818,0.4898,0.5018,0.5018,0.5018,0.5018,0.5018,0.5018,0.5018,0.5018,0.5018,0.5018,0.5018,0.5018,0.5018,0.5018,0.5018,0.5018,0.5018,0.5061,0.5097,0.5097,0.5278,0.544,0.544,0.5703,0.5913,0.6034,0.6215,0.6424,0.6635,0.6764,0.694,0.7165,0.7234,0.7411,0.768,0.768,0.7812,0.8028,0.8028,0.8116,0.8208,0.834,0.8468,0.8639,0.8864,0.8995,0.9126,0.9075,0.9119,0.9265,0.936,0.9353,0.925,0.9212,0.9217,0.9212,0.9121,0.9174,0.9305,0.9388,0.9432,0.9476,0.9607,0.9689,0.982,0.5822,0.5822,0.5822,0.5777,0.5777,0.5733,0.5688,0.5552,0.5463,0.5463,0.5235,0.5099,0.5099,0.5099,0.5099,0.5055,0.5055,0.5055,0.501,0.501,0.4956,0.4796,0.4751,0.4644,0.4478,0.443,0.4229,0.3919,0.3919,0.3919,0.3919,0.3919,0.3919,0.3919,0.4077,0.4155,0.4155,0.4345,0.4384,0.4384,0.4423,0.4462,0.4462,0.4501,0.4621,0.474,0.474,0.4859,0.5018,0.5054,0.5054,0.5054,0.5093,0.5093,0.5093,0.5093,0.5093,0.5093,0.5093,0.5093,0.5093,0.5093,0.511,0.5162,0.5162,0.5084,0.5048,0.5087,0.5177,0.53,0.534,0.5608,0.5784,0.5784,0.605,0.6273,0.6434,0.658,0.6744,0.6923,0.7068,0.7279,0.7462,0.7551,0.768,0.794,0.794,0.8028,0.8245,0.8288,0.838,0.8612,0.8685,0.8783,0.891,0.914,0.9463,0.9883,0.969,0.9594,0.9594,0.9786,0.9861,0.9858,0.9695,0.966,0.9615,0.9425,0.9393,0.9432,0.9602,0.9689,0.9689,0.9951,1.0081,1.0125,0.6299,0.6299,0.6257,0.6083,0.6038,0.5952,0.5733,0.5688,0.5644,0.5644,0.5644,0.5599,0.5599,0.5599,0.5552,0.5371,0.5327,0.5235,0.501,0.501,0.4922,0.4732,0.4711,0.4608,0.4408,0.4392,0.4384,0.4307,0.4307,0.4307,0.4307,0.4307,0.4307,0.4307,0.4345,0.4345,0.4345,0.4384,0.4384,0.4423,0.4582,0.4659,0.4659,0.4859,0.4937,0.4976,0.4976,0.4979,0.5015,0.5207,0.5243,0.5282,0.5482,0.5521,0.5521,0.5521,0.5521,0.5521,0.5521,0.5521,0.5521,0.5521,0.5644,0.5765,0.5765,0.5445,0.5205,0.5408,0.5551,0.5723,0.5927,0.612,0.6215,0.6215,0.6483,0.6737,0.6737,0.6923,0.7024,0.7068,0.7309,0.7459,0.7507,0.7724,0.794,0.8157,0.8157,0.8292,0.852,0.8564,0.8564,0.8612,0.893,0.9191,0.9381,0.9793,1.0079,1.0324,1.0275,1.0275,1.0275,1.0324,1.0228,1.0053,0.9839,0.9793,0.9849,0.9645,0.9689,0.9907,0.9951,0.9951,0.9951,1.0164,1.0424,1.0598,0.6384,0.6384,0.6387,0.6299,0.6254,0.6213,0.6124,0.6083,0.6083,0.6083,0.6083,0.6083,0.6083,0.6083,0.6035,0.5947,0.5947,0.5855,0.5636,0.5636,0.5444,0.5087,0.5077,0.4971,0.4745,0.474,0.474,0.474,0.4501,0.4384,0.4384,0.4384,0.4384,0.4423,0.4501,0.4582,0.4582,0.4701,0.474,0.474,0.482,0.4859,0.4859,0.4976,0.5054,0.5168,0.5287,0.5326,0.5365,0.544,0.5479,0.5479,0.5559,0.5598,0.5598,0.5598,0.5598,0.5598,0.5598,0.5598,0.5617,0.5729,0.583,0.5932,0.6009,0.5921,0.5829,0.5841,0.5931,0.6069,0.6193,0.6433,0.6571,0.6571,0.6797,0.6966,0.6966,0.7054,0.7143,0.7323,0.7547,0.7768,0.7896,0.7984,0.816,0.8384,0.8428,0.8472,0.8612,0.8696,0.883,0.8925,0.927,0.9546,0.9845,1.0022,1.0259,1.0605,1.0605,1.0556,1.0413,1.056,1.0556,1.0457,1.0341,1.0246,1.0277,0.9955,0.9951,1.0164,1.0164,1.025,1.0381,1.0467,1.0598,1.0727]}]]